[[{"header":{"parameterUnit":"m.s-1","parameterCategory":1,"la1":30.6,"la2":28.766,"lo1":-90.7593,"lo2":-88.6598,"dy":0.0162,"dx":0.0183,"nx":116,"ny":114,"refTime":"2024-04-10T06:00:00:Z","depth":0,"parameterNumber":2,"parameterNumberName":"U-component_of_WINDS"},"data":[0.0,0.0,0.0,0.0,0.0,0.0,0.0,0.0,0.0,0.0,0.0,0.0,0.0,0.0,0.0,0.0,0.0,0.0,0.0,0.0,0.0,0.0,0.0,0.0,0.0,0.0,0.0,0.0,0.0,0.0,0.0,0.0,0.0,0.0,0.0,0.0,0.0,0.0,0.0,0.0,0.0,0.0,0.0,0.0,0.0,0.0,0.0,0.0,0.0,0.0,0.0,0.0,0.0,0.0,0.0,0.0,0.0,0.0,0.0,0.0,0.0,0.0,0.0,0.0,0.0,0.0,0.0,0.0,0.0,0.0,0.0,0.0,0.0,0.0,0.0,0.0,0.0,0.0,0.0,0.0,0.0,0.0,0.0,0.0,0.0,0.0,0.0,0.0,0.0,0.0,0.0,0.0,0.0,0.0,0.0,0.0,0.0,0.0,0.0,0.0,0.0,0.0,0.0,0.0,0.0,0.0,0.0,0.0,0.0,0.0,0.0,0.0,0.0,0.0,0.0,0.0,0.0,0.0,0.0,0.0,0.0,0.0,0.0,0.0,0.0,0.0,0.0,0.0,0.0,0.0,0.0,0.0,0.0,0.0,0.0,0.0,0.0,0.0,0.0,0.0,0.0,0.0,0.0,0.0,0.0,0.0,0.0,0.0,0.0,0.0,0.0,0.0,0.0,0.0,0.0,0.0,0.0,0.0,0.0,0.0,0.0,0.0,0.0,0.0,0.0,0.0,0.0,0.0,0.0,0.0,0.0,0.0,0.0,0.0,0.0,0.0,0.0,0.0,0.0,0.0,0.0,0.0,0.0,0.0,0.0,0.0,0.0,0.0,0.0,0.0,0.0,0.0,0.0,0.0,0.0,0.0,0.0,0.0,0.0,0.0,0.0,0.0,0.0,0.0,0.0,0.0,0.0,0.0,0.0,0.0,0.0,0.0,0.0,0.0,0.0,0.0,0.0,0.0,0.0,0.0,0.0,0.0,0.0,0.0,0.0,0.0,0.0,0.0,0.0,0.0,0.0,0.0,0.0,0.0,0.0,0.0,0.0,0.0,0.0,0.0,0.0,0.0,0.0,0.0,0.0,0.0,0.0,0.0,0.0,0.0,0.0,0.0,0.0,0.0,0.0,0.0,0.0,0.0,0.0,0.0,0.0,0.0,0.0,0.0,0.0,0.0,0.0,0.0,0.0,0.0,0.0,0.0,0.0,0.0,0.0,0.0,0.0,0.0,0.0,0.0,0.0,0.0,0.0,0.0,0.0,0.0,0.0,0.0,0.0,0.0,0.0,0.0,0.0,0.0,0.0,0.0,0.0,0.0,0.0,0.0,0.0,0.0,0.0,0.0,0.0,0.0,0.0,0.0,0.0,0.0,0.0,0.0,0.0,0.0,0.0,0.0,0.0,0.0,0.0,0.0,0.0,0.0,0.0,0.0,0.0,0.0,0.0,0.0,0.0,0.0,0.0,0.0,0.0,0.0,0.0,0.0,0.0,0.0,0.0,0.0,0.0,0.0,0.0,0.0,0.0,0.0,0.0,0.0,0.0,0.0,0.0,0.0,0.0,0.0,0.0,0.0,0.0,0.0,0.0,0.0,0.0,0.0,0.0,0.0,0.0,0.0,0.0,0.0,0.0,0.0,0.0,0.0,0.0,0.0,0.0,0.0,0.0,0.0,0.0,0.0,0.0,0.0,0.0,0.0,0.0,0.0,0.0,0.0,0.0,0.0,0.0,0.0,0.0,0.0,0.0,0.0,0.0,0.0,0.0,0.0,0.0,0.0,0.0,0.0,0.0,0.0,0.0,0.0,0.0,0.0,0.0,0.0,0.0,0.0,0.0,0.0,0.0,0.0,0.0,0.0,0.0,0.0,0.0,0.0,0.0,0.0,0.0,0.0,0.0,0.0,0.0,0.0,0.0,0.0,0.0,0.0,0.0,0.0,0.0,0.0,0.0,0.0,0.0,0.0,0.0,0.0,0.0,0.0,0.0,0.0,0.0,0.0,0.0,0.0,0.0,0.0,0.0,0.0,0.0,0.0,0.0,0.0,0.0,0.0,0.0,0.0,0.0,0.0,0.0,0.0,0.0,0.0,0.0,0.0,0.0,0.0,0.0,0.0,0.0,0.0,0.0,0.0,0.0,0.0,0.0,0.0,0.0,0.0,0.0,0.0,0.0,0.0,0.0,0.0,0.0,0.0,0.0,0.0,0.0,0.0,0.0,0.0,0.0,0.0,0.0,0.0,0.0,0.0,0.0,0.0,0.0,0.0,0.0,0.0,0.0,0.0,0.0,0.0,0.0,0.0,0.0,0.0,0.0,0.0,0.0,0.0,0.0,0.0,0.0,0.0,0.0,0.0,0.0,0.0,0.0,0.0,0.0,0.0,0.0,0.0,0.0,0.0,0.0,0.0,0.0,0.0,0.0,0.0,0.0,0.0,0.0,0.0,0.0,0.0,0.0,0.0,0.0,0.0,0.0,0.0,0.0,0.0,0.0,0.0,0.0,0.0,0.0,0.0,0.0,0.0,0.0,0.0,0.0,0.0,0.0,0.0,0.0,0.0,0.0,0.0,0.0,0.0,0.0,0.0,0.0,0.0,0.0,0.0,0.0,0.0,0.0,0.0,0.0,0.0,0.0,0.0,0.0,0.0,0.0,0.0,0.0,0.0,0.0,0.0,0.0,0.0,0.0,0.0,0.0,0.0,0.0,0.0,0.0,0.0,0.0,0.0,0.0,0.0,0.0,0.0,0.0,0.0,0.0,0.0,0.0,0.0,0.0,0.0,0.0,0.0,0.0,0.0,0.0,0.0,0.0,0.0,0.0,0.0,0.0,0.0,0.0,0.0,0.0,0.0,0.0,0.0,0.0,0.0,0.0,0.0,0.0,0.0,0.0,0.0,0.0,0.0,0.0,0.0,0.0,0.0,0.0,0.0,0.0,0.0,0.0,0.0,0.0,0.0,0.0,0.0,0.0,0.0,0.0,0.0,0.0,0.0,0.0,0.0,0.0,0.0,0.0,0.0,0.0,0.0,0.0,0.0,0.0,0.0,0.0,0.0,0.0,0.0,0.0,0.0,0.0,0.0,0.0,0.0,0.0,0.0,0.0,0.0,0.0,0.0,0.0,0.0,0.0,0.0,0.0,0.0,0.0,0.0,0.0,0.0,0.0,0.0,0.0,0.0,0.0,0.0,0.0,0.0,0.0,0.0,0.0,0.0,0.0,0.0,0.0,0.0,0.0,0.0,0.0,0.0,0.0,0.0,0.0,0.0,0.0,0.0,0.0,0.0,0.0,0.0,0.0,0.0,0.0,0.0,0.0,0.0,0.0,0.0,0.0,0.0,0.0,0.0,0.0,0.0,0.0,0.0,0.0,0.0,0.0,0.0,0.0,0.0,0.0,0.0,0.0,0.0,0.0,0.0,0.0,0.0,0.0,0.0,0.0,0.0,0.0,0.0,0.0,0.0,0.0,0.0,0.0,0.0,0.0,0.0,0.0,0.0,0.0,0.0,0.0,0.0,0.0,0.0,0.0,0.0,0.0,0.0,0.0,0.0,0.0,0.0,0.0,0.0,0.0,0.0,0.0,0.0,0.0,0.0,0.0,0.0,0.0,0.0,0.0,0.0,0.0,0.0,0.0,0.0,0.0,0.0,0.0,0.0,0.0,0.0,0.0,0.0,0.0,0.0,0.0,0.0,0.0,0.0,0.0,0.0,0.0,0.0,0.0,0.0,0.0,0.0,0.0,0.0,0.0,0.0,0.0,0.0,0.0,0.0,0.0,0.0,0.0,0.0,0.0,0.0,0.0,0.0,0.0,0.0,0.0,0.0,0.0,0.0,0.0,0.0,0.0,0.0,0.0,0.0,0.0,0.0,0.0,0.0,0.0,0.0,0.0,0.0,0.0,0.0,0.0,0.0,0.0,0.0,0.0,0.0,0.0,0.0,0.0,0.0,0.0,0.0,0.0,0.0,0.0,0.0,0.0,0.0,0.0,0.0,0.0,0.0,0.0,0.0,0.0,0.0,0.0,0.0,0.0,0.0,0.0,0.0,0.0,0.0,0.0,0.0,0.0,0.0,0.0,0.0,0.0,0.0,0.0,0.0,0.0,0.0,0.0,0.0,0.0,0.0,0.0,0.0,0.0,0.0,0.0,0.0,0.0,0.0,0.0,0.0,0.0,0.0,0.0,0.0,0.0,0.0,0.0,0.0,0.0,0.0,0.0,0.0,0.0,0.0,0.0,0.0,0.0,0.0,0.0,0.0,0.0,0.0,0.0,0.0,0.0,0.0,0.0,0.0,0.0,0.0,0.0,0.0,0.0,0.0,0.0,0.0,0.0,0.0,0.0,0.0,0.0,0.0,0.0,0.0,0.0,0.0,0.0,0.0,0.0,0.0,0.0,0.0,0.0,0.0,0.0,0.0,0.0,0.0,0.0,0.0,0.0,0.0,0.0,0.0,0.0,0.0,0.0,0.0,0.0,0.0,0.0,0.0,0.0,0.0,0.0,0.0,0.0,0.0,0.0,0.0,0.0,0.0,0.0,0.0,0.0,0.0,0.0,0.0,0.0,0.0,0.0,0.0,0.0,0.0,0.0,0.0,0.0,0.0,0.0,0.0,0.0,0.0,0.0,0.0,0.0,0.0,0.0,0.0,0.0,0.0,0.0,0.0,0.0,0.0,0.0,0.0,0.0,0.0,0.0,0.0,0.0,0.0,0.0,0.0,0.0,0.0,0.0,0.0,0.0,0.0,0.0,0.0,0.0,0.0,0.0,0.0,0.0,0.0,0.0,0.0,0.0,0.0,0.0,0.0,0.0,0.0,0.0,0.0,0.0,0.0,0.0,0.0,0.0,0.0,0.0,0.0,0.0,0.0,0.0,0.0,0.0,0.0,0.0,0.0,0.0,0.0,0.0,0.0,0.0,0.0,0.0,0.0,0.0,0.0,0.0,0.0,0.0,0.0,0.0,0.0,0.0,0.0,0.0,0.0,0.0,0.0,0.0,0.0,0.0,0.0,0.0,0.0,0.0,0.0,0.0,0.0,0.0,0.0,0.0,0.0,0.0,0.0,0.0,0.0,0.0,0.0,0.0,0.0,0.0,0.0,0.0,0.0,0.0,0.0,0.0,0.0,0.0,0.0,0.0,0.0,0.0,0.0,0.0,0.0,0.0,0.0,0.0,0.0,0.0,0.0,0.0,0.0,0.0,0.0,0.0,0.0,0.0,0.0,0.0,0.0,0.0,0.0,0.0,0.0,0.0,0.0,0.0,0.0,0.0,0.0,0.0,0.0,0.0,0.0,0.0,0.0,0.0,0.0,0.0,0.0,0.0,0.0,0.0,0.0,0.0,0.0,0.0,0.0,0.0,0.0,0.0,0.0,0.0,0.0,0.0,0.0,0.0,0.0,0.0,0.0,0.0,0.0,0.0,0.0,0.0,0.0,0.0,0.0,0.0,0.0,0.0,0.0,0.0,0.0,0.0,0.0,0.0,0.0,0.0,0.0,0.0,0.0,0.0,0.0,0.0,0.0,0.0,0.0,0.0,0.0,0.0,0.0,0.0,0.0,0.0,0.0,0.0,0.0,0.0,0.0,0.0,0.0,0.0,0.0,0.0,0.0,0.0,0.0,0.0,0.0,0.0,0.0,0.0,0.0,0.0,0.0,0.0,0.0,0.0,0.0,0.0,0.0,0.0,0.0,0.0,0.0,0.0,0.0,0.0,0.0,0.0,0.0,0.0,0.0,0.0,0.0,0.0,0.0,0.0,0.0,0.0,0.0,0.0,0.0,0.0,0.0,0.0,0.0,0.0,0.0,0.0,0.0,0.0,0.0,0.0,0.0,0.0,0.0,0.0,0.0,0.0,0.0,0.0,0.0,0.0,0.0,0.0,0.0,0.0,0.0,0.0,0.0,0.0,0.0,0.0,0.0,0.0,0.0,0.0,0.0,0.0,0.0,0.0,0.0,0.0,0.0,0.0,0.0,0.0,0.0,0.0,0.0,0.0,0.0,0.0,0.0,0.0,0.0,0.0,0.0,0.0,0.0,0.0,0.0,0.0,0.0,0.0,0.0,0.0,0.0,0.0,0.0,0.0,0.0,0.0,0.0,0.0,0.0,1.7578,0.0,0.0,0.0,0.0,0.0,0.0,0.0,0.0,0.0,0.0,0.0,0.0,0.0,0.0,0.0,0.0,0.0,0.0,0.0,0.0,0.0,0.0,0.0,0.0,2.0753,2.0675,2.1084,2.1123,2.1123,2.1123,0.0,0.0,0.0,0.0,0.0,2.2997,2.2559,2.2555,2.3004,2.2557,2.2777,2.3614,2.3637,2.3866,2.4315,0.0,0.0,0.0,0.0,0.0,0.0,0.0,0.0,0.0,0.0,0.0,0.0,0.0,0.0,0.0,0.0,0.0,0.0,0.0,0.0,0.0,0.0,0.0,0.0,0.0,0.0,0.0,0.0,0.0,0.0,0.0,0.0,0.0,0.0,0.0,0.0,0.0,0.0,0.0,0.0,0.0,0.0,0.0,0.0,0.0,0.0,0.0,0.0,0.0,0.0,0.0,0.0,0.0,0.0,0.0,0.0,0.0,0.0,0.0,0.0,0.0,0.0,0.0,0.0,0.0,0.0,0.0,0.0,0.0,0.0,0.0,1.7835,0.0,0.0,0.0,0.0,0.0,0.0,0.0,0.0,0.0,0.0,0.0,0.0,0.0,0.0,0.0,0.0,0.0,0.0,0.0,0.0,0.0,2.0287,2.1741,2.1344,2.124,2.1958,2.2036,2.2036,2.2036,2.2773,0.0,0.0,0.0,2.3457,2.345,2.3306,2.3302,2.3455,2.3444,2.3794,2.4521,2.5395,2.5816,2.5808,2.5655,0.0,0.0,0.0,0.0,0.0,0.0,0.0,0.0,0.0,0.0,0.0,0.0,0.0,0.0,0.0,0.0,0.0,0.0,0.0,0.0,0.0,0.0,0.0,0.0,0.0,0.0,0.0,0.0,0.0,0.0,0.0,0.0,0.0,0.0,0.0,0.0,0.0,0.0,0.0,0.0,0.0,0.0,0.0,0.0,0.0,0.0,0.0,0.0,0.0,0.0,0.0,0.0,0.0,0.0,0.0,0.0,0.0,0.0,0.0,0.0,0.0,0.0,0.0,0.0,2.0293,2.028,1.9458,1.8999,1.8902,1.9131,1.8644,1.7727,0.0,0.0,0.0,0.0,0.0,0.0,0.0,0.0,0.0,0.0,0.0,0.0,0.0,0.0,0.0,0.0,0.0,0.0,0.0,0.0,2.1694,2.2256,2.258,2.2796,2.2913,2.2932,2.2932,2.2932,2.3688,2.4132,2.4125,2.4859,2.5233,2.517,2.4489,2.4491,2.5254,2.5201,2.5231,2.5348,2.6231,2.6648,2.6605,2.5918,2.5595,2.5606,0.0,0.0,0.0,0.0,0.0,0.0,0.0,0.0,0.0,0.0,0.0,0.0,0.0,0.0,0.0,0.0,0.0,0.0,0.0,0.0,0.0,0.0,0.0,0.0,0.0,0.0,0.0,0.0,0.0,0.0,0.0,0.0,0.0,0.0,0.0,0.0,0.0,0.0,0.0,0.0,0.0,2.0379,2.0424,0.0,0.0,0.0,0.0,0.0,0.0,0.0,0.0,0.0,0.0,0.0,0.0,0.0,0.0,2.2623,2.1901,2.1965,2.2852,2.206,2.1604,2.147,2.1352,2.1083,2.0809,2.0864,0.0,1.7925,1.7352,0.0,0.0,0.0,0.0,0.0,0.0,0.0,0.0,0.0,0.0,0.0,0.0,0.0,0.0,0.0,0.0,0.0,0.0,0.0,0.0,0.0,2.3095,2.3308,2.3795,2.3797,2.3778,2.3761,2.4521,2.4962,2.4975,2.535,2.5557,2.5554,2.5219,2.5227,2.5598,2.6029,2.6219,2.6238,2.7125,2.7276,2.6773,2.6437,2.6293,2.6296,2.5837,0.0,0.0,0.0,0.0,0.0,0.0,0.0,0.0,0.0,0.0,0.0,0.0,0.0,0.0,0.0,0.0,0.0,0.0,0.0,0.0,0.0,0.0,0.0,0.0,0.0,0.0,0.0,0.0,0.0,0.0,0.0,0.0,0.0,0.0,0.0,0.0,0.0,0.0,0.0,2.0921,2.1002,2.0392,2.0582,2.0518,0.0,0.0,0.0,0.0,0.0,0.0,0.0,0.0,0.0,2.0799,2.1088,2.1559,2.2417,2.2088,2.2113,2.2415,2.1979,2.1759,2.1703,2.1524,2.1356,2.1188,2.1131,2.0141,1.8594,1.8076,1.7322,1.6328,0.0,0.0,0.0,0.0,0.0,0.0,0.0,0.0,0.0,0.0,0.0,0.0,0.0,0.0,0.0,0.0,0.0,0.0,2.3753,2.3991,2.4266,2.4679,2.4863,2.4863,2.4649,2.5174,2.5519,2.5529,2.5536,2.5557,2.5606,2.58,2.5901,2.5917,2.6726,2.712,2.714,2.802,2.8092,2.7466,2.7466,2.7129,2.6512,2.5886,2.5619,2.5634,0.0,0.0,0.0,0.0,0.0,0.0,0.0,0.0,0.0,0.0,0.0,0.0,0.0,0.0,0.0,0.0,0.0,0.0,0.0,0.0,0.0,0.0,0.0,0.0,0.0,0.0,0.0,0.0,0.0,0.0,0.0,0.0,0.0,0.0,0.0,0.0,0.0,2.1019,2.0998,2.0161,2.06,2.0655,0.0,0.0,0.0,0.0,0.0,0.0,2.0062,2.0436,2.0817,2.1278,2.1465,2.1746,2.2253,2.2364,2.2449,2.249,2.2445,2.2362,2.2223,2.1935,2.1559,2.125,2.1146,2.0369,1.9079,1.8608,1.7557,1.6216,1.5574,1.5093,0.0,1.5299,1.5231,1.4936,0.0,0.0,0.0,0.0,0.0,0.0,0.0,0.0,0.0,0.0,0.0,2.42,2.4522,2.5906,2.6464,2.5604,2.6285,2.6422,2.5584,2.5502,2.5537,2.5597,2.5583,2.5599,2.5605,2.6359,2.6738,2.6749,2.7598,2.8039,2.8058,2.8927,2.931,2.9271,2.9266,2.7931,2.5668,2.5616,2.5632,2.5693,2.5697,0.0,0.0,0.0,0.0,0.0,0.0,0.0,0.0,0.0,0.0,0.0,0.0,0.0,0.0,0.0,0.0,0.0,0.0,0.0,0.0,0.0,0.0,0.0,0.0,0.0,0.0,0.0,0.0,0.0,0.0,0.0,0.0,0.0,0.0,0.0,0.0,0.0,0.0,1.9765,1.9693,0.0,0.0,0.0,0.0,2.0415,2.035,2.0267,2.0307,2.074,2.0963,2.1027,2.1578,2.2142,2.2744,2.3165,2.358,2.4113,2.4254,2.4101,2.3592,2.3416,2.2621,2.1369,2.1369,2.058,1.9244,1.8519,1.7765,1.6925,1.585,1.5688,1.6083,1.6079,1.5562,1.487,0.0,0.0,0.0,0.0,0.0,1.3647,1.6725,1.8717,2.0254,2.1386,2.3106,2.4563,2.5524,2.6451,2.7069,2.7266,2.701,2.6708,2.6398,2.5828,2.5508,2.5537,2.5573,2.5839,2.6354,2.7201,2.7903,2.8473,2.9904,3.061,3.063,3.1491,3.1615,3.1072,3.1067,3.0281,2.8841,2.7147,2.6155,2.5693,2.5691,2.5682,0.0,0.0,0.0,0.0,0.0,0.0,0.0,0.0,0.0,0.0,0.0,0.0,0.0,0.0,0.0,0.0,0.0,0.0,0.0,0.0,0.0,0.0,0.0,0.0,0.0,0.0,0.0,0.0,0.0,0.0,0.0,0.0,0.0,0.0,0.0,0.0,0.0,2.024,2.0514,0.0,2.016,2.0106,2.0278,2.0657,2.0729,2.0926,2.1316,2.1799,2.2099,2.2168,2.2731,2.307,2.3157,2.3301,2.3384,2.3391,2.2995,2.2657,2.2351,2.1707,2.1156,2.0666,2.0613,1.9887,1.8733,1.8458,1.7983,1.7322,1.6556,1.6321,1.6483,1.6265,1.5956,1.562,0.0,0.0,0.0,0.0,0.0,1.2567,1.6194,1.8338,2.0046,2.1499,2.3162,2.474,2.6184,2.6999,2.7641,2.8123,2.76,2.7118,2.6817,2.5976,2.5512,2.5562,2.5873,2.6416,2.7214,2.8369,2.94,3.028,3.1732,3.2438,3.2458,3.3021,3.3145,3.2868,3.2882,3.2425,3.1553,2.9825,2.8123,2.6557,2.6255,2.5954,2.5623,0.0,0.0,0.0,0.0,0.0,0.0,0.0,0.0,0.0,0.0,0.0,0.0,0.0,0.0,0.0,0.0,0.0,0.0,0.0,0.0,0.0,0.0,0.0,0.0,0.0,0.0,0.0,0.0,0.0,0.0,0.0,0.0,0.0,0.0,0.0,2.0597,2.0626,2.101,2.1123,2.0699,2.0868,2.109,2.1185,2.1555,2.1992,2.2388,2.2865,2.317,2.3183,2.3286,2.3192,2.2896,2.2751,2.2589,2.2402,2.2063,2.1795,2.1429,2.0783,2.0292,1.9879,1.977,1.9,1.7869,1.7869,1.7494,1.6896,1.6651,1.6625,1.6721,1.6233,1.5839,1.5532,0.0,0.0,0.0,0.0,0.0,1.2005,1.5518,1.7758,1.9711,2.1651,2.3277,2.486,2.6486,2.7656,2.8298,2.8152,2.8132,2.7725,2.685,2.5989,2.559,2.5726,2.6509,2.7326,2.8152,2.9897,3.122,3.2085,3.2955,3.3371,3.3371,3.341,3.3867,3.4685,3.4705,3.4286,3.3571,3.3524,3.1585,2.842,2.7466,2.6541,2.5733,0.0,0.0,0.0,0.0,0.0,0.0,0.0,0.0,0.0,0.0,0.0,0.0,0.0,0.0,0.0,0.0,0.0,0.0,0.0,0.0,0.0,0.0,0.0,0.0,0.0,0.0,0.0,0.0,0.0,0.0,0.0,0.0,0.0,1.9525,2.0166,2.0666,2.0913,2.1156,2.1446,2.1694,2.2337,2.2495,2.1959,2.284,2.3403,2.3403,2.3777,2.4017,2.3929,2.3147,2.2436,2.1937,2.1552,2.1396,2.1419,2.1777,2.1698,2.1174,2.0951,2.0154,1.8998,1.8977,1.8162,1.6932,1.6881,1.6464,1.5728,1.6034,1.6464,1.6742,1.5982,1.5204,1.4497,0.0,0.0,0.0,0.6008,0.9114,1.2036,1.4362,1.7412,2.0095,2.1946,2.3911,2.5841,2.763,2.8687,2.9201,2.9127,2.854,2.7776,2.6871,2.6076,2.5921,2.6541,2.7393,2.8515,2.9955,3.1696,3.2986,3.381,3.4692,3.5119,3.5138,3.5753,3.6183,3.643,3.7122,3.7303,3.7063,3.6489,3.4953,3.2695,2.9984,2.7979,2.6637,0.0,0.0,0.0,0.0,0.0,0.0,0.0,0.0,0.0,0.0,0.0,0.0,0.0,0.0,0.0,0.0,0.0,0.0,0.0,0.0,0.0,0.0,0.0,0.0,0.0,0.0,0.0,0.0,0.0,0.0,0.0,1.9557,1.9766,2.0251,2.0047,2.0197,2.1062,2.1523,2.1706,2.1693,2.2604,2.2921,2.2248,2.2808,2.3198,2.3198,2.3929,2.3934,2.2919,2.3019,2.2674,2.1924,2.1486,2.1353,2.1504,2.1161,2.0822,2.0544,1.9594,1.9043,1.8715,1.8398,1.7774,1.689,1.7183,1.6804,1.6076,1.618,1.6277,1.6335,1.5799,1.5153,1.4493,0.0,0.0,0.0,0.4868,0.8005,1.1116,1.3843,1.6587,1.9311,2.196,2.3855,2.5809,2.8066,2.8426,2.8775,2.9435,2.8363,2.7413,2.6881,2.6475,2.6603,2.7407,2.8627,3.0077,3.1757,3.3151,3.4425,3.558,3.5737,3.6001,3.6367,3.6864,3.7319,3.774,3.8649,3.9037,3.9025,3.8587,3.7168,3.5066,3.3076,3.0595,2.8075,2.7988,2.7426,2.6663,2.6508,2.6409,2.6284,2.557,0.0,0.0,0.0,0.0,0.0,0.0,0.0,0.0,0.0,0.0,0.0,0.0,0.0,0.0,0.0,0.0,0.0,0.0,0.0,0.0,0.0,0.0,0.0,0.0,2.0167,2.0567,2.1143,2.0725,2.0694,2.1776,2.2035,2.2305,2.2602,2.346,2.375,2.3062,2.3617,2.3954,2.3717,2.4063,2.3905,2.3105,2.2697,2.2121,2.1366,2.0738,2.0365,2.031,1.9969,1.9606,1.9284,1.8803,1.8421,0.0,1.8052,1.7367,1.637,1.6594,1.6179,0.0,0.0,0.0,0.0,0.0,1.4839,1.4472,0.0,0.0,0.0,0.4265,0.6732,0.9663,1.3667,1.5585,1.796,2.1909,2.3491,2.5271,2.7867,2.754,2.7699,2.909,2.7791,2.6901,2.6909,2.7041,2.7585,2.8603,3.0291,3.2012,3.3693,3.4585,3.5768,3.7253,3.6475,3.6491,3.726,3.7352,3.7857,3.8677,3.9559,3.9942,3.9956,4.0015,3.8637,3.6438,3.6325,3.3725,2.9876,2.9635,2.9043,2.8304,2.8017,2.7913,2.7708,2.6536,0.0,0.0,0.0,0.0,0.0,0.0,0.0,0.0,0.0,0.0,0.0,0.0,0.0,0.0,0.0,0.0,0.0,0.0,0.0,0.0,0.0,0.0,0.0,0.0,2.0954,2.1159,2.2014,2.1663,2.1699,2.2654,2.2649,2.293,2.3904,2.4556,2.4682,2.413,2.4738,2.4892,2.4267,0.0,0.0,0.0,0.0,2.1115,2.0627,1.9753,1.9111,1.8779,1.8779,1.8584,1.8242,1.8463,1.8199,1.7551,1.7779,1.7018,1.5589,1.5628,1.5219,1.4653,1.5289,1.5513,1.5475,1.4803,1.4575,0.0,0.0,0.0,0.0,0.1419,0.4751,0.8603,1.2935,1.5164,1.7975,2.2513,2.4068,2.5409,2.7067,2.7737,2.7908,2.7527,2.7128,2.6894,2.6907,2.751,2.8924,3.123,3.2967,3.4664,3.6403,3.7302,3.7875,3.8155,3.8029,3.8032,3.8182,3.892,3.9375,3.9598,4.0453,4.0851,4.0854,4.0854,4.0193,3.9083,3.8377,3.5527,3.1601,3.0839,2.9962,2.9076,2.8336,2.7991,2.7738,2.6765,2.617,2.5689,2.4737,2.3984,0.0,0.0,0.0,0.0,0.0,0.0,0.0,0.0,0.0,0.0,0.0,0.0,0.0,0.0,0.0,0.0,0.0,0.0,0.0,2.1232,2.1754,2.2113,2.2172,2.1931,2.2001,2.2509,2.2816,2.3238,2.3929,2.4883,2.5156,2.4424,2.4176,2.3658,2.2881,2.296,0.0,2.1295,2.1167,2.0984,2.0609,1.9703,1.9414,1.9668,0.0,0.0,1.9477,1.8873,1.8534,1.8288,1.7357,1.6421,1.5605,1.5889,1.571,1.5218,1.5109,1.5161,1.5397,1.524,1.5248,1.5248,0.0,0.0,0.0,-0.0822,0.2834,0.6645,0.9995,1.3418,1.7098,2.1068,2.3215,2.5056,2.6768,2.6953,2.6953,2.6953,2.6542,2.6649,2.7459,2.8722,3.0625,3.3248,3.4993,3.6522,3.7868,3.828,3.8687,3.9048,3.8682,3.8683,3.9059,3.956,3.9817,3.9887,4.0734,4.1108,4.1108,4.1108,4.0385,3.9217,3.8787,3.6762,3.3944,3.305,3.184,3.0521,2.9603,2.8945,2.8315,2.6809,2.6143,2.5769,2.4649,2.3983,2.353,0.0,0.0,0.0,0.0,0.0,0.0,0.0,0.0,0.0,0.0,0.0,0.0,0.0,0.0,2.0035,2.0244,0.0,2.1276,2.2178,2.2562,2.2841,2.2915,2.2339,2.2086,2.2477,2.2619,2.305,2.3916,2.4668,2.4775,2.4176,2.4086,2.3601,2.2671,2.2394,2.1829,2.0886,2.0815,2.0581,1.9932,1.9707,1.96,1.96,1.9134,1.8976,1.891,1.8281,1.7752,1.7284,1.6884,1.6261,1.5496,1.567,1.5599,1.5416,1.5248,1.5284,1.5431,1.5431,1.5173,1.4915,0.0,0.0,0.0,-0.2588,0.1045,0.4604,0.7095,1.1217,1.5384,1.9062,2.1468,2.3723,2.5991,2.5604,2.5543,2.6392,2.5932,2.6391,2.8235,3.0041,3.2259,3.4993,3.6916,3.8378,3.9315,3.9447,3.9746,4.0216,3.9744,3.9673,3.997,4.0196,4.0232,4.0164,4.0791,4.1084,4.1084,4.1077,4.0301,3.904,3.873,3.7605,3.5987,3.4793,3.3324,3.1728,3.0584,2.9586,2.8545,2.6711,2.6042,2.5753,2.4524,2.3923,2.3556,2.3135,2.2773,0.0,0.0,0.0,0.0,0.0,0.0,0.0,0.0,2.0236,2.0425,1.9652,2.0006,2.0526,2.0895,2.104,2.1548,2.2949,2.3167,2.3171,2.3114,2.2331,2.1843,2.1901,2.1898,2.2409,2.3468,2.3796,2.3876,2.3514,2.3755,2.3511,2.2514,2.1867,2.1257,2.0739,2.0586,2.0107,1.9414,1.9668,1.9619,1.9287,1.8442,1.7989,1.7999,1.7493,1.6842,1.6221,1.6343,1.6064,1.5431,1.5431,1.5431,1.5431,1.5431,1.534,1.5173,1.5173,1.4824,1.4398,0.0,0.0,0.0,0.0,0.0,0.2933,0.6508,0.9097,1.2476,1.7556,1.8729,2.033,2.3528,2.3788,2.4064,2.4879,2.5139,2.6387,2.9079,3.0897,3.3367,3.6762,3.9266,4.1014,4.1947,4.2731,4.2785,4.2109,4.277,4.2362,4.0952,4.1738,4.1697,4.0974,4.1006,4.1001,4.1004,4.1015,4.0896,4.0599,3.9174,3.7917,3.6626,3.4313,3.2774,3.1587,2.9938,2.8555,2.7371,2.6418,2.5822,2.5336,2.4468,2.3862,2.3397,2.282,2.2265,2.1691,2.1039,2.0628,2.0323,1.9945,1.9874,1.9846,0.0,1.9951,1.9898,1.9663,2.0089,2.0543,2.068,2.1118,2.1812,2.3027,2.3111,2.266,2.1512,2.1181,2.0609,1.9455,2.022,2.1148,2.2051,2.2092,2.2283,2.2714,2.2313,2.1881,2.1334,2.0783,2.0175,1.9502,1.984,1.9941,1.9844,1.9521,1.9336,1.9287,1.8442,1.7989,1.7942,1.7129,1.6716,1.6561,1.5891,1.5506,1.5431,1.5431,1.5431,1.5431,1.5431,1.4999,1.4482,1.4482,1.4482,1.4307,0.0,0.0,0.0,0.0,0.0,-0.0443,0.1591,0.5772,0.9635,1.2257,1.5941,1.9061,2.1035,2.2557,2.3724,2.4414,2.4771,2.6372,2.9705,3.1732,3.4375,3.7851,3.9961,4.1247,4.1635,4.2006,4.2232,4.2343,4.2744,4.2552,4.1816,4.2203,4.1924,4.1099,4.1072,4.1047,4.101,4.1045,4.0462,3.9432,3.8259,3.661,3.4619,3.2529,3.081,2.9415,2.8533,2.7412,0.0,2.5305,2.4727,2.434,2.393,2.3526,2.3093,2.2548,2.1905,2.1269,2.0667,2.0154,1.9852,2.0264,2.0228,2.0167,2.037,2.0555,2.0584,2.0229,2.0496,2.086,2.1092,2.1355,2.1771,0.0,2.2884,2.2553,2.1311,2.1019,2.039,1.9078,1.8657,1.9057,2.0366,2.0825,2.1025,2.0886,2.1198,2.1068,2.0307,2.0437,2.0083,1.9297,1.9941,2.0049,1.9561,1.9619,1.9425,1.8892,1.8051,1.7544,1.7212,1.6335,1.5906,1.5906,1.559,1.5431,1.5431,1.5431,1.5173,1.4824,1.4824,1.4405,1.3893,1.423,1.3886,1.3209,0.0,0.0,0.0,0.0,0.0,-0.4172,-0.2528,0.2573,0.6704,0.8047,1.2757,1.6734,1.8754,2.1343,2.316,2.3694,2.4138,2.5842,2.9216,3.1607,3.4365,3.7688,3.9875,4.1127,4.1369,4.1603,4.1885,4.2213,4.2509,4.2401,4.1917,4.2197,4.1874,4.1094,4.1085,4.1052,4.099,4.08,3.9835,3.8333,3.7014,3.5035,3.2659,3.0588,2.8775,2.729,2.7089,2.6186,2.4981,2.4113,2.3563,2.3234,2.3029,2.276,2.2399,2.1836,2.1193,2.0603,2.0177,1.9867,1.9782,2.0406,2.0489,2.0531,2.0854,2.1081,2.1105,2.0792,2.0885,2.112,2.1459,2.1264,2.1313,2.2053,2.2103,2.1649,2.0535,2.0262,1.9665,1.8374,1.7329,1.7166,1.8408,1.9004,1.9327,1.9254,1.9837,2.0114,1.9768,2.0054,1.998,1.9473,2.0059,2.0088,1.9463,1.9531,1.9222,1.862,1.7519,1.6875,1.6482,1.5786,1.5431,1.5431,1.5431,1.5431,1.5431,1.5173,1.4824,1.4398,1.423,1.3724,1.3222,1.3633,1.3209,1.2363,0.0,0.0,0.0,0.0,0.0,-0.7935,-0.4131,-0.0087,0.3626,0.6668,0.9046,1.2213,1.6856,2.0,2.1911,2.2323,2.2967,2.4476,2.7123,2.9959,3.2856,3.5747,3.9043,4.1207,4.2053,4.2888,4.2898,4.2014,4.2848,4.2471,4.096,4.1751,4.1746,4.1091,4.1038,4.0996,4.0949,4.0112,3.9199,3.8084,3.5658,3.3538,3.1543,2.8816,2.6991,2.5846,2.5781,2.4854,2.3583,2.3023,2.2539,2.2084,2.1759,2.147,2.1158,2.0525,1.9924,1.945,1.945,1.9841,2.0235,1.9995,2.0361,2.0868,2.1221,2.1063,2.1015,2.1322,2.1166,2.112,2.1459,2.0708,2.0332,2.1194,2.0421,1.9403,1.8543,1.8256,1.7745,1.6618,1.6155,1.5924,0.0,1.6238,1.6891,1.7958,1.8105,1.8594,1.9814,1.9521,1.9502,1.9883,1.9922,1.9922,1.9893,1.9069,1.862,1.861,1.6893,1.6111,1.6134,1.5599,1.5431,1.5431,1.5431,1.5431,1.5347,1.4741,1.4391,1.4314,1.3646,1.3052,1.2448,1.2448,1.2448,1.2277,0.0,0.0,0.0,0.0,0.0,0.0,-0.8063,-0.4194,-0.1129,-0.0044,0.4737,0.0,0.0,0.0,0.0,0.0,2.0402,2.2681,2.5294,2.78,3.0319,3.2833,3.5853,3.7547,3.7725,3.9111,3.9913,4.0138,4.0447,4.0355,3.9906,4.0186,3.9887,3.9102,3.9083,3.9081,3.903,3.8283,3.7372,3.623,3.3785,3.1671,2.9658,2.7077,2.5335,2.4099,0.0,2.2821,2.2534,2.199,2.1553,2.122,2.1154,2.0893,2.0426,1.9626,1.9229,1.9165,1.96,1.9703,1.9926,2.0854,2.1083,2.1294,2.178,2.1676,2.1387,2.0961,2.0651,2.0346,1.986,1.959,1.9497,1.9617,1.9624,1.9188,1.8013,1.8002,1.7665,1.654,1.6087,0.0,0.0,0.0,0.0,1.7109,1.7686,1.832,1.9023,1.9473,1.9466,1.9069,1.9341,1.9238,1.868,1.8364,1.7888,1.7321,1.6223,1.5666,1.5666,1.5455,1.5431,1.5431,1.5431,1.5173,1.4741,1.4482,1.3886,1.3039,1.279,1.2283,1.1688,1.1688,1.1688,1.1602,0.0,0.0,0.0,0.0,0.0,0.0,0.0,0.0,0.0,0.0,0.0,0.0,0.0,0.0,0.0,0.0,0.0,1.9845,2.1722,2.4692,2.7227,2.9151,3.1996,3.3527,3.3532,3.471,3.5534,3.6037,3.6217,3.6427,3.6647,3.6845,3.6646,3.6141,3.6141,3.6168,3.6188,3.5369,3.4487,3.3407,3.0983,2.9066,2.7437,2.5134,2.3446,0.0,2.1242,2.0604,2.0258,2.0544,2.0526,2.0389,2.0159,1.9901,1.9576,1.8741,1.8655,1.8936,1.9561,1.9628,1.9828,2.1223,2.1307,2.1208,2.1759,2.1522,2.0968,2.0232,1.9834,1.9482,1.8851,1.8611,1.8512,1.8467,1.8348,1.7995,1.7364,1.7216,1.7066,1.667,1.6321,1.6157,0.0,0.0,0.0,1.6709,1.7383,1.8105,1.8828,1.9081,1.9137,1.882,1.884,1.8638,1.8194,1.7868,1.7302,1.6407,1.5725,1.5431,1.5431,1.5431,1.5431,1.5431,1.5173,1.4824,1.4391,1.3886,1.3209,1.2363,1.2112,1.1688,1.1273,1.1445,1.1424,1.1262,0.0,0.0,0.0,0.0,0.0,0.0,0.0,0.0,0.0,0.0,0.0,0.0,0.0,0.0,0.0,0.0,0.0,0.0,1.6619,2.0671,2.3573,2.4723,2.7504,2.9216,2.9547,2.9955,3.0134,3.0005,3.0557,3.1049,3.1449,3.2022,3.232,3.2384,3.2384,3.2494,3.2598,3.1527,3.0644,2.9806,2.7374,2.5855,2.4911,2.2947,2.1372,2.019,1.9645,1.8309,1.7049,1.8772,1.9471,1.953,1.8822,1.8644,1.8556,1.8043,1.8193,1.8694,1.9294,1.957,1.9951,2.1014,2.0901,2.0673,2.1111,2.0625,1.9867,1.9146,1.8832,1.8557,1.8338,0.0,1.7376,1.7701,1.6688,1.6,1.6503,1.6115,1.6038,0.0,0.0,0.0,0.0,0.0,0.0,1.666,0.0,1.7891,1.9146,1.8461,1.8315,1.9116,1.8345,1.8121,1.8396,1.7568,1.673,1.5884,1.5577,1.5431,1.5431,1.5347,1.5347,1.5347,1.4657,1.4314,1.4223,1.2954,1.2363,1.2283,1.1602,1.1262,1.1294,1.1612,1.1558,1.1283,0.0,0.0,0.0,0.0,0.0,0.0,0.0,0.0,0.0,0.0,0.0,0.0,0.0,0.0,0.0,0.0,0.0,0.0,1.3426,1.6423,1.838,1.8757,2.227,2.399,2.3524,2.5026,2.5797,2.5756,2.6848,2.7504,2.7785,2.8851,2.9376,2.9384,2.9384,2.9405,2.939,2.8272,2.7668,2.72,2.4428,2.3084,2.2429,2.013,1.8831,1.8157,1.7526,1.6909,1.6557,1.8013,1.8745,1.8974,1.8736,1.8464,1.8297,1.8836,1.8573,1.8451,1.9836,1.9974,1.9865,2.0576,2.0373,2.004,2.0167,1.9701,1.9042,1.8138,1.7933,1.7638,1.6903,1.6696,0.0,1.626,1.5962,0.0,1.6328,1.6264,0.0,1.7864,0.0,1.6373,1.6869,1.6054,0.0,0.0,1.6524,1.733,1.8248,1.7828,1.7509,1.7334,1.7367,1.7143,1.6576,1.6327,1.5952,1.5555,1.5467,1.5431,1.5347,1.4915,1.465,1.4657,1.3984,1.3385,1.2869,1.2534,1.2112,1.1602,1.1348,1.1262,1.1294,1.1612,1.1661,1.1634,0.0,0.0,0.0,0.0,0.0,0.0,0.0,0.0,0.0,0.0,0.0,0.0,0.0,0.0,0.0,0.0,0.0,0.0,0.0,1.2328,1.4451,1.5047,1.7616,1.8933,1.8772,1.999,2.0587,2.0467,2.1436,2.2116,2.2539,2.3502,2.4029,2.4206,2.4617,2.4592,2.4249,2.3955,2.3613,0.0,0.0,2.0099,1.9736,1.7558,1.6308,1.564,1.5124,1.511,1.5533,1.6511,1.7531,1.8305,1.8042,1.8058,1.8206,1.8502,1.8477,1.866,1.9826,1.9798,1.956,2.0382,1.9834,1.9164,1.9339,1.8799,1.8035,1.7207,1.6992,1.676,1.6149,1.5749,1.5576,0.0,0.0,0.0,1.5938,1.5999,1.6485,0.0,1.7119,0.0,1.713,1.6351,1.5876,0.0,1.6303,1.6828,1.769,1.7166,1.682,1.6683,1.6637,1.6473,1.6111,1.5979,1.5826,1.5643,1.5154,1.4999,1.4915,1.4237,1.3977,1.3899,0.0,1.2874,1.2527,1.2186,1.1843,1.1505,1.1505,1.1505,1.1548,1.1887,1.1946,1.1887,0.0,0.0,0.0,0.0,0.0,0.0,0.0,0.0,0.0,0.0,-0.5302,-0.3649,0.0,0.0,0.0,0.0,0.0,0.0,0.0,0.0,1.0998,1.1931,1.3326,1.4226,1.463,1.5057,1.5262,1.5101,1.5768,1.6467,1.7219,1.7841,1.8283,1.8589,1.941,1.9384,1.8753,1.9256,1.9065,1.8317,1.7107,1.6661,1.6467,0.0,1.3678,1.2933,1.2691,1.3284,1.427,1.4654,1.6114,1.7612,1.7146,1.7509,1.8048,1.7626,1.8012,1.8759,1.9393,1.923,1.9081,2.0042,1.9183,1.8202,1.8508,1.7809,1.6908,1.6337,1.6126,1.5952,1.5792,1.5062,1.4724,1.5463,0.0,1.4093,1.5397,1.5517,1.593,1.7166,1.7139,1.7095,1.7463,1.6749,1.6396,1.6496,1.6205,1.6372,1.7181,1.6468,1.6179,1.6598,1.6177,1.6045,1.6309,1.6045,1.5806,1.5676,1.4824,1.4368,1.4291,1.3651,1.3335,1.3347,0.0,0.0,1.2615,1.2004,1.1747,1.1747,1.1747,1.1747,1.1801,1.2248,1.228,1.2134,0.0,0.0,0.0,0.0,0.0,0.0,0.0,0.0,0.0,0.0,-0.754,-0.6022,0.0,0.0,0.0,0.0,0.0,0.0,0.0,0.0,0.0,0.6101,0.9091,1.059,1.0198,1.0838,1.1407,1.199,1.3369,1.4404,1.512,1.6166,1.6692,1.6745,1.6916,1.6942,1.6718,1.5574,1.4994,1.4708,1.2504,1.1649,1.1583,1.1,0.0,0.0,1.1031,1.2272,1.3672,1.3398,1.5047,1.7203,1.6957,1.7071,1.7272,1.757,1.7393,1.7383,1.8705,1.8651,1.8309,1.8417,1.7986,1.746,1.7058,1.6523,1.5989,1.586,1.5691,1.5546,1.539,1.5165,1.4882,1.4625,1.4093,1.4086,1.4898,1.5007,1.5631,0.0,1.6524,1.6036,1.6715,1.5411,0.0,0.0,0.0,0.0,1.6261,1.5835,1.5656,1.6067,1.597,1.5943,1.5994,1.5943,1.5511,1.4649,1.4672,1.4416,1.3815,1.3355,1.3189,1.3099,0.0,0.0,1.2166,1.2075,1.1989,1.1989,1.1989,1.1989,1.2021,1.2312,1.2388,1.2382,0.0,0.0,0.0,0.0,0.0,0.0,0.0,-1.1925,-1.1341,-1.0159,-0.9458,-0.8395,-0.6655,-0.5238,-0.4361,0.0,0.0,0.0,0.0,0.0,0.0,0.0,0.0,0.0,0.8013,0.8826,0.9423,0.968,0.0,1.1074,1.1531,1.2092,1.241,1.253,1.3031,1.295,1.2483,1.2219,1.1846,1.1304,0.993,0.943,0.0,0.0,0.0,0.0,0.0,1.0007,1.1111,1.2018,1.3481,1.5058,1.576,1.6113,1.6432,1.6894,1.6933,1.7109,1.8284,1.8428,1.8213,1.8116,1.7721,1.7183,1.6409,1.6028,1.5703,1.5435,1.5424,1.5468,1.5435,1.5017,1.4686,1.452,1.3891,1.3666,1.4552,1.4805,1.5396,1.6747,1.618,1.5971,1.6599,1.5364,0.0,0.0,0.0,0.0,1.5754,1.5501,1.5577,1.5906,1.5752,1.5745,1.5913,1.5745,1.5233,1.4398,1.4202,1.3668,1.299,1.2555,1.2338,1.2148,0.0,0.0,1.2151,1.2188,1.2242,1.2242,1.2242,1.2242,1.2269,1.2511,1.2597,1.2614,0.0,0.0,0.0,0.0,0.0,0.0,-1.2129,-1.1974,-1.1528,-1.0656,-1.0829,-1.0221,-0.8176,-0.6929,-0.6258,0.0,0.0,0.0,0.0,0.0,0.0,0.0,0.0,0.0,0.0,0.0,0.0,0.7759,0.7817,0.0,0.0,0.0,0.0,0.0,0.0,0.9184,0.8346,0.8839,0.8599,0.0,0.0,0.0,0.0,0.0,0.0,0.0,0.0,0.7793,0.8552,1.0382,1.1558,1.2406,1.3648,1.4727,1.5564,1.5697,1.6133,1.6818,1.7676,1.7969,1.7929,1.7718,1.7496,1.6953,1.5831,1.5625,1.557,1.5198,1.5232,1.5367,1.5468,1.4971,1.4562,1.4671,1.3821,1.3437,1.4163,1.4505,1.4987,1.5773,1.5694,0.0,1.6412,1.5468,0.0,0.0,0.0,0.0,1.5431,1.5431,1.5548,1.5804,1.5562,1.5555,1.5811,1.5387,1.4831,1.4146,1.3534,1.2875,1.2198,1.1987,1.1752,1.1612,0.0,0.0,0.0,1.2409,1.249,1.249,1.249,1.249,1.2511,1.2694,1.2764,1.2764,0.0,0.0,0.0,0.0,0.0,0.0,-1.177,-1.2361,-1.2675,-1.1846,-1.1305,-1.0897,-1.0655,-0.9334,-0.8205,0.0,0.0,0.0,0.0,0.0,0.0,0.0,0.0,0.0,0.0,0.0,0.0,0.5941,0.6264,0.0,0.0,0.0,0.0,0.0,0.0,0.0,0.0,0.5169,0.0,0.0,0.0,0.0,0.0,0.0,0.0,0.0,0.0,0.6639,0.7603,0.8204,0.9136,1.0051,1.0357,1.2582,1.485,1.381,1.445,1.5653,1.6146,1.6602,1.6813,1.6166,1.6469,1.6431,1.4824,1.4811,1.5153,1.5108,1.4949,1.4937,1.5424,1.5244,1.4981,1.4758,1.4152,1.3689,1.353,1.3865,1.4232,1.4311,0.0,0.0,1.5644,1.4993,0.0,0.0,0.0,0.0,0.0,1.5431,1.5438,1.5474,1.5445,1.5445,1.5474,1.4838,1.4146,1.3483,1.3027,1.2445,1.1771,1.214,1.2339,1.2334,0.0,0.0,0.0,1.2721,1.2732,1.2732,1.2732,1.2732,1.2732,1.2754,1.2764,1.2764,0.0,0.0,0.0,0.0,0.0,0.0,-1.2192,-1.2284,-1.2398,-1.2435,-1.2113,-1.1742,-1.1384,-1.0551,-0.9511,-0.837,-0.702,0.0,0.0,0.0,0.0,0.0,0.0,0.0,0.0,0.0,0.2982,0.252,0.4088,0.0,0.0,0.0,0.0,0.0,0.0,0.0,0.3408,0.2972,0.0,0.0,0.0,0.0,0.0,0.0,0.0,0.0,0.0,0.0,0.6106,0.7518,0.8322,0.8805,0.9097,1.0672,1.24,1.2435,1.3564,1.4968,1.5693,1.64,1.6736,1.6092,1.6101,1.5914,1.4249,1.4258,1.4628,1.4628,1.472,1.4949,1.5412,1.5345,1.5177,1.4978,1.432,1.3807,1.3941,1.3879,1.3934,1.4426,1.4347,0.0,0.0,0.0,0.0,0.0,0.0,0.0,0.0,1.5431,1.5431,1.5431,1.5431,1.5431,1.5431,1.4741,1.4062,1.3398,1.2813,1.2249,1.1704,1.1898,1.2059,1.2204,0.0,0.0,0.0,1.2705,1.2764,1.2764,1.2764,1.2764,1.2764,1.2764,1.2764,1.2764,0.0,0.0,0.0,0.0,0.0,-1.2201,-1.2299,-1.2303,-1.2425,-1.2861,-1.255,-1.2206,-1.2008,-1.1283,-1.0348,-0.9155,-0.7488,0.0,0.0,0.0,0.0,0.0,0.0,0.0,0.0,0.0,0.0885,-0.0,0.1719,0.2057,0.0,0.0,0.0,0.0,0.0,0.0,0.0,0.0,0.0,0.0,0.0,0.0,0.0,0.0,0.0,0.0,0.0,0.0,0.0,0.0,0.0,0.7579,0.7977,0.9059,1.0292,1.1142,1.266,1.425,1.5139,1.5883,1.6297,1.5795,1.5635,1.5228,1.3796,1.38,1.4071,1.4071,1.4398,1.4812,1.5187,1.5289,1.5267,1.5108,1.449,1.3989,1.3965,1.3873,1.3867,1.4153,0.0,1.4377,0.0,0.0,0.0,0.0,0.0,0.0,0.0,1.5257,1.5431,1.5431,1.5431,1.5257,1.509,1.4405,1.3808,1.3052,1.2272,1.1717,1.1431,1.1595,1.1748,0.0,0.0,0.0,0.0,1.2694,1.2764,1.2764,1.2764,1.2764,1.2764,1.2764,1.2764,1.2764,0.0,0.0,0.0,0.0,0.0,-1.2489,-1.1804,-1.2553,-1.3208,-1.3218,-1.2365,-1.208,-1.2706,-1.1733,-1.0813,-1.0415,-0.8389,0.0,0.0,0.0,0.0,0.0,0.0,0.0,0.0,0.0,-0.0723,-0.089,-0.0835,-0.0835,-0.089,-0.0835,-0.0835,-0.0835,0.0,0.0,0.0,0.0,-0.1194,0.0,0.0,0.0,0.0,0.0,0.0,0.0,0.0,0.0,0.0,0.0,0.0,0.0,0.0,0.7736,0.9006,0.9861,1.1612,1.341,1.422,1.4734,1.5007,1.484,1.4737,1.4426,1.3369,1.3354,1.361,1.361,1.3941,1.4305,1.4663,1.5051,1.5267,1.5108,1.4697,1.414,1.3314,1.3809,1.3882,0.0,0.0,1.4236,0.0,0.0,0.0,0.0,0.0,0.0,0.0,0.0,1.5431,1.5431,1.5431,1.5082,1.4391,1.373,1.3052,1.2363,1.1154,1.0757,1.0895,1.1207,0.0,0.0,0.0,0.0,0.0,1.2764,1.2764,1.2764,1.2764,1.2764,1.2764,1.2764,1.2764,1.2764,0.0,0.0,0.0,0.0,0.0,0.0,-1.1135,-1.1472,-1.1881,-1.2453,-1.2147,-1.1859,-1.1769,-1.125,-1.0525,-0.9644,-0.8797,0.0,0.0,0.0,0.0,0.0,0.0,0.0,0.0,-0.3324,-0.3212,-0.4265,-0.2161,-0.1663,-0.2658,-0.1445,-0.1113,-0.1504,-0.1504,-0.1774,0.0,-0.2195,-0.1931,0.0,0.0,0.0,0.0,0.0,0.0,0.0,0.0,0.0,0.0,0.0,0.0,0.0,0.0,0.0,0.0,0.9204,1.0605,1.2018,1.2856,1.3484,1.3753,1.3328,1.3481,1.353,1.2615,1.2764,1.32,1.3525,1.361,1.3789,1.4154,1.4247,1.4351,1.4605,1.3978,1.3494,1.3589,0.0,0.0,1.3048,1.3243,1.3498,0.0,0.0,0.0,0.0,0.0,0.0,0.0,0.0,1.4237,1.4741,1.4741,1.4566,1.4398,1.33,1.2619,1.2363,1.151,1.1284,1.1748,1.1669,0.0,0.0,0.0,0.0,0.0,1.2764,1.2764,1.2764,1.2764,1.2764,1.2764,1.2764,1.2764,1.2764,0.0,0.0,0.0,0.0,0.0,0.0,-1.0676,-1.0965,-1.1408,-1.2092,-1.185,-1.1651,-1.1619,-1.1108,-1.0438,-0.9806,-0.954,0.0,0.0,0.0,0.0,0.0,0.0,0.0,-0.5991,-0.4769,-0.4659,-0.5609,-0.3874,-0.3487,-0.432,-0.3377,-0.3104,-0.344,-0.3222,-0.3204,0.0,-0.2488,-0.2453,-0.2871,0.0,0.0,-0.1334,0.0,0.0,0.0,0.0,0.0,0.0,0.0,0.0,0.0,0.0,0.0,0.0,0.0,0.9427,1.0436,1.2043,1.2492,1.2503,1.2556,1.2749,1.2733,1.2221,1.252,1.2968,1.3296,1.3372,1.3457,1.3637,1.3732,1.3873,1.4093,1.3505,1.3054,1.3236,0.0,0.0,1.267,0.0,0.0,0.0,0.0,0.0,0.0,0.0,0.0,0.0,0.0,1.3476,1.3633,1.3893,1.3893,1.3633,1.2784,1.2277,1.194,1.1343,1.1232,1.1487,0.0,0.0,0.0,0.0,0.0,0.0,1.2764,1.2764,1.2764,1.2764,1.2764,1.2764,1.2764,1.2764,1.2764,0.0,0.0,0.0,0.0,0.0,0.0,0.0,-1.078,-1.1399,-1.1966,-1.1566,-1.1425,-1.2058,-1.12,-1.06,-1.0651,-1.03,0.0,0.0,0.0,0.0,0.0,0.0,0.0,-0.7085,-0.5832,-0.523,-0.5391,-0.5664,-0.5828,-0.5882,-0.61,-0.6209,-0.6154,-0.5605,-0.5069,-0.441,-0.2605,-0.2886,-0.4264,-0.1964,-0.1834,0.0,0.0,0.0,0.0,0.0,0.0,0.0,0.0,0.0,0.0,0.0,0.0,0.0,0.0,0.0,0.0,0.0,1.172,1.1309,1.2253,1.23,1.211,1.2073,1.2453,0.0,1.2832,1.3122,1.3314,1.317,1.3447,1.3637,1.3563,1.317,1.2764,0.0,1.2364,0.0,0.0,0.0,0.0,0.0,0.0,0.0,0.0,0.0,0.0,0.0,0.0,0.0,1.2363,1.2966,1.2966,1.2448,1.2363,1.194,1.1262,1.0901,1.0598,1.0639,0.0,0.0,0.0,0.0,0.0,0.0,1.2764,1.2764,1.2764,1.2764,1.2764,1.2764,1.2764,1.2764,1.2764,0.0,0.0,0.0,0.0,0.0,0.0,0.0,0.0,0.0,0.0,-1.0889,-1.136,-1.1469,-1.0889,-1.0584,0.0,0.0,0.0,0.0,0.0,0.0,0.0,0.0,0.0,-0.7085,-0.6332,-0.6059,-0.6372,-0.6209,-0.6209,-0.6426,-0.6263,-0.6209,-0.6209,-0.6041,-0.5873,-0.5517,-0.4189,-0.3843,-0.4108,-0.2234,-0.1735,0.0,0.0,0.0,0.0,0.0105,0.0743,0.0,0.0,0.0,0.0,0.0,0.0,0.0,0.0,0.826,0.8182,0.9826,0.0,1.0181,1.0186,1.0677,1.1041,0.0,1.1286,1.1997,1.2289,1.2541,1.2715,1.2666,1.2559,1.2589,1.2812,1.2393,1.19,1.1665,0.0,0.0,1.1978,0.0,0.0,0.0,0.0,0.0,0.0,0.0,0.0,0.0,0.0,0.0,1.1602,1.1688,1.2032,1.2363,1.1854,1.1435,1.1262,1.1176,1.1237,1.1425,0.0,0.0,0.0,0.0,0.0,0.0,1.2764,1.2764,1.2764,1.2764,1.2764,1.2764,1.2764,1.2764,1.2662,0.0,0.0,0.0,0.0,0.0,0.0,0.0,0.0,0.0,0.0,-0.9917,-1.0379,-1.049,-1.0328,-1.0218,0.0,0.0,0.0,0.0,0.0,0.0,0.0,0.0,-0.7085,-0.7085,-0.65,-0.6282,-0.6495,-0.6431,-0.6426,-0.6426,-0.6372,-0.6317,-0.6209,-0.5932,-0.5437,-0.4854,-0.4148,-0.3735,-0.3399,-0.2148,0.0,0.0,0.0,0.0,0.0,-0.0103,0.0315,0.0,0.2375,0.34,0.4275,0.0,0.0,0.0,0.0,0.7852,0.7628,0.8477,0.8991,0.9327,0.9445,0.9979,1.0454,1.0564,1.1104,1.1762,1.2386,1.2522,1.248,1.248,1.2008,1.1751,1.2197,1.1443,0.0,0.0,0.0,1.1294,1.1448,0.0,0.0,0.0,0.0,0.0,0.0,0.0,0.0,0.0,0.0,0.0,0.0,1.1262,1.1521,1.1854,1.1521,1.1262,1.1262,1.1262,1.1298,1.1347,0.0,0.0,0.0,0.0,0.0,1.2764,1.2764,1.2764,1.2764,1.2764,1.2764,1.2764,1.2764,1.2764,1.2764,0.0,0.0,0.0,0.0,0.0,0.0,0.0,0.0,0.0,0.0,0.0,0.0,0.0,0.0,0.0,0.0,0.0,0.0,0.0,0.0,0.0,0.0,-0.7616,-0.7139,-0.7085,-0.65,-0.6178,-0.6178,-0.6549,-0.6534,-0.6209,-0.648,-0.648,-0.6154,-0.566,-0.4835,-0.3837,-0.3573,-0.3155,-0.2664,-0.1876,0.0,0.0,0.0,0.0,0.0,0.0,0.0,0.0,0.2356,0.3277,0.3889,0.5655,0.0,0.0,0.0,0.0,0.0,0.7434,0.7986,0.8586,0.9193,0.9624,1.0083,1.0705,1.1178,1.1705,1.2455,1.2579,1.248,1.2323,1.1692,1.1283,1.1619,0.0,0.0,1.0428,1.1272,1.1554,0.0,0.0,0.0,0.0,0.0,0.0,0.0,0.0,0.0,0.0,0.0,0.0,0.0,1.1262,1.1262,1.1262,1.1262,1.1262,1.1262,1.1262,1.1189,1.1028,1.1706,0.0,0.0,0.0,0.0,1.2716,1.2748,1.2764,1.2764,1.2764,1.2764,1.2764,1.2764,1.2764,1.2764,0.0,0.0,0.0,0.0,0.0,0.0,0.0,0.0,0.0,0.0,0.0,0.0,0.0,0.0,0.0,0.0,0.0,0.0,0.0,0.0,0.0,-0.7503,-0.7557,-0.7456,-0.7085,-0.65,-0.6178,-0.6178,-0.6549,-0.6534,-0.6209,-0.648,-0.648,-0.6209,-0.61,-0.5655,-0.4984,-0.3978,-0.3322,-0.2775,-0.15,0.0,0.0,0.0,0.0,0.0,0.0,0.0,0.0,0.2323,0.3106,0.3898,0.5655,0.0,0.0,0.0,0.0,0.0,0.711,0.7356,0.7691,0.8052,0.8932,0.9562,0.9247,1.0098,1.1006,1.1402,1.2031,1.2264,1.1534,1.1692,1.166,0.0,0.0,1.0073,0.0,0.0,0.0,0.0,0.0,0.0,0.0,0.0,0.0,0.0,0.0,0.0,0.0,0.0,0.0,0.0,0.0,1.1262,1.1262,1.1262,1.1262,1.1262,1.1262,1.1283,1.1239,1.1556,1.1774,0.0,0.0,0.0,1.2484,1.2684,1.2764,1.2764,1.2764,1.2764,1.2764,1.2764,1.2764,1.2565,0.0,0.0,0.0,0.0,0.0,0.0,0.0,0.0,0.0,0.0,0.0,0.0,0.0,0.0,0.0,0.0,0.0,0.0,0.0,0.0,-0.7079,-0.681,-0.6918,-0.6864,-0.649,-0.6282,-0.6178,-0.6178,-0.6337,-0.6164,-0.5714,-0.5555,-0.5391,-0.5281,-0.5281,-0.478,-0.3834,-0.334,-0.2621,-0.1786,0.0,0.0,0.0,0.0,0.0,0.0,0.0,0.0,0.0,0.0,0.2866,0.3586,0.5255,0.0,0.0,0.0,0.0,0.0,0.6636,0.699,0.7282,0.7357,0.8023,0.8714,0.8977,0.9481,1.0108,1.104,1.1635,1.1819,1.1451,0.0,1.0146,0.9072,0.0,0.0,0.0,0.0,0.0,0.0,0.0,0.0,0.0,0.0,0.0,0.0,0.0,0.0,0.0,0.0,0.0,0.0,0.0,1.1155,1.1155,1.1155,1.1219,1.1262,1.1262,1.1262,1.1273,1.1591,1.1698,0.0,0.0,1.2291,1.2425,1.2533,1.2576,1.2587,1.2716,1.2684,1.2587,1.2716,1.2764,1.2565,0.0,0.0,0.0,0.0,0.0,0.0,0.0,0.0,0.0,0.0,0.0,0.0,0.0,0.0,0.0,0.0,0.0,0.0,0.0,-0.6912,-0.6701,-0.6381,-0.6273,-0.6164,-0.6,-0.6119,-0.6119,-0.6064,-0.6064,-0.5732,-0.5171,-0.4515,-0.4242,-0.4294,-0.4128,-0.3514,-0.2514,-0.2514,-0.1789,-0.0728,0.0,0.0,0.0,0.0,0.0,0.0,0.0,0.0,0.0,0.0,0.0,0.0,0.0,0.0,0.0,0.6315,0.631,0.5992,0.624,0.6585,0.6899,0.6937,0.7548,0.8303,0.8714,0.9098,0.96,1.0503,1.099,1.1209,1.1057,0.9835,0.0,0.7965,0.0,0.0,0.0,0.0,0.0,0.0,0.0,0.0,0.0,0.0,0.0,0.0,0.0,0.0,0.0,0.0,0.0,0.0,0.0,0.0,1.0647,1.0476,1.06,1.1268,1.1005,1.0919,1.0924,1.0973,1.1076,1.1269,1.1589,1.1886,1.2253,1.2307,1.2328,1.235,1.2527,1.2522,1.2441,1.2678,1.2764,1.2662,0.0,0.0,0.0,0.0,0.0,0.0,0.0,0.0,0.0,0.0,0.0,0.0,0.0,0.0,0.0,0.0,0.0,0.0,0.0,-0.648,-0.6263,-0.6209,-0.5837,-0.5786,-0.6,-0.6,-0.5896,-0.5622,-0.5622,-0.5348,-0.4743,-0.3858,-0.3522,-0.3627,-0.307,-0.2458,-0.1846,-0.1846,-0.1231,-0.0224,-0.0108,0.0,0.0,0.0,0.0,0.0,0.0,0.0,0.0,0.0,0.0,0.0,0.0,0.0,0.5619,0.6363,0.6235,0.5826,0.5981,0.6081,0.6211,0.683,0.8032,0.882,0.7753,0.885,0.9931,0.928,0.9953,1.0415,0.0,0.8817,0.8298,0.8761,0.0,0.0,0.0,0.0,0.0,0.0,0.0,0.0,0.0,0.0,0.0,0.0,0.0,0.0,0.0,0.0,0.0,0.0,0.0,0.0,0.949,0.8759,0.9275,1.1009,1.0154,0.9733,0.9738,0.9,0.9178,1.0067,1.0276,1.0915,1.1768,1.1984,1.2167,1.2075,1.2183,1.2226,1.2441,1.2678,1.2764,1.2662,0.0,0.0,0.0,0.0,0.0,0.0,0.0,0.0,0.0,0.0,0.0,-0.4798,-0.5382,0.0,0.0,0.0,0.0,0.0,0.0,-0.5555,-0.5563,-0.5622,-0.5517,-0.5513,-0.5727,-0.5891,-0.5782,-0.5395,-0.5066,-0.4629,-0.4132,-0.3635,-0.3244,-0.3014,-0.2792,-0.2347,-0.179,-0.1398,-0.0783,-0.0056,0.0387,0.065,0.0,0.0,0.0,0.0,0.0,0.0,0.0,0.0,0.2952,0.4107,0.4567,0.4925,0.5321,0.5871,0.5903,0.5734,0.5782,0.5848,0.603,0.6545,0.7472,0.8072,0.7494,0.7958,0.8501,0.8547,0.8744,0.8783,0.0,0.0,0.7154,0.0,0.0,0.0,0.0,0.0,0.0,0.0,0.0,0.0,0.0,0.0,0.0,0.0,0.0,0.0,0.0,0.0,0.0,0.0,0.0,0.0,0.0,0.8078,0.8277,0.8999,0.879,0.8998,0.9541,0.8768,0.8957,0.9864,1.0027,1.0666,1.1704,1.1795,1.1828,1.1844,1.1989,1.2199,1.2441,1.2678,1.2764,1.2759,0.0,0.0,0.0,0.0,0.0,0.0,0.0,0.0,-0.1786,0.0,0.0,0.0,0.0,-0.4125,0.0,0.0,0.0,0.0,-0.4901,-0.5014,-0.5183,-0.5297,-0.5297,-0.5352,-0.5513,-0.5786,-0.5673,-0.512,-0.4519,-0.4079,-0.3802,-0.3299,-0.2852,-0.2514,-0.2235,-0.1902,-0.1455,-0.0895,-0.028,0.0336,0.0951,0.1214,0.0,0.0,0.0,0.0,0.0,0.0,0.0,0.0,0.281,0.3965,0.4276,0.4753,0.5275,0.5588,0.555,0.5415,0.5415,0.5587,0.5869,0.6195,0.6913,0.7425,0.7083,0.7343,0.7664,0.7646,0.7747,0.7694,0.7315,0.0,0.0,0.0,0.0,0.0,0.0,0.0,0.0,0.0,0.0,0.0,0.0,0.0,0.0,0.0,0.0,0.0,0.0,0.0,0.0,0.0,0.0,0.0,0.0,0.7002,0.7106,0.7651,0.7354,0.7682,0.8599,0.8074,0.8284,0.8979,0.8979,0.9611,1.0691,1.105,1.1321,1.1612,1.1849,1.2043,1.2226,1.2538,1.2651,1.2662,0.0,0.0,0.0,0.0,0.0,0.0,0.0,0.0,-0.1342,-0.095,-0.1958,0.0,0.0,0.0,0.0,0.0,0.0,0.0,-0.4842,-0.5014,-0.5128,-0.5297,-0.5297,-0.5297,-0.5297,-0.5631,-0.5407,-0.4691,-0.3971,-0.3697,-0.3869,-0.2745,-0.2183,-0.2071,-0.1233,-0.0898,-0.0842,-0.0224,0.0336,0.095,0.1566,0.1959,0.2176,0.0,0.0,0.0,0.0,0.0,0.0,0.0,0.2946,0.4364,0.432,0.4932,0.568,0.568,0.5285,0.4801,0.4806,0.5301,0.5785,0.5712,0.653,0.7235,0.6523,0.7267,0.7753,0.6475,0.6966,0.7456,0.675,0.6475,0.0,0.0,0.0,0.0,0.0,0.0,0.0,0.0,0.0,0.0,0.0,0.0,0.0,0.0,0.0,0.0,0.0,0.0,0.0,0.0,0.0,0.0,0.0,0.514,0.565,0.7286,0.5717,0.5469,0.6394,0.6532,0.6763,0.6997,0.6997,0.7602,0.854,0.9506,1.0472,1.1289,1.1607,1.1698,1.1758,1.2237,1.2414,1.2452,0.0,0.0,0.0,0.0,0.0,0.0,0.0,0.0,-0.0112,-0.0,-0.0615,0.0,0.0,0.0,0.0,0.0,0.0,0.0,-0.4956,-0.4567,-0.4677,-0.5458,-0.5352,-0.5183,-0.4897,-0.4457,-0.4457,-0.4846,-0.4024,-0.3471,-0.3188,-0.2517,-0.2015,-0.1734,-0.1177,-0.0673,-0.0224,0.0392,0.1007,0.1566,0.2184,0.2352,0.2181,0.0,0.0,0.0,0.0,0.0,0.0,0.0,0.0,0.0,0.4618,0.4966,0.5275,0.5588,0.5593,0.5402,0.538,0.5368,0.5465,0.5823,0.6142,0.6277,0.6067,0.6733,0.7128,0.6268,0.6213,0.6263,0.5941,0.0,0.0,0.0,0.0,0.0,0.0,0.0,0.0,0.0,0.0,0.0,0.0,0.0,0.0,0.0,0.0,0.0,0.0,0.0,0.0,0.0,0.0,0.0,0.0,0.0,0.4997,0.5504,0.5644,0.6294,0.7179,0.6105,0.6365,0.7662,0.7083,0.7429,0.8537,0.9534,1.0472,1.1289,1.1607,1.1698,1.1758,1.2237,1.2414,1.2452,0.0,0.0,0.0,0.0,0.0,0.0,0.123,0.1008,0.084,0.0952,0.0671,0.0112,0.0,0.0,0.0,-0.3016,-0.2794,0.0,-0.4625,-0.4343,-0.4453,-0.5285,-0.5179,-0.5014,-0.468,-0.4073,-0.4073,-0.4743,-0.3971,-0.3471,-0.3193,-0.2863,-0.2244,-0.1287,-0.1009,-0.0673,-0.028,0.0559,0.1118,0.151,0.2352,0.241,0.2015,0.0,0.0,0.0,0.0,0.0,0.0,0.0,0.0,0.0,0.4574,0.4966,0.5275,0.5328,0.5193,0.4951,0.4848,0.4887,0.5036,0.5242,0.5695,0.6029,0.5996,0.6226,0.6218,0.5668,0.5668,0.5668,0.5234,0.5039,0.0,0.0,0.0,0.0,0.0,0.0,0.0,0.0,0.0,0.0,0.0,0.0,0.0,0.0,0.0,0.0,0.0,0.0,0.0,0.0,0.0,0.0,0.0,0.0,0.0,0.4651,0.528,0.6023,0.6889,0.6009,0.6058,0.6919,0.674,0.7355,0.8454,0.942,1.0393,1.1278,1.1505,1.1558,1.1607,1.1989,1.2129,1.2178,0.0,0.0,0.128,0.2327,0.0,0.0,0.1893,0.1734,0.1679,0.1902,0.1846,0.1512,0.0,0.0,0.0,-0.1903,-0.2127,-0.2738,-0.4067,-0.4122,-0.4346,-0.4846,-0.4842,-0.4739,-0.4632,-0.4187,-0.4082,-0.4425,-0.3863,-0.3532,-0.3426,-0.3436,-0.2531,-0.0954,-0.0898,-0.0898,-0.0729,0.0391,0.095,0.1062,0.224,0.2352,0.1846,0.1846,0.0,0.0,0.0,0.0,0.0,0.0,0.0,0.0,0.4368,0.4946,0.5571,0.5024,0.4499,0.402,0.3803,0.4172,0.4564,0.4432,0.5267,0.6139,0.6112,0.5673,0.5242,0.5011,0.0,0.5445,0.4629,0.0,0.0,0.0,0.0,0.0,0.0,0.0,0.0,0.0,0.0,0.0,0.0,0.0,0.0,0.0,0.0,0.0,0.0,0.0,0.0,0.0,0.0,0.0,0.0,0.0,0.0,0.0,0.4649,0.5066,0.5793,0.5999,0.5817,0.5319,0.6185,0.7322,0.8565,0.9269,1.0254,1.1235,1.1257,1.1262,1.1294,1.1612,1.1698,1.1763,0.0,0.0,0.2055,0.2283,0.0,0.0,0.2687,0.2577,0.2521,0.2802,0.224,0.1568,0.0897,0.0112,0.0,-0.1734,-0.1959,-0.2627,-0.3965,-0.3744,-0.391,-0.4688,-0.4408,-0.4187,-0.4135,-0.3688,-0.358,-0.3808,-0.3641,-0.3135,-0.2183,-0.2189,-0.1909,-0.1347,-0.1066,-0.0617,-0.0168,0.0615,0.1174,0.1679,0.2408,0.2465,0.2127,0.2408,0.2352,0.0,0.0,0.0,0.0,0.0,0.0,0.0,0.4666,0.5084,0.5415,0.5466,0.5405,0.5257,0.4938,0.4831,0.4849,0.4891,0.521,0.5521,0.5504,0.5407,0.5352,0.5555,0.5336,0.4956,0.0,0.0,0.0,0.0,0.0,0.0,0.0,0.0,0.0,0.0,0.0,0.0,0.0,0.0,0.0,0.0,0.0,0.0,0.0,0.0,0.0,0.0,0.0,0.0,0.43,0.4325,0.4338,0.0,0.4455,0.4649,0.4792,0.4951,0.5309,0.5901,0.6317,0.7415,0.9001,0.9405,1.0159,1.1085,1.1273,1.1262,1.1294,1.1612,1.1787,1.2004,0.0,0.0,0.0,0.0,0.0,0.0,0.0,0.0,0.3246,0.3251,0.2742,0.2125,0.14,0.0728,0.0,0.0,-0.1846,-0.2402,-0.3741,-0.3688,-0.3855,-0.4415,-0.419,-0.3855,-0.3463,-0.3297,-0.3021,-0.2577,-0.2577,-0.2635,-0.2639,-0.1458,-0.0898,-0.0785,-0.0842,-0.0729,-0.0393,0.0503,0.1062,0.1454,0.2352,0.2577,0.2465,0.2635,0.2742,0.2892,0.3065,0.0,0.0,0.0,0.0,0.0,0.0,0.0,0.5585,0.547,0.5425,0.5305,0.4793,0.4591,0.4592,0.4907,0.5153,0.5297,0.5297,0.5297,0.5297,0.534,0.5117,0.0,0.0,0.0,0.0,0.0,0.0,0.0,0.0,0.0,0.0,0.0,0.0,0.0,0.0,0.0,0.0,0.0,0.0,0.0,0.0,0.0,0.0,0.0,0.0,0.0,0.4221,0.4273,0.427,0.4216,0.4333,0.439,0.4395,0.4924,0.5517,0.6172,0.6942,0.7966,0.9183,0.9732,1.03,1.0832,1.0961,1.1079,1.1187,1.1397,1.169,1.1921,0.0,0.0,0.0,0.0,0.0,0.0,0.0,0.0,0.0,0.3357,0.3188,0.2796,0.1958,0.1454,0.0391,0.0,0.0,0.0,-0.3405,-0.363,-0.3799,-0.4027,-0.3858,-0.3463,-0.2794,-0.2852,-0.2464,-0.1572,-0.1459,-0.1967,-0.3098,-0.101,-0.0112,-0.0168,-0.0673,-0.0898,-0.0842,0.0391,0.0894,0.1006,0.224,0.2691,0.2691,0.2802,0.3188,0.3558,0.3409,0.3557,0.3846,0.4122,0.0,0.0,0.0,0.0,0.5893,0.5297,0.5116,0.5,0.4413,0.4244,0.4349,0.4723,0.506,0.5261,0.5293,0.5297,0.5242,0.5011,0.4901,0.0,0.0,0.0,0.0,0.0,0.0,0.0,0.0,0.0,0.0,0.0,0.0,0.0,0.0,0.0,0.0,0.0,0.0,0.0,0.0,0.0,0.0,0.0,0.0,0.3899,0.3872,0.4072,0.4189,0.4088,0.4211,0.427,0.4276,0.5183,0.5871,0.6309,0.7539,0.8501,0.9223,1.0016,1.0406,1.0584,1.0616,1.086,1.1066,1.1316,1.1562,1.1899,0.0,0.0,0.0,0.0,0.0,0.0,0.0,0.0,0.0,0.0,0.313,0.2852,0.2127,0.1679,0.1063,0.0056,-0.1231,-0.2293,-0.2961,0.0,0.0,-0.3244,-0.291,-0.2575,-0.2294,-0.2238,-0.2073,-0.1741,-0.1234,-0.1066,-0.1234,-0.0617,-0.0505,-0.0785,-0.0842,-0.0898,-0.0842,0.0391,0.0894,0.1006,0.224,0.2691,0.2747,0.3304,0.3524,0.3624,0.3834,0.3851,0.3825,0.3909,0.4136,0.0,0.0,0.0,0.5805,0.5339,0.5169,0.5127,0.4951,0.4839,0.4785,0.4804,0.4962,0.5157,0.5265,0.5297,0.5242,0.0,0.0,0.0,0.0,0.0,0.0,0.0,0.0,0.0,0.0,0.0,0.0,0.0,0.0,0.0,0.0,0.0,0.0,0.0,0.0,0.0,0.0,0.2431,0.219,0.2389,0.2392,0.0,0.2766,0.353,0.3859,0.3899,0.4083,0.4143,0.4145,0.5001,0.5827,0.6765,0.7219,0.8199,0.9553,1.0121,1.0309,1.0358,1.0718,1.1018,1.1316,1.1477,1.1888,1.2283,0.0,0.0,0.0,0.0,0.0,0.0,0.0,0.0,0.0,0.0,0.0,0.28,0.2635,0.224,0.1286,-0.0559,-0.123,-0.2068,-0.313,-0.3302,-0.3299,-0.3019,-0.3074,-0.2738,-0.2015,-0.2071,-0.1849,-0.1291,-0.1122,-0.0954,-0.0898,-0.0729,-0.0785,-0.0898,-0.0898,-0.0673,-0.0168,0.0559,0.1118,0.151,0.2517,0.2968,0.3135,0.358,0.3744,0.3834,0.3694,0.3603,0.3634,0.3986,0.4179,0.4438,0.5247,0.0,0.0,0.0,0.5418,0.5351,0.4911,0.4722,0.4658,0.4641,0.4873,0.51,0.5182,0.5225,0.5242,0.0,0.0,0.0,0.0,0.0,0.0,0.0,0.0,0.0,0.0,0.0,0.0,0.0,0.0,0.0,0.0,0.0,0.0,0.0,0.0,0.0,0.2113,0.1251,0.0853,0.0941,0.0942,0.0,0.3129,0.3513,0.3763,0.3875,0.4058,0.4182,0.4254,0.4695,0.5631,0.6825,0.7473,0.8397,0.9554,1.004,1.0185,1.0207,1.0522,1.0852,1.1078,1.1312,1.1729,1.2152,0.0,0.0,0.0,0.0,0.0,0.0,0.0,0.0,0.0,0.0,0.0,0.2805,0.2974,0.0,0.0,0.0,-0.179,-0.2462,-0.3411,-0.3522,-0.3352,-0.2961,-0.3183,-0.285,-0.1846,-0.2071,-0.1793,-0.101,-0.1177,-0.1177,-0.0954,-0.0954,-0.0954,-0.0898,-0.0898,-0.0505,0.028,0.0727,0.1174,0.1733,0.274,0.3188,0.3299,0.3685,0.3852,0.388,0.3551,0.35,0.3599,0.4128,0.4334,0.4506,0.5531,0.5766,0.0,0.0,0.0,0.5217,0.4652,0.4504,0.4533,0.4489,0.478,0.5011,0.5011,0.0,0.5285,0.0,0.0,0.0,0.0,0.0,0.0,0.0,0.0,0.0,0.0,0.0,0.0,0.0,0.0,0.0,0.0,0.0,0.0,0.0,0.0,0.0,0.1392,0.0644,0.0179,0.0122,0.0122,0.1086,0.3125,0.3354,0.3615,0.3906,0.4123,0.4261,0.4396,0.4555,0.5349,0.6615,0.7541,0.8412,0.9222,0.9873,1.0075,1.0098,1.0421,1.0755,1.099,1.1224,1.1579,1.1975,0.2471,0.0,0.0,0.2644,0.2607,0.0,0.3758,0.3291,0.0,0.0,0.0,0.2916,0.2974,0.303,0.1959,-0.067,-0.303,-0.4104,-0.3627,-0.3846,-0.368,-0.313,-0.2742,0.0,-0.179,-0.2071,-0.1905,-0.129,-0.1624,-0.1512,-0.1066,-0.1066,-0.101,-0.0898,-0.0898,-0.0561,0.0056,0.0671,0.1062,0.1453,0.2627,0.3019,0.3016,0.3574,0.3796,0.3779,0.3652,0.3731,0.3942,0.427,0.4558,0.4845,0.5363,0.5351,0.5095,0.0,0.0,0.0,0.4364,0.4451,0.4591,0.4503,0.4634,0.482,0.0,0.0,0.0,0.0,0.0,0.0,0.0,0.0,0.0,0.0,0.0,0.0,0.0,0.0,0.0,0.0,0.0,0.0,0.0,0.0,0.0,0.0,0.0,0.0,0.0956,0.0869,0.0708,0.0413,0.0354,0.0884,0.1882,0.2738,0.3429,0.399,0.4246,0.4369,0.4439,0.4643,0.5233,0.5977,0.6933,0.7763,0.8429,0.9586,1.0075,1.017,1.0644,1.0983,1.1224,1.1379,1.1624,1.198,0.0,0.0,0.1629,0.174,0.157,0.0,0.1897,0.2413,0.2469,0.0,0.0,0.0,0.0,0.179,0.0781,-0.1392,-0.3403,-0.4418,-0.4184,-0.4122,-0.3956,-0.3574,-0.3408,-0.313,-0.2627,-0.2629,-0.2462,-0.2074,-0.1959,-0.179,-0.1568,-0.1346,-0.1066,-0.0785,-0.0842,-0.0336,0.0615,0.0783,0.1285,0.1958,0.291,0.3079,0.2854,0.3519,0.3638,0.3391,0.3273,0.3304,0.3468,0.3704,0.4072,0.451,0.4918,0.5086,0.5043,0.4861,0.4599,0.4403,0.4316,0.436,0.442,0.4398,0.4507,0.4637,0.4828,0.5018,0.0,0.0,0.0,0.0,0.0,0.0,0.0,0.0,0.0,0.0,0.0,0.0,0.0,0.0,0.0,0.0,0.0,0.0,0.0,0.0,0.0,0.0,0.0898,0.0908,0.0857,0.0742,0.0742,0.1313,0.2567,0.2876,0.3357,0.4024,0.421,0.4355,0.4476,0.4609,0.4934,0.5474,0.6681,0.7627,0.8317,0.9519,1.0043,1.0284,1.0611,1.0879,1.1111,1.1187,1.1437,1.1685,0.0,-0.0134,0.0361,0.0376,0.0,0.0356,0.0369,0.1093,0.1399,0.0558,0.0,0.0,0.0,0.0,-0.0557,-0.2728,-0.4119,-0.4791,-0.4625,-0.4732,-0.4622,-0.4184,-0.4181,-0.3959,-0.3461,-0.3405,-0.3188,-0.28,-0.2575,-0.235,-0.2069,-0.1849,-0.1458,-0.1066,-0.1178,-0.0392,0.0895,0.0895,0.1399,0.2238,0.2965,0.3056,0.2863,0.3517,0.3444,0.3064,0.2901,0.0,0.3111,0.3257,0.3663,0.4131,0.4626,0.4849,0.4865,0.4682,0.4459,0.4316,0.4316,0.4316,0.4316,0.4316,0.4414,0.4532,0.4742,0.0,0.0,0.0,0.0,0.0,0.0,0.0,0.0,0.0,0.0,0.0,0.0,0.0,0.0,0.0,0.0,0.0,0.0,0.0,0.0,0.0,0.0,0.0,0.0898,0.0898,0.0898,0.0898,0.0898,0.1457,0.2577,0.2802,0.3246,0.3855,0.4219,0.4458,0.4574,0.4663,0.4869,0.5191,0.6572,0.7506,0.8057,0.9357,1.0091,1.0357,1.0622,1.0882,1.1111,1.1111,1.1232,1.1407,-0.2152,-0.1654,-0.1264,-0.1413,-0.0881,-0.0508,-0.063,-0.0544,-0.0445,-0.0445,0.0,0.0,0.0,0.0,0.0,-0.4595,-0.5301,-0.5454,-0.4952,-0.5614,-0.5723,-0.5007,-0.4952,-0.4732,-0.4288,-0.4242,-0.3968,-0.3413,-0.3413,-0.3188,-0.2736,-0.2575,-0.2242,-0.1794,-0.1797,-0.0784,0.0896,0.0897,0.14,0.2237,0.2683,0.2957,0.3026,0.34,0.3226,0.2759,0.2558,0.2609,0.2822,0.3111,0.3472,0.3918,0.4489,0.4591,0.4465,0.4333,0.432,0.4316,0.0,0.0,0.0,0.4316,0.441,0.0,0.4573,0.0,0.0,0.0,0.0,0.0,0.0,0.0,0.0,0.0,0.0,0.0,0.0,0.0,0.0,0.0,0.0,0.0,0.0,0.0,0.0,0.0,0.0,0.0898,0.0898,0.0898,0.0898,0.0898,0.0898,0.1177,0.179,0.2402,0.3014,0.3627,0.4324,0.4684,0.4691,0.484,0.4982,0.5181,0.6563,0.7248,0.7526,0.9213,1.0079,1.0345,1.0598,1.0864,1.1099,1.1099,1.1105,1.1148,-0.2417,-0.219,-0.2035,-0.217,-0.201,-0.1882,-0.2001,-0.2072,-0.2063,0.0,0.0,0.0,-0.2063,-0.2783,-0.3729,-0.4912,-0.5837,-0.6263,-0.6154,-0.6539,-0.6701,-0.6485,-0.6159,-0.5832,-0.5504,-0.5175,-0.4791,-0.4356,-0.4024,-0.3685,-0.3347,-0.3074,-0.254,-0.1781,-0.1662,-0.0773,0.0541,0.0499,0.094,0.1733,0.2496,0.2688,0.2605,0.2973,0.2805,0.0,0.0,0.21,0.2267,0.0,0.3118,0.3657,0.4405,0.4554,0.4439,0.4437,0.4378,0.4316,0.4316,0.0,0.0,0.0,0.0,0.0,0.4543,0.4625,0.0,0.0,0.0,0.0,0.0,0.0,0.0,0.0,0.0,0.0,0.0,0.0,0.0,0.0,0.0,0.0,0.0,0.0,0.0,0.0,0.0,0.0898,0.0898,0.0898,0.0898,0.0898,0.0898,0.1177,0.179,0.2402,0.3014,0.3627,0.4225,0.458,0.4584,0.4568,0.467,0.4879,0.6422,0.7149,0.7365,0.8952,0.9748,1.0055,1.006,1.0429,1.0828,1.0828,1.0948,1.1123,-0.2504,-0.2637,-0.2733,-0.2699,-0.2825,-0.3069,-0.3227,-0.3361,-0.3458,0.0,0.0,0.0,-0.3624,-0.4122,-0.4677,-0.512,-0.6154,-0.675,-0.6588,-0.7187,-0.7515,-0.7354,-0.6972,-0.6647,-0.649,-0.5937,-0.55,-0.5175,-0.4625,-0.4239,-0.407,-0.3744,-0.303,-0.2124,-0.1682,-0.086,0.0156,0.0108,0.0437,0.1034,0.1749,0.2057,0.2172,0.2517,0.2405,0.0,0.0,0.0,0.1967,0.2326,0.2948,0.0,0.4289,0.4445,0.4404,0.4497,0.4425,0.4369,0.4296,0.4316,0.4316,0.4316,0.0,0.0,0.4574,0.455,0.4623,0.0,0.0,0.0,0.0,0.0,0.0,0.0,0.0,0.0,0.0,0.0,0.0,0.0,0.0,0.0,0.0,0.0,0.0,0.0,0.1121,0.101,0.0898,0.0898,0.0898,0.0898,0.0898,0.1177,0.179,0.2402,0.3014,0.3627,0.4239,0.4519,0.4519,0.4519,0.4713,0.5162,0.6438,0.7244,0.7653,0.8983,0.9634,0.9874,0.9874,1.026,1.0719,1.0719,1.0888,1.1111,0.0,-0.2904,-0.3209,-0.3024,-0.3412,-0.3859,-0.4204,-0.4467,-0.4574,0.0,-0.457,-0.468,-0.4956,-0.4956,-0.5062,-0.5336,-0.6426,-0.7025,-0.6696,-0.7676,-0.8162,-0.783,-0.7557,-0.7343,-0.7192,-0.6642,-0.6209,-0.5882,-0.5336,-0.4948,-0.4769,-0.4414,-0.3696,-0.2672,-0.1896,-0.1087,-0.0251,-0.0261,-0.0054,0.0277,0.0803,0.1263,0.0,0.0,0.1998,0.1612,0.1319,0.1435,0.1706,0.2033,0.2839,0.0,0.0,0.0,0.0,0.4482,0.4529,0.4493,0.4378,0.4317,0.4304,0.4304,0.4332,0.0,0.453,0.4533,0.457,0.0,0.0,0.0,0.0,0.0,0.0,0.0,0.0,0.0,0.0,0.0,0.0,0.0,0.0,0.0,0.0,0.0,0.1902,0.179,0.1513,0.1234,0.1009,0.1065,0.1065,0.1065,0.1121,0.14,0.1956,0.2569,0.3125,0.3624,0.4239,0.4519,0.4519,0.4519,0.4871,0.5534,0.6524,0.733,0.8057,0.907,0.9592,0.9832,0.9832,1.0143,1.0677,1.0647,1.084,1.1105,-0.2188,-0.2277,-0.2566,-0.3268,-0.3459,-0.3856,-0.4631,-0.4904,-0.4959,-0.4959,-0.5066,-0.5226,-0.5454,-0.5454,-0.5508,-0.5681,-0.675,-0.7385,-0.7331,-0.8256,-0.8745,-0.8593,-0.8415,-0.809,-0.7616,-0.7354,-0.6972,-0.6426,-0.61,-0.5694,-0.5177,-0.4883,-0.4209,-0.3209,-0.2257,-0.1395,-0.0676,-0.0602,-0.0416,-0.0054,0.0776,0.11,0.1118,0.1436,0.1523,0.1422,0.0957,0.0854,0.1089,0.2167,0.3077,0.3846,0.0,0.0,0.0,0.4519,0.0,0.0,0.0,0.0,0.0,0.0,0.0,0.0,0.436,0.4344,0.4369,0.0,0.0,0.0,0.0,0.0,0.0,0.0,0.0,0.0,0.0,0.0,0.0,0.0,0.0,0.0,0.0,0.0,0.246,0.1846,0.1734,0.168,0.1623,0.1956,0.2178,0.2178,0.251,0.273,0.2843,0.3453,0.3785,0.3953,0.4408,0.4688,0.4632,0.4574,0.4588,0.4793,0.6085,0.6866,0.732,0.8661,0.931,0.9556,0.9556,0.988,1.0381,1.017,1.0526,1.1081,-0.2014,-0.2591,-0.3115,-0.3219,-0.3711,-0.4267,-0.4907,-0.5179,-0.5344,-0.5344,-0.5454,-0.5618,-0.5782,-0.5782,-0.5841,-0.6014,-0.681,-0.7396,-0.7658,-0.8408,-0.8896,-0.9106,-0.8949,-0.8685,-0.8262,-0.8055,-0.7676,-0.7025,-0.6756,-0.6318,-0.573,-0.5383,-0.4645,-0.3565,-0.2684,-0.1866,-0.1111,-0.0964,-0.0842,-0.0604,0.0444,0.0,0.0701,0.1135,0.1217,0.1044,0.0684,0.0637,0.0876,0.2115,0.3213,0.0,0.0,0.4207,0.439,0.0,0.4739,0.4774,0.0,0.0,0.0,0.4501,0.0,0.0,0.0,0.441,0.4463,0.0,0.0,0.0,0.0,0.0,0.0,0.0,0.0,0.0,0.0,0.0,0.0,0.0,0.0,0.0,0.0,0.0,0.3128,0.2404,0.2348,0.2179,0.1846,0.2235,0.2512,0.2512,0.2896,0.3229,0.3564,0.384,0.4174,0.4453,0.468,0.4794,0.4794,0.4684,0.4956,0.5563,0.6365,0.7141,0.797,0.8963,0.9408,0.9549,0.9494,0.9724,1.0048,0.9922,1.0272,1.0701,-0.1792,-0.27,-0.3376,-0.2931,-0.3686,-0.451,-0.4965,-0.5399,-0.5677,-0.5732,-0.5791,-0.59,-0.6005,-0.6114,-0.6168,-0.6282,-0.6869,-0.745,-0.7978,-0.8468,-0.8942,-0.9413,-0.9309,-0.9106,-0.8857,-0.8692,-0.8309,-0.7676,-0.7456,-0.6972,-0.6245,-0.5848,-0.5018,-0.3909,-0.3143,-0.237,-0.1585,-0.1271,-0.1157,-0.1094,0.0,0.0295,0.031,0.07,0.0779,0.0706,0.0413,0.0418,0.0751,0.1935,0.3072,0.3939,0.3859,0.4136,0.0,0.0,0.0,0.0,0.0,0.0,0.0,0.0,0.0,0.4542,0.0,0.0,0.0,0.0,0.0,0.0,0.0,0.0,0.0,0.0,0.0,0.0,0.0,0.0,0.0,0.0,0.0,0.0,0.0,0.0,0.3688,0.313,0.3016,0.2794,0.2237,0.2681,0.2901,0.2901,0.3289,0.3732,0.4229,0.4229,0.4508,0.4956,0.4956,0.4956,0.4956,0.4794,0.534,0.6436,0.6657,0.7488,0.8652,0.9225,0.9478,0.9604,0.9566,0.977,0.9995,0.9946,1.0129,1.039,-0.1298,-0.1383,-0.1724,-0.2299,-0.3044,-0.389,-0.4645,-0.5445,-0.6005,-0.6119,-0.6123,-0.6178,-0.6173,-0.6436,-0.6647,-0.6647,-0.7343,-0.8031,-0.8468,-0.889,-0.9256,-0.9562,-0.9465,-0.9263,-0.8956,-0.9309,-0.9093,-0.8315,-0.8336,-0.7723,-0.6564,-0.6263,-0.5566,-0.4493,-0.3632,-0.2896,-0.2333,-0.1535,-0.1122,0.0,-0.0915,-0.0602,0.0,-0.0411,-0.009,0.0409,0.0141,0.0048,0.024,0.0,0.2286,0.3124,0.0,0.445,0.4546,0.4816,0.0,0.0,0.0,0.0,0.0,0.0,0.4775,0.0,0.0,0.0,0.0,0.0,0.0,0.0,0.0,0.0,0.0,0.0,0.0,0.0,0.0,0.0,0.0,0.0,0.0,0.0,0.0,0.0,0.0,0.3855,0.3524,0.3469,0.3744,0.4187,0.4463,0.4463,0.4853,0.5073,0.5128,0.5128,0.5187,0.5242,0.5128,0.5069,0.5069,0.4956,0.5226,0.5937,0.6396,0.7125,0.8061,0.8627,0.9176,0.9604,0.9876,1.0089,1.0302,1.0058,1.0296,1.0704,-0.1386,-0.1786,-0.2227,-0.2419,-0.3255,-0.4068,-0.4488,-0.5344,-0.5955,-0.6178,-0.6178,-0.6178,-0.6178,-0.6337,-0.649,-0.6707,0.0,-0.7557,0.0,-0.8981,-0.9399,-0.9614,-1.0218,-1.0269,-0.9718,-1.0167,-1.0015,-0.9228,-0.9299,-0.8697,-0.7363,-0.7176,-0.6505,-0.5515,-0.466,-0.3913,-0.3193,-0.2402,-0.1919,0.0,0.0,0.0,0.0,-0.0727,-0.0273,0.014,0.0047,-0.0,0.0202,0.0,0.2663,0.0,0.0,0.0,0.0,0.0,0.0,0.0,0.0,0.0,0.0,0.0,0.0,0.0,0.4538,0.0,0.4962,0.0,0.0,0.0,0.0,0.0,0.0,0.0,0.0,0.0,0.0,0.0,0.0,0.0,0.0,0.0,0.0,0.0,0.0,0.0,0.0,0.3776,0.3962,0.4467,0.4691,0.4691,0.5077,0.5297,0.5297,0.5297,0.5297,0.5297,0.5242,0.5242,0.5187,0.5069,0.5555,0.6534,0.6696,0.7404,0.845,0.889,0.916,0.9408,0.9695,0.9858,0.9926,0.997,1.0027,1.0097,-0.1538,-0.2173,-0.2658,-0.2525,-0.3473,-0.4438,-0.4886,-0.5622,-0.6173,-0.6178,-0.6391,-0.65,-0.6337,-0.6445,-0.6712,-0.7074,-0.7182,-0.7664,0.0,0.0,-0.9547,-0.9777,-1.0677,-1.0922,-1.0328,-1.0931,-1.0797,-0.9858,-1.0053,-0.9398,-0.7944,-0.7952,-0.7434,-0.6444,-0.5636,-0.4915,-0.4193,0.0,-0.2723,-0.256,-0.2219,-0.2096,-0.2,-0.1176,-0.0643,-0.0333,-0.0097,0.0404,0.105,0.1615,0.2923,0.0,0.312,0.0,0.0,0.0,0.0,0.0,0.5011,0.0,0.0,0.0,0.0,0.0,0.0,0.0,0.0,0.0,0.0,0.0,0.0,0.0,0.0,0.5036,0.0,0.0,0.0,0.0,0.0,0.0,0.0,0.0,0.0,0.0,0.0,0.0,0.0,0.0,0.4457,0.4904,0.5124,0.5124,0.5297,0.5462,0.5462,0.5352,0.5297,0.5297,0.5297,0.5297,0.5297,0.5344,0.605,0.7085,0.7182,0.7771,0.8824,0.9031,0.911,0.9203,0.9479,0.9628,0.9801,1.017,1.0099,0.9904,-0.1601,-0.1862,-0.2136,-0.2218,-0.349,-0.4842,-0.5955,-0.6657,-0.6869,-0.6282,-0.6928,0.0,0.0,0.0,0.0,0.0,0.0,-0.8883,-0.971,0.0,-0.9777,0.0,0.0,-1.06,-1.06,-1.141,-1.1268,-1.0003,-1.0398,-0.9705,-0.8098,-0.8407,-0.8078,-0.7151,-0.6325,-0.5788,-0.536,-0.3767,-0.3278,-0.3527,-0.3043,-0.3001,-0.3043,0.0,-0.1517,-0.1245,-0.0347,0.0,0.0,0.2203,0.273,0.0,0.0,0.0,0.0,0.0,0.0,0.0,0.0,0.0,0.0,0.4951,0.0,0.0,0.0,0.0,0.4848,0.0,0.0,0.0,0.0,0.5007,0.5062,0.4943,0.5123,0.0,0.0,0.0,0.0,0.0,0.0,0.0,0.0,0.0,0.0,0.0,0.0,0.0,0.5727,0.5996,0.6154,0.6154,0.5896,0.5795,0.5795,0.5466,0.5297,0.5297,0.5297,0.5297,0.5297,0.5887,0.648,0.7139,0.7664,0.8203,0.8804,0.8818,0.8985,0.9183,0.9196,0.9584,1.0151,1.0792,1.0854,1.0611,-0.1544,-0.1832,-0.2205,-0.2611,-0.3434,-0.4515,-0.5841,-0.6218,-0.6327,0.0,0.0,0.0,0.0,-0.7187,-0.7664,0.0,0.0,-0.8988,-0.9614,-1.0064,0.0,0.0,0.0,-1.185,-1.1651,-1.2033,-1.178,-1.0867,-1.1035,-1.0475,-0.9231,-0.9532,-0.9329,-0.8753,-0.7874,-0.7097,0.0,0.0,0.0,0.0,0.0,-0.3081,-0.299,0.0,0.0,-0.2181,-0.0552,0.0524,0.0,0.2569,0.3312,0.3649,0.3469,0.3747,0.4138,0.3962,0.4294,0.0,0.0,0.0,0.4676,0.4726,0.0,0.0,0.0,0.0,0.0,0.0,0.0,0.0,0.0,0.4677,0.4992,0.5046,0.5089,0.5164,0.0,0.0,0.0,0.0,0.0,0.0,0.0,0.0,0.0,0.0,0.0,0.0,0.0,0.6154,0.6209,0.6209,0.6105,0.6055,0.6055,0.5941,0.5887,0.5887,0.5887,0.5887,0.5887,0.6263,0.681,0.7413,0.7717,0.8256,0.8804,0.8804,0.8864,0.8958,0.8958,0.9569,1.0512,1.0667,1.093,1.1292,-0.1886,-0.2375,-0.2796,-0.2891,-0.3707,-0.4783,-0.6159,0.0,0.0,0.0,-0.6766,0.0,-0.73,0.0,-0.8302,0.0,-0.9392,-0.9651,-1.0182,-1.0779,0.0,-1.0956,-1.2008,0.0,0.0,-1.2531,-1.2319,-1.1663,-1.1574,-1.1066,-1.0137,-1.0367,-1.0147,-0.9482,-0.8833,-0.798,-0.6966,-0.5582,-0.4735,0.0,0.0,-0.3306,0.0,0.0,-0.2456,0.0,0.0,-0.0262,0.0221,0.1786,0.2916,0.3591,0.3416,0.3691,0.4024,0.3852,0.4132,0.4525,0.4632,0.4613,0.0,0.0,0.4645,0.0,0.4488,0.0,0.0,0.0,0.0,0.0,0.0,0.0,0.4849,0.5011,0.5069,0.5238,0.0,0.5618,0.0,0.0,0.0,0.0,0.0,0.0,0.0,0.0,0.0,0.0,0.0,0.0,0.6534,0.6534,0.6426,0.6372,0.6372,0.6263,0.6209,0.6209,0.6209,0.6209,0.6209,0.675,0.7187,0.7622,0.8143,0.8573,0.8962,0.8962,0.8962,0.8969,0.8971,0.9788,1.0867,1.074,1.1152,1.1889,-0.2611,-0.3342,-0.3851,-0.3207,-0.4358,0.0,0.0,0.0,-0.7085,0.0,-0.7836,-0.8209,-0.7777,-0.8521,-0.9458,-1.0517,-1.0669,-1.088,-1.1318,-1.176,0.0,0.0,-1.2206,-1.2657,-1.2706,0.0,0.0,-1.2345,-1.2022,-1.15,-1.0768,-1.1035,-1.0536,-0.9392,-0.9244,-0.8567,-0.7361,-0.5976,-0.5214,-0.4849,-0.3983,-0.3592,-0.3561,-0.3274,0.0,-0.1824,-0.1492,-0.0775,-0.0,-0.0,0.1567,0.3583,0.3811,0.386,0.3852,0.4138,0.4193,0.4249,0.4463,0.4577,0.4688,0.4688,0.0,0.0,0.0,0.0,0.3759,0.0,0.0,0.0,0.0,0.0,0.4743,0.4901,0.5066,0.5399,0.6154,0.6263,0.0,0.0,0.0,0.0,0.0,0.0,0.0,0.0,0.0,0.0,0.0,0.0,0.0,0.7085,0.6864,0.6707,0.6707,0.6426,0.6263,0.6263,0.6317,0.6317,0.6317,0.7289,0.7777,0.783,0.8784,0.9211,0.9211,0.9211,0.9211,0.9239,0.9384,1.0275,1.1379,1.1226,1.1647,1.2475,-0.2599,-0.3676,-0.4577,0.0,-0.5362,-0.6059,0.0,0.0,0.0,0.0,-0.73,-0.7723,-0.8461,-0.9228,-1.0005,-1.0685,-1.1292,0.0,0.0,0.0,0.0,-1.2384,-1.3006,-1.3494,-1.3789,-1.3128,0.0,-1.2826,-1.1939,-1.1505,-1.1426,-1.164,-1.1469,-1.1047,-0.9738,-0.89,-0.8299,-0.6378,-0.5009,-0.4099,-0.3826,-0.3695,0.0,0.0,-0.3432,-0.2943,-0.1239,-0.0375,-0.0,-0.0,0.1008,0.2462,0.353,0.3916,0.4021,0.4353,0.4411,0.4408,0.4463,0.4519,0.4574,0.4574,0.4632,0.4677,0.0,0.0,0.0,0.0,0.0,0.0,0.0,0.0,0.0,0.4901,0.55,0.6154,0.6756,0.0,0.0,0.6192,0.0,0.0,0.0,0.0,0.0,0.0,0.0,0.0,0.0,0.0,0.0,0.7085,0.7031,0.6977,0.6977,0.7182,0.7289,0.7343,0.7664,0.783,0.783,0.8302,0.8514,0.8567,0.8995,0.9211,0.9211,0.9211,0.9413,0.9851,1.0234,1.1215,1.2534,1.2999,1.3166,1.3205,-0.3526,-0.4477,0.0,-0.5538,0.0,0.0,-0.6923,0.0,0.0,-0.7717,-0.761,0.0,-0.9124,-0.9894,-1.0669,-1.1501,-1.2049,0.0,-1.2335,0.0,0.0,-1.314,-1.3862,-1.434,-1.4593,-1.3961,0.0,-1.3436,-1.2672,-1.2242,-1.2139,-1.2072,-1.1792,-1.1247,-1.0099,-0.9114,-0.8253,-0.6537,-0.5248,-0.4275,-0.4275,0.0,0.0,-0.3919,-0.3893,-0.3625,-0.2412,-0.1144,-0.0,-0.0,0.0784,0.2014,0.3365,0.3811,0.3913,0.4245,0.4353,0.4298,0.4463,0.4519,0.4519,0.4519,0.4574,0.4577,0.4519,0.4349,0.4184,0.0,0.0,0.0,0.0,0.0,0.0,0.4956,0.5882,0.6701,0.0,0.0,0.0,0.0,0.6637,0.0,0.0,0.0,0.0,0.0,0.0,0.0,0.0,0.0,0.0,0.0,0.7246,0.7354,0.7456,0.7664,0.7877,0.799,0.8262,0.8421,0.8427,0.8732,0.889,0.889,0.9256,0.9517,0.9725,0.9725,1.0164,1.0918,1.1693,1.2573,1.3459,1.4114,1.4063,1.3669,-0.4711,-0.54,0.0,0.0,0.0,0.0,0.0,-0.7133,0.0,-0.8666,0.0,-0.8593,-0.9879,-1.0618,-1.1451,-1.2501,0.0,-1.2909,-1.2909,-1.3836,-1.4176,-1.3721,-1.4663,-1.5187,-1.5187,-1.4719,-1.4317,0.0,-1.3324,-1.2903,-1.2725,-1.242,-1.1845,-1.0992,-1.0435,-0.9268,0.0,-0.6573,-0.5729,-0.5039,-0.5039,-0.4691,-0.416,-0.4299,-0.4204,-0.4025,-0.4048,-0.2471,-0.0431,-0.0111,0.0784,0.2015,0.32,0.3591,0.3694,0.4082,0.4135,0.4079,0.4408,0.4519,0.4519,0.4519,0.4519,0.4519,0.4519,0.4073,0.3849,0.4405,0.4073,0.0,0.0,0.0,0.0,0.5289,0.0,0.0,0.0,0.0,0.0,0.0,0.0,0.0,0.0,0.0,0.0,0.0,0.0,0.0,0.0,0.0,0.0,0.0,0.7521,0.0,0.7979,0.0,0.8268,0.8532,0.8652,0.8633,0.8633,0.8956,0.9166,0.9211,0.9562,1.0028,1.0549,1.0549,1.1146,1.2175,1.3331,1.3923,1.4273,1.4843,1.462,1.4086,-0.5093,0.0,0.0,0.0,0.0,-0.7456,-0.8455,-0.8031,-0.8025,-0.9325,-0.9377,-0.9784,-1.1007,-1.1715,-1.2267,-1.257,-1.3122,0.0,0.0,0.0,0.0,-1.4269,-1.5175,-1.5668,-1.5668,-1.343,-1.2866,0.0,-1.1659,-1.1253,-1.2787,-1.2822,-1.2589,-1.2076,-1.0967,-0.9266,-0.7191,-0.6639,0.0,-0.5784,-0.5784,-0.543,-0.4916,-0.4948,-0.463,-0.4161,-0.4141,-0.3633,-0.2672,-0.0671,0.0784,0.2015,0.32,0.3699,0.3799,0.4135,0.4193,0.4193,0.4463,0.4519,0.4519,0.4519,0.4519,0.4519,0.4519,0.4405,0.4349,0.446,0.4405,0.4349,0.4463,0.0,0.0,0.0,0.0,0.0,0.0,0.0,0.0,0.0,0.0,0.0,0.0,0.0,0.0,0.0,0.0,0.0,0.0,0.0,0.0,0.0,0.0,0.0,0.0,0.0,0.0,0.9207,0.9866,0.9999,0.9732,0.9792,1.0035,1.0312,1.0415,1.072,1.1225,1.1225,1.1947,1.3113,1.3739,1.4494,1.5177,1.5294,1.5264,1.5051,0.0,0.0,0.0,0.0,0.0,0.0,0.0,-0.9183,0.0,-0.9969,-0.9997,-1.0493,-1.1683,-1.2178,-1.257,-1.2967,-1.3647,-1.3999,-1.3999,-1.472,-1.513,-1.513,-1.58,0.0,-1.5745,-1.4737,-1.401,-1.3631,-1.3023,-1.2747,-1.2903,-1.3375,-1.3186,-1.2453,-1.0677,-0.9229,0.0,0.0,0.0,-0.6221,-0.6269,-0.5739,-0.4889,-0.4889,-0.445,-0.3855,-0.3752,-0.3363,-0.2749,-0.2077,-0.0224,0.2015,0.32,0.3644,0.3747,0.391,0.3965,0.4021,0.4301,0.4356,0.4356,0.4463,0.4519,0.4519,0.4519,0.4519,0.4519,0.4519,0.4519,0.4629,0.5014,0.5344,0.0,0.0,0.0,0.0,0.0,0.0,0.0,0.0,0.0,0.0,0.0,0.0,0.0,0.0,0.0,0.0,0.0,0.0,0.0,0.0,0.0,0.0,0.0,0.0,0.0,0.9969,1.0335,1.0419,1.0265,1.0265,1.0454,1.0787,1.0787,1.1225,1.199,1.2633,1.3208,1.3793,1.4508,1.5049,1.541,1.541,1.5584,1.5776,0.0,-0.6322,0.0,0.0,-0.8125,0.0,-0.9791,-1.0431,-1.0753,-1.0753,-1.0771,-1.1157,-1.2255,-1.2579,-1.2909,-1.3505,-1.4129,-1.4512,-1.4558,-1.5344,-1.5788,-1.5788,-1.625,-1.6308,-1.5881,-1.5844,-1.5093,0.0,-1.4329,-1.4216,-1.3341,-1.3817,-1.3498,0.0,0.0,0.0,0.0,0.0,-0.7488,-0.6652,-0.6756,-0.605,-0.4908,-0.4908,-0.4349,-0.3572,-0.3297,-0.2796,-0.2296,-0.2133,-0.0336,0.2015,0.3198,0.3591,0.3638,0.3744,0.3796,0.3852,0.4138,0.4193,0.4249,0.4463,0.4519,0.4519,0.4519,0.4519,0.4519,0.4519,0.4574,0.4901,0.5618,0.5837,0.0,0.0,0.0,0.0,0.0,0.0,0.0,0.0,0.0,0.0,0.0,0.0,0.0,0.0,0.0,0.0,0.0,0.0,0.0,0.0,0.0,0.0,1.0179,0.0,1.0375,0.0,1.0656,1.0624,1.0573,1.0667,1.0913,1.1191,1.1292,1.1886,1.285,1.3814,1.4271,1.439,1.5123,1.5448,1.5536,1.5642,1.5979,1.6301,0.0,0.0,0.0,0.0,0.0,0.0,0.0,-1.156,-1.1918,-1.1918,-1.1918,-1.2215,-1.2929,-1.3392,-1.381,-1.4082,-1.4582,-1.4915,-1.5017,-1.5534,-1.5788,-1.5788,-1.625,-1.6497,-1.6446,-1.45,-1.3951,0.0,0.0,-1.3094,0.0,-1.41,0.0,0.0,0.0,0.0,0.0,-0.8486,-0.7798,-0.7413,-0.7408,-0.6652,-0.5513,-0.5513,-0.4736,-0.3514,-0.2959,-0.2685,-0.2073,0.1684,0.2415,0.2014,0.319,0.3585,0.3638,0.3744,0.3796,0.3852,0.4138,0.4193,0.4249,0.4463,0.4519,0.4519,0.4519,0.4519,0.4519,0.4519,0.4897,0.5445,0.6164,0.6652,0.6864,0.0,0.0,0.0,0.0,0.0,0.0,0.0,0.0,0.0,0.0,0.0,0.0,0.0,0.0,0.0,0.0,0.0,0.0,0.0,0.0,0.9963,1.0693,1.1019,0.0,1.0754,1.1071,1.1124,1.0871,1.1226,1.1601,1.1922,1.2267,1.3037,1.3932,1.3963,1.4425,1.518,1.526,1.5542,1.5904,1.6503,1.6616,1.6564,0.0,0.0,0.0,0.0,0.0,0.0,0.0,-1.1968,-1.2403,-1.3016,-1.29,-1.2958,-1.3573,-1.3894,-1.4222,-1.4686,-1.5175,-1.5433,-1.5534,-1.5976,-1.6194,-1.6194,-1.638,-1.6358,-1.6032,-1.5492,-1.494,0.0,0.0,-1.4205,-1.4186,-1.4239,0.0,0.0,0.0,-0.9841,-0.9569,-0.8817,-0.7998,-0.7133,-0.7246,-0.6431,-0.512,-0.4783,-0.4009,-0.3014,-0.2516,-0.1902,-0.1008,0.1231,0.2354,0.2972,0.3471,0.3585,0.3638,0.3635,0.3744,0.3852,0.4024,0.4138,0.4249,0.4463,0.4519,0.4519,0.4519,0.4519,0.4519,0.4519,0.5226,0.6046,0.6804,0.7025,0.7192,0.0,0.0,0.0,0.0,0.0,0.0,0.0,0.0,0.8949,0.0,0.0,0.0,0.0,0.0,0.0,0.0,0.0,0.0,1.0446,0.0,1.0775,1.1077,1.1497,1.1598,1.1482,1.1589,1.1719,1.1877,1.1778,1.2049,1.2609,1.3016,1.3518,1.4124,1.4338,1.4773,1.5315,1.5588,1.5961,1.6446,1.6719,1.7213,1.7632,-0.929,0.0,-0.9974,0.0,-1.0998,-1.1449,-1.2403,-1.2735,-1.315,-1.3909,-1.38,-1.3763,-1.4107,-1.4387,-1.472,-1.5142,-1.5668,-1.5976,-1.6008,-1.6337,-1.6522,-1.6522,-1.6522,0.0,-1.5944,-1.6321,-1.5952,-1.4821,-1.5483,0.0,0.0,0.0,0.0,0.0,-1.1074,-1.0226,-0.9666,-0.9113,-0.815,-0.7015,-0.7079,-0.6209,-0.4842,-0.4229,-0.3453,-0.2625,-0.2238,-0.1175,0.0112,0.0951,0.2294,0.3593,0.3585,0.3585,0.3585,0.3585,0.3691,0.3852,0.3965,0.4079,0.4249,0.4463,0.4519,0.4519,0.4519,0.4519,0.4625,0.5007,0.5878,0.6799,0.7503,0.7563,0.7622,0.0,0.0,0.0,0.0,0.0,0.0,0.0,0.9159,0.9159,0.9562,0.0,0.0,0.0,0.0,0.0,0.0,0.0,0.0,0.0,0.0,0.0,0.0,0.0,1.2107,1.2157,1.2255,1.2412,1.2715,1.255,1.2832,1.3399,1.361,1.4098,1.4713,1.48,1.5275,1.5887,1.6162,1.656,1.6989,1.7324,1.7929,1.8431,-1.0281,-1.1074,-1.1828,-1.2382,-1.2997,-1.3409,-1.3563,-1.4107,-1.4457,-1.4503,-1.4709,-1.4801,-1.4503,-1.5017,-1.5389,-1.5389,-1.6032,-1.6436,-1.6479,-1.6522,-1.6522,0.0,0.0,-1.6522,-1.6509,-1.6522,-1.6509,-1.6454,0.0,0.0,-1.5332,0.0,0.0,-1.1877,-1.1108,-1.049,-0.9961,-0.9263,-0.8362,-0.7289,-0.7133,-0.6209,-0.4842,-0.4229,-0.3453,-0.2625,-0.2238,-0.0839,0.1009,0.1792,0.2742,0.3585,0.3585,0.3585,0.3585,0.3585,0.3691,0.3852,0.3965,0.4079,0.4249,0.4463,0.4519,0.4519,0.4519,0.4519,0.4842,0.614,0.6956,0.7652,0.8262,0.8368,0.8209,0.7777,0.0,0.0,0.0,0.0,0.0,0.0,0.9008,0.9061,0.9211,0.0,0.0,0.0,0.0,0.0,0.0,0.0,0.0,1.0871,1.071,0.0,1.1877,1.2236,1.2511,1.2764,1.3064,1.317,1.3218,1.3589,1.4025,1.4373,1.4114,1.4812,1.6126,1.5341,1.5881,1.7191,1.7202,1.7202,1.7313,1.8536,1.8922,1.8713,-1.1642,-1.1909,-1.2224,-1.2578,-1.3045,-1.3467,-1.3563,-1.4201,-1.4744,-1.5062,-1.5332,-1.5567,-1.5788,-1.57,-1.5788,0.0,-1.6349,-1.6479,0.0,-1.6522,-1.6522,-1.6522,-1.6522,-1.6522,-1.6522,-1.6522,-1.6479,-1.6436,0.0,0.0,0.0,-1.3382,-1.2412,-1.141,-1.1006,-1.0285,-0.9413,-0.8666,-0.7925,-0.7133,-0.6642,-0.5828,-0.4787,-0.3785,-0.3121,-0.2569,-0.1624,-0.0448,0.0953,0.2579,0.3309,0.3694,0.4079,0.3913,0.3638,0.3691,0.3855,0.3965,0.4079,0.4245,0.4408,0.4463,0.4519,0.4519,0.4632,0.5011,0.5769,0.7015,0.7385,0.7711,0.8415,0.8474,0.8368,0.8309,0.0,0.0,0.0,0.0,0.0,0.0,1.032,1.0525,0.0,1.0947,0.0,0.0,0.0,0.0,0.0,0.0,0.0,0.0,1.2039,0.0,1.253,1.3054,1.3379,1.3484,1.3589,1.3803,1.4104,1.4516,1.4768,1.4897,1.5448,1.5946,1.6389,1.6741,1.7379,1.8081,1.7961,1.819,1.8531,1.845,1.8651,1.887,-1.2471,-1.2421,-1.2431,-1.2676,-1.3286,-1.3789,-1.3847,-1.4663,-1.5355,-1.5668,-1.5888,-1.6163,-1.6392,-1.6207,0.0,-1.6436,-1.6479,-1.6522,-1.6522,-1.6522,-1.6522,-1.6522,-1.6522,-1.6522,-1.6522,0.0,0.0,-1.6392,-1.5812,-1.5085,-1.428,-1.3467,-1.254,-1.1484,-1.104,-1.0277,-0.9204,-0.8448,-0.7765,-0.7133,-0.6426,-0.5609,-0.4787,-0.3511,-0.2901,-0.2569,-0.1344,-0.0168,0.1064,0.2298,0.3137,0.3694,0.4349,0.4294,0.4021,0.4132,0.4294,0.446,0.4515,0.4515,0.4629,0.5007,0.5007,0.4952,0.534,0.5991,0.675,0.761,0.7877,0.8143,0.8732,0.8738,0.8633,0.8738,0.0,0.8942,0.0,0.0,0.0,0.0,0.0,0.0,0.0,1.161,0.0,0.0,0.0,0.0,0.0,0.0,0.0,1.2598,1.2774,0.0,1.315,1.3732,1.4071,1.4165,1.4443,1.4923,1.5581,1.58,1.6007,1.6164,1.6648,1.7079,1.7428,1.771,1.8211,1.8821,1.8512,1.8598,1.8885,1.8607,1.8747,1.9019,-1.2813,-1.2715,0.0,0.0,-1.3658,0.0,-1.4387,-1.5412,-1.62,-1.62,-1.6392,-1.6522,-1.6522,-1.6522,-1.6479,-1.6392,0.0,0.0,0.0,-1.6522,-1.6522,-1.6522,-1.6522,0.0,-1.6522,-1.6522,-1.6479,-1.6392,-1.5712,-1.5311,-1.5108,-1.4201,-1.3188,-1.2012,-1.1316,-1.0415,-0.9309,-0.8448,-0.7706,-0.7128,-0.6213,-0.5449,-0.4677,-0.3347,-0.2738,-0.2514,-0.1232,0.0112,0.1285,0.1397,0.246,0.3802,0.4508,0.478,0.4838,0.4794,0.4952,0.5164,0.5164,0.4893,0.4901,0.5937,0.5928,0.5814,0.6529,0.7235,0.7777,0.7925,0.8474,0.8962,0.9211,0.9159,0.9106,0.9061,0.9211,0.9413,0.9762,0.0,0.0,0.0,0.0,0.0,0.0,1.19,1.2255,0.0,0.0,0.0,0.0,0.0,0.0,1.2909,1.3064,1.3351,1.3873,1.4269,1.4581,1.4845,1.5565,1.6466,1.7374,1.7374,1.7618,1.7955,1.7751,1.824,1.9069,1.8307,1.8609,1.9426,1.8881,1.8634,1.8684,1.9057,1.9228,1.9202,0.0,0.0,-1.3542,-1.3647,-1.4351,-1.496,-1.504,-1.5724,-1.6231,-1.6362,-1.6436,-1.6522,-1.6522,-1.6522,-1.6479,-1.6479,-1.6479,-1.6522,-1.6522,-1.6522,-1.6522,-1.6522,-1.6522,-1.6522,-1.6522,-1.6436,-1.6362,-1.6231,-1.5501,-1.5187,-1.522,-1.4165,-1.3266,-1.256,-1.1466,-1.0356,-0.9183,-0.7972,-0.7015,-0.6213,-0.5058,-0.4401,-0.3904,-0.2683,-0.2238,-0.2014,-0.0336,0.0448,0.1005,0.2516,0.3685,0.4563,0.5105,0.5814,0.6308,0.5819,0.5764,0.5819,0.5932,0.5928,0.6036,0.6308,0.6519,0.6843,0.7343,0.7711,0.8137,0.8633,0.9204,0.9614,0.9762,0.9961,1.0012,0.9814,0.9969,1.0115,1.0115,0.0,0.0,0.0,1.2374,1.2716,1.2764,1.2871,1.288,0.0,0.0,0.0,0.0,0.0,1.3789,1.4035,1.4222,1.4362,1.4512,1.4789,1.5337,1.6079,1.6267,1.7039,1.8289,1.8289,1.8338,1.8462,1.9108,1.9346,1.9291,1.9798,2.0155,2.0372,2.0142,2.0053,1.9989,1.9504,1.9309,1.9252,-1.3668,-1.3742,-1.3826,-1.3967,-1.4582,-1.5142,-1.5266,-1.5824,-1.6318,-1.6637,-1.6552,-1.6565,-1.682,-1.665,-1.6607,-1.682,-1.6595,-1.6522,-1.6522,-1.6693,-1.682,-1.682,-1.682,-1.682,-1.682,-1.6522,-1.6306,-1.61,-1.5792,-1.5468,-1.5187,-1.4329,-1.3484,-1.2667,-1.1199,-1.0041,-0.9072,-0.7492,-0.6367,-0.5605,-0.4453,-0.3907,-0.3522,-0.2012,-0.1398,-0.1229,0.0336,0.1174,0.1673,0.3123,0.4067,0.4889,0.5814,0.647,0.6961,0.7219,0.6897,0.6529,0.674,0.6632,0.6622,0.7052,0.7641,0.8237,0.8508,0.8915,0.9377,0.9755,1.0167,1.0517,1.0864,1.0864,1.0864,1.0813,1.0914,1.0965,1.1116,1.1953,0.0,1.2832,1.3266,1.3637,1.3862,1.3721,1.3732,1.3956,0.0,0.0,1.4893,1.4786,1.472,1.4823,1.4915,1.5211,1.5752,1.598,1.6626,1.7627,1.7382,1.8064,1.9571,1.9095,1.9081,1.9471,1.9793,1.9817,1.9742,2.0647,2.0898,2.0723,2.0823,2.0716,2.0483,2.0247,2.0146,2.0139,-1.4067,-1.4035,-1.4061,-1.4201,-1.4777,-1.5244,-1.5412,-1.5824,-1.6349,-1.6824,-1.668,-1.665,-1.7031,-1.682,-1.6735,-1.7073,-1.6778,-1.6607,-1.6607,-1.7031,-1.724,-1.7115,-1.7157,-1.7157,-1.7115,-1.665,-1.6262,-1.5901,-1.6001,-1.5691,-1.496,-1.4411,-1.3548,-1.2404,-1.0738,-0.957,-0.8797,-0.695,-0.5764,-0.4988,-0.4122,-0.3522,-0.2963,-0.1174,-0.0335,-0.0056,0.1117,0.2066,0.2847,0.3558,0.4333,0.5164,0.647,0.7015,0.7337,0.8508,0.819,0.7503,0.7711,0.7379,0.7208,0.8224,0.9026,0.9658,0.9909,1.0415,1.0855,1.1007,1.1258,1.1607,1.211,1.1963,1.1814,1.1963,1.1963,1.2012,1.2395,0.0,1.3521,1.3789,1.4071,1.4387,1.4744,1.4514,1.4606,1.5344,1.5142,0.0,0.0,1.6063,1.5725,1.5804,1.5643,1.6071,1.721,1.7426,1.8067,1.9116,1.8659,1.9265,2.0832,1.9889,1.9821,2.0495,2.0214,2.012,2.0301,2.107,2.1143,2.0811,2.1167,2.099,2.0639,2.1087,2.131,2.1426,-1.4477,-1.4743,-1.496,-1.5232,-1.5513,-1.5736,-1.5856,-1.5988,-1.612,-1.6436,-1.6436,-1.6479,-1.6607,-1.6905,-1.6934,-1.665,-1.6892,-1.7073,-1.7073,-1.7475,-1.7393,-1.665,-1.6989,-1.7031,-1.6607,-1.6479,-1.612,-1.5478,-1.5445,-1.5107,-1.44,-1.3815,-1.2928,-1.1809,-1.0527,-0.9082,-0.7446,-0.6573,-0.5386,-0.4015,-0.3747,-0.2627,-0.1005,0.0168,0.1064,0.1789,0.2402,0.3188,0.4033,0.4673,0.5382,0.6095,0.6691,0.7503,0.8309,0.8922,0.919,0.9197,0.8995,0.8784,0.8883,0.9946,1.0407,1.0762,1.1481,1.1778,1.1975,1.1975,1.2376,1.2773,1.2976,1.315,1.3208,1.3024,1.315,1.3341,0.0,0.0,1.4595,1.4915,1.5107,1.5197,1.5287,1.5242,1.5242,1.5389,1.5994,1.6544,1.6913,1.7319,1.7716,1.8226,1.7256,1.7177,1.8109,1.8375,1.8929,1.983,1.9738,2.0245,2.1299,2.0852,2.0593,2.0541,2.1004,2.1063,2.0818,2.1147,2.1248,2.1125,2.1209,2.1167,2.1178,2.1713,2.2218,2.2624,-1.3941,-1.4305,-1.4674,-1.4994,-1.5457,-1.5881,-1.61,-1.61,-1.6262,-1.6778,-1.6607,-1.6565,-1.6863,-1.685,-1.6863,-1.6863,-1.7394,-1.7733,-1.7733,-1.7571,-1.731,-1.6892,-1.7073,-1.6808,-1.6032,-1.5976,-1.5611,-1.4903,-1.488,-1.456,-1.3909,-1.3246,-1.2453,-1.149,-1.0084,-0.8783,-0.7511,-0.6185,-0.5003,-0.3968,-0.3246,-0.1621,0.0504,0.151,0.2462,0.3304,0.363,0.4187,0.4908,0.5546,0.6253,0.6961,0.796,0.8547,0.9131,0.9997,1.0254,1.0218,1.0115,1.0261,1.0618,1.1116,1.1548,1.1984,1.2376,1.2764,1.311,1.328,1.381,1.4286,1.4687,1.4755,1.4721,1.4744,1.4755,0.0,0.0,1.5207,1.5632,1.5543,1.5676,1.5864,1.6095,1.6188,1.6504,1.7265,1.7752,1.8346,1.9176,1.9163,1.9533,2.0508,1.9515,1.9114,1.9321,1.9884,2.0502,2.123,2.0384,2.0657,2.1863,2.0915,2.0497,2.0415,2.0813,2.0784,2.0415,2.0997,2.1069,2.0868,2.1354,2.1599,2.1728,2.2236,2.2776,2.3349,-1.3647,-1.3978,-1.434,-1.4709,-1.5322,-1.5792,-1.6013,-1.6219,-1.6552,-1.7089,-1.7034,-1.7034,-1.7269,-1.7047,-1.6909,-1.7031,-1.7773,-1.8168,-1.8064,-1.7598,-1.738,-1.753,-1.738,-1.6837,-1.5812,-1.5644,-1.5231,-1.4536,-1.4422,-1.3956,-1.3238,-1.2618,-1.1814,-1.0805,-0.954,-0.833,-0.7197,-0.5977,-0.4787,-0.3691,-0.2406,-0.0559,0.1623,0.2736,0.3744,0.4532,0.4952,0.5425,0.6013,0.6876,0.767,0.8449,0.9459,0.9974,1.0359,1.129,1.1639,1.1679,1.1299,1.1607,1.2043,1.2288,1.2715,1.3148,1.3396,1.3878,1.44,1.471,1.5207,1.5752,1.6232,1.6145,1.6058,1.6232,0.0,0.0,0.0,1.6459,1.6714,1.6459,1.6617,1.6828,1.7118,1.7363,1.7989,1.9086,1.9489,2.0147,2.1248,2.0937,2.1161,2.2095,2.1541,2.1075,2.0825,2.1485,2.2085,2.2498,2.1334,2.1398,2.2509,2.1168,2.0575,2.0524,2.0702,2.0531,2.0162,2.0897,2.0944,2.0674,2.1332,2.1789,2.2152,2.2772,2.3471,2.4236,-1.4512,-1.4605,-1.4743,-1.5017,-1.5334,-1.5513,-1.5558,-1.6299,-1.6912,-1.7066,-1.7773,-1.8064,-1.7544,-1.784,-1.7666,-1.6637,-1.7558,-1.8025,-1.7666,-1.7585,-1.7894,-1.8569,-1.7933,-1.7188,-1.6349,-1.5864,-1.532,-1.4709,-1.4143,-1.3304,-1.2224,-1.1733,-1.0754,-0.9332,-0.8974,-0.7581,-0.5529,-0.6119,-0.4904,-0.2408,-0.1062,0.0501,0.2223,0.3956,0.4904,0.5386,0.6597,0.7259,0.781,0.9106,1.0245,1.1086,1.0939,1.1626,1.2484,1.2648,1.3564,1.4207,1.285,1.2561,1.284,1.3716,1.3961,1.425,1.5119,1.5644,1.5971,1.6126,1.6514,1.6896,1.6951,1.6909,1.6854,1.6756,0.0,0.0,1.7531,1.7666,1.7867,1.833,1.8472,1.8511,1.8461,1.9007,1.9494,1.9712,2.0741,2.1513,2.1888,2.2203,2.2366,2.2466,2.2651,2.2727,2.2682,2.301,2.3172,2.3216,2.3128,2.3113,2.3201,2.2152,2.1525,2.1237,2.1243,2.1007,2.0662,2.097,2.1038,2.0993,2.1031,2.144,2.2167,2.3466,2.4726,2.5834,-1.3836,-1.3941,-1.4176,-1.4766,-1.5187,-1.5513,-1.5768,-1.6163,-1.6497,-1.6655,-1.698,-1.7133,-1.6909,-1.698,-1.6896,-1.6479,-1.7639,-1.8324,-1.8182,-1.8646,-1.844,-1.7368,-1.7063,-1.6655,-1.602,-1.5478,-1.5017,-1.4698,-1.38,-1.3238,-1.2987,-1.2098,-1.0746,-0.9009,-0.8462,-0.7095,-0.5124,-0.4904,-0.3109,-0.0222,0.0947,0.289,0.5105,0.6073,0.6598,0.7026,0.7945,0.8761,0.9621,1.0565,1.1465,1.2214,1.2847,1.3403,1.4006,1.4879,1.575,1.6296,1.575,1.5236,1.4947,1.5327,1.5363,1.552,1.6256,1.6312,1.6386,1.6967,1.7558,1.7985,1.8182,1.844,1.8593,1.8527,0.0,1.8579,1.8707,1.8722,1.875,1.8841,1.9161,1.9405,1.9508,2.0258,2.1013,2.1654,2.2256,2.276,2.3275,2.3445,2.358,2.3794,2.3879,2.3623,2.2889,2.3392,2.3625,2.361,2.2977,2.2912,2.3273,2.2309,2.1674,2.1288,2.1305,2.0967,2.0462,2.0569,2.0584,2.0548,2.0462,2.1096,2.2163,2.3051,2.421,2.5515,-1.4122,-1.3967,-1.4118,-1.5005,-1.5421,-1.5788,-1.6126,-1.6714,-1.7175,-1.7258,-1.7531,-1.7653,-1.7409,-1.7368,-1.7299,-1.7105,-1.8168,-1.8858,-1.8858,-1.9207,-1.8745,-1.7258,-1.7409,-1.7107,-1.6275,-1.5696,-1.5219,-1.4903,-1.3905,-1.3382,-1.3314,-1.1787,-1.0434,-0.9266,-0.7941,-0.6519,-0.4974,-0.3214,-0.0605,0.2475,0.3871,0.5968,0.8293,0.8115,0.8423,0.9123,1.0073,1.1011,1.1907,1.2859,1.3704,1.4485,1.5087,1.5468,1.5886,1.6935,1.7624,1.799,1.806,1.7784,1.737,1.6946,1.6905,1.7083,1.7464,1.7424,1.7505,1.8115,1.8655,1.9119,1.9353,1.9621,1.9763,1.9713,1.9728,1.9692,1.9656,1.9636,1.969,1.9833,2.0221,2.0593,2.091,2.1672,2.2434,2.317,2.3526,2.3931,2.4486,2.4583,2.4704,2.4855,2.4855,2.4461,2.3679,2.3937,2.4078,2.4162,2.3383,2.3295,2.3794,2.2862,2.2309,2.2092,2.1528,2.108,2.0682,2.0416,2.0497,2.0836,2.0969,2.1921,2.3288,2.4024,2.5091,2.6308,-1.5704,-1.5005,-1.4777,-1.5896,-1.612,-1.6268,-1.6536,-1.8076,-1.9148,-1.92,-1.9859,-2.01,-1.9383,-1.9419,-1.9222,-1.8555,-1.9192,-1.9641,-1.9728,-1.9082,-1.8745,-1.8745,-1.9353,-1.8919,-1.7341,-1.6767,-1.6083,-1.5312,-1.4398,-1.3532,-1.2754,-1.0314,-0.9555,-1.0053,-0.7382,-0.58,-0.4971,-0.1147,0.2392,0.5716,0.7664,0.9747,1.1532,1.0105,1.0314,1.1554,1.3233,1.4193,1.484,1.6178,1.7451,1.8369,1.7649,1.7843,1.8356,1.8639,1.9002,1.9379,1.9572,1.9928,1.9924,1.8612,1.8569,1.8825,1.8796,1.9154,1.9536,1.9587,1.9963,2.0314,2.0314,2.0261,2.0158,2.0028,1.9954,2.0019,2.0376,2.041,2.0743,2.1638,2.1837,2.2157,2.2765,2.3421,2.3853,2.3913,2.4461,2.4997,2.5368,2.5652,2.5672,2.5406,2.5406,2.5406,2.5406,2.4895,2.4751,2.5005,2.4766,2.4751,2.4974,2.4045,2.3716,2.3796,2.2077,2.143,2.1561,2.0667,2.0949,2.1988,2.2722,2.4072,2.5735,2.6748,2.7833,2.8838,-1.5005,-1.4593,-1.4558,-1.504,-1.5119,-1.5242,-1.5511,-1.6188,-1.6886,-1.745,-1.8394,-1.9099,-1.9411,-1.9886,-2.0131,-1.9908,-2.0564,-2.1306,-2.1987,-2.1829,-2.1695,-2.1653,-1.8913,-1.7162,-1.6655,-1.4642,-1.4224,-1.5513,-1.1646,-1.0573,-1.1972,-0.9307,-0.7828,-0.7224,-0.4445,-0.086,0.3145,0.3159,0.5982,1.0454,1.1787,1.2453,1.2627,1.2759,1.3647,1.4904,1.5664,1.6393,1.7194,1.8167,1.8841,1.9306,1.958,2.0069,2.0526,2.0412,2.0845,2.1292,2.1063,2.1175,2.1116,2.0035,1.9566,1.9506,2.0149,2.0149,2.0149,2.0751,2.0957,2.1069,2.1069,2.115,2.1166,2.1119,2.1119,2.1375,2.2241,2.2228,2.2506,2.3423,2.3852,2.4144,2.439,2.4903,2.5289,2.5435,2.5611,2.5689,2.5672,2.5908,2.598,2.5872,2.5872,2.5961,2.6085,2.5497,2.5291,2.554,2.5503,2.5486,2.5561,2.4774,2.4358,2.42,2.3409,2.2937,2.2799,2.2762,2.3255,2.4009,2.4135,2.5131,2.6591,2.7316,2.8084,2.8897,-1.7101,-1.6609,-1.6569,-1.7128,-1.7167,-1.7246,-1.7518,-1.7951,-1.8476,-1.8989,-1.9608,-2.0194,-2.0632,-2.1056,-2.1311,-2.136,-2.1833,-2.2235,-2.2484,-1.9561,-1.8825,-2.1074,-1.3121,-1.0995,-1.6036,-0.9935,-0.8704,-1.2933,-0.8153,-0.6479,-0.7689,-0.8018,-0.652,-0.3456,0.0567,0.5176,0.9857,0.9524,1.1432,1.4664,1.4992,1.5109,1.5205,1.5657,1.6599,1.7698,1.8081,1.8672,1.9364,2.0156,2.0528,2.0779,2.1328,2.1735,2.199,2.1922,2.2187,2.2479,2.2241,2.2265,2.219,2.1641,2.1081,2.0846,2.1357,2.1368,2.1365,2.1849,2.1945,2.195,2.195,2.2269,2.2392,2.2032,2.2233,2.2643,2.3287,2.3262,2.3604,2.476,2.5108,2.538,2.5698,2.5909,2.6104,2.621,2.6315,2.6467,2.6662,2.6621,2.6774,2.7274,2.7059,2.6943,2.7045,2.6997,2.6651,2.6052,2.598,2.598,2.6052,2.5832,2.5711,2.5622,2.5234,2.5001,2.4898,2.4428,2.4762,2.5511,2.5459,2.6374,2.7881,2.8378,2.9081,2.984,-2.0246,-1.9601,-1.9425,-2.0577,-2.0709,-2.0743,-2.1113,-2.1627,-2.2111,-2.2345,-2.2365,-2.2352,-2.2392,-2.246,-2.2504,-2.2483,-2.2598,-2.2421,-2.1846,-1.4928,-1.319,-1.8438,-0.5309,-0.3474,-1.5494,-0.3756,-0.0848,-0.7652,-0.344,-0.1153,-0.0805,-0.518,-0.4372,0.0975,0.6866,1.1646,1.5449,1.6716,1.7676,1.8231,1.7513,1.78,1.8697,1.8693,1.9238,2.0067,2.0495,2.0915,2.1358,2.2058,2.2384,2.2531,2.2904,2.2988,2.2951,2.3129,2.3165,2.3147,2.3218,2.3171,2.3124,2.3241,2.2912,2.2548,2.2512,2.2721,2.288,2.2905,2.2905,2.2923,2.2993,2.3536,2.372,2.2989,2.3421,2.385,2.3908,2.3898,2.4431,2.5859,2.5925,2.6138,2.6773,2.6657,2.6556,2.6556,2.6791,2.7296,2.8083,2.7661,2.7954,2.9195,2.8629,2.8268,2.8203,2.9093,2.8528,2.6588,2.6447,2.6516,2.6705,2.7183,2.7484,2.7629,2.7321,2.7304,2.7334,2.5826,2.5813,2.6775,2.6657,2.769,2.9261,2.9618,3.0386,3.1172,-1.6891,-1.6478,-1.6763,-1.8128,-1.8338,-1.8712,-1.9933,-1.946,-1.9564,-2.1263,-2.1219,-2.1196,-2.1662,-2.2227,-2.2102,-2.0925,-2.0895,-2.1397,-2.2483,-1.9923,-1.8842,-1.9933,-1.1139,-0.9056,-1.5207,-0.1657,0.4065,0.1225,0.542,0.6752,0.5502,0.6305,0.6317,0.5893,1.0865,1.5817,2.0406,1.9118,1.9113,1.9953,2.0362,2.0683,2.0903,2.1518,2.1996,2.2394,2.254,2.2865,2.327,2.3749,2.382,2.3749,2.3996,2.3984,2.3915,2.3951,2.4062,2.4192,2.4192,2.4044,2.3874,2.3894,2.3817,2.3656,2.3401,2.3464,2.3638,2.3783,2.3728,2.3852,2.4487,2.4532,2.454,2.4835,2.497,2.5323,2.6145,2.6224,2.6615,2.778,2.7906,2.7879,2.7966,2.7911,2.7883,2.7883,2.7939,2.8322,2.9134,2.8447,2.8663,3.007,2.9479,2.9373,2.9859,3.0279,2.9647,2.7979,2.8511,2.8785,2.8836,2.8956,2.8612,2.7945,2.8664,2.8544,2.7877,2.7708,2.8117,2.8768,2.8117,2.8459,2.9418,3.0043,3.0398,3.064,-1.8207,-1.8033,-1.8251,-1.8955,-1.9077,-1.9336,-2.0068,-1.9648,-1.9643,-2.0779,-2.0695,-2.0676,-2.0981,-2.132,-2.1167,-2.0318,-2.0411,-2.0825,-2.1607,-1.6736,-1.4076,-1.4639,-0.3479,0.1453,-0.1311,0.9055,1.0537,0.2424,1.2018,1.5139,1.2251,1.5387,1.586,1.4184,1.7,1.953,2.1702,2.1196,2.1283,2.1798,2.2534,2.2833,2.2832,2.3285,2.364,2.3867,2.3798,2.3989,2.4312,2.453,2.4517,2.4468,2.4645,2.4587,2.4506,2.4593,2.465,2.4699,2.4699,2.4587,2.4463,2.4432,2.4436,2.4323,2.393,2.3986,2.4266,2.4801,2.4857,2.506,2.5856,2.6184,2.6298,2.6184,2.6445,2.6817,2.732,2.7345,2.7677,2.8548,2.8603,2.8681,2.8933,2.8909,2.9044,2.9467,2.9503,2.9845,3.0602,2.988,3.0112,3.1583,3.106,3.0862,3.1112,3.1701,3.1339,3.0088,2.9869,2.9791,2.9793,3.0174,3.0105,2.969,3.0523,3.0368,2.9488,2.9109,2.9245,2.9603,2.8282,2.8798,3.0248,3.004,3.0413,3.1045,-2.0113,-2.0132,-2.0202,-2.0374,-2.0409,-2.0478,-2.0668,-2.0484,-2.0416,-2.0659,-2.042,-2.0209,-2.0191,-1.9829,-1.9682,-1.9855,-1.9599,-1.9121,-1.8363,-1.0518,-0.6,-0.6267,0.6364,1.2945,1.1909,1.8242,1.5958,0.4486,1.7352,2.1828,1.8448,2.1772,2.2872,2.2068,2.2722,2.258,2.1891,2.3017,2.3469,2.3494,2.408,2.4315,2.4309,2.4368,2.4536,2.474,2.4582,2.4684,2.4917,2.4936,2.4937,2.4956,2.5071,2.5023,2.4947,2.5117,2.508,2.4995,2.4995,2.5081,2.5186,2.513,2.5246,2.5247,2.4864,2.4794,2.5008,2.574,2.6032,2.64,2.7207,2.7911,2.8143,2.7526,2.7923,2.8275,2.813,2.811,2.8381,2.9095,2.9237,2.9447,2.9813,2.9911,3.0223,3.093,3.0966,3.1284,3.2035,3.1374,3.1636,3.3105,3.2609,3.2292,3.2231,3.3045,3.3045,3.2231,3.1196,3.0654,3.0617,3.1282,3.154,3.1515,3.2199,3.2062,3.1223,3.0138,2.9927,3.0131,2.8342,2.9068,3.0979,3.0174,3.0699,3.1821,-1.7432,-1.7432,-1.7831,-1.9025,-1.9233,-1.9647,-2.0935,-2.0041,-1.9663,-2.0952,-1.9942,-1.9073,-1.8946,-1.7644,-1.7235,-1.8451,-1.6192,-1.3326,-1.0066,-0.6326,-0.2259,0.2131,0.4269,0.4989,0.4124,1.0714,1.604,1.9897,2.1993,2.2771,2.2353,2.3101,2.3608,2.3853,2.4202,2.4202,2.4005,2.4404,2.453,2.4436,2.4697,2.4761,2.4724,2.4724,2.4837,2.4952,2.4994,2.5189,2.5401,2.5466,2.5485,2.5485,2.5506,2.5479,2.5403,2.5437,2.5381,2.5329,2.533,2.5882,2.6455,2.6459,2.7003,2.7537,2.7489,2.6729,2.6098,2.6206,2.6968,2.7865,2.8662,2.8901,2.9106,2.9518,2.9618,2.9611,2.9468,2.9433,2.9719,3.0506,3.1218,3.1364,3.0621,3.1235,3.1656,3.1672,3.1649,3.2001,3.2815,3.2046,3.2244,3.3715,3.3154,3.3061,3.3632,3.3924,3.3924,3.3632,3.3296,3.2922,3.2611,3.2701,3.2427,3.1864,3.2606,3.2455,3.1643,3.0796,3.0838,3.1301,2.9656,2.9668,3.0672,3.1217,3.1906,3.257,-1.671,-1.1333,-0.8659,-1.6848,-1.5101,-1.2758,-1.3295,-1.2861,-1.2448,-1.2375,-0.9044,-0.7832,-1.0894,-0.7772,-0.5683,-0.6238,-0.5142,-0.3706,-0.2045,-0.0191,0.318,0.8342,0.8954,1.0405,1.3032,1.592,1.8706,2.1443,2.2052,2.239,2.2474,2.261,2.2865,2.3217,2.351,2.3777,2.4013,2.4255,2.4331,2.4314,2.4345,2.4458,2.464,2.4673,2.4899,2.5187,2.5243,2.5336,2.545,2.5483,2.5467,2.5453,2.551,2.5494,2.5458,2.5527,2.5525,2.5503,2.5515,2.6156,2.6796,2.6776,2.7413,2.8033,2.796,2.796,2.7971,2.7933,2.83,2.8876,2.9728,2.9844,2.9921,3.0177,3.0602,3.0689,3.0066,3.0791,3.1504,3.1849,3.2139,3.237,3.2483,3.2769,3.3129,3.3561,3.358,3.373,3.4028,3.3688,3.3797,3.4442,3.4054,3.3985,3.4293,3.4363,3.4293,3.4074,3.4111,3.3865,3.3332,3.3325,3.3201,3.2966,3.3237,3.2871,3.2089,3.1498,3.16,3.1942,3.0532,3.0463,3.1267,3.2254,3.2665,3.2781]},{"header":{"parameterUnit":"m.s-1","parameterCategory":1,"la1":30.6,"la2":28.766,"lo1":-90.7593,"lo2":-88.6598,"dy":0.0162,"dx":0.0183,"nx":116,"ny":114,"refTime":"2024-04-10T06:00:00:Z","depth":0,"parameterNumber":3,"parameterNumberName":"V-component_of_WINDS"},"data":[0.0,0.0,0.0,0.0,0.0,0.0,0.0,0.0,0.0,0.0,0.0,0.0,0.0,0.0,0.0,0.0,0.0,0.0,0.0,0.0,0.0,0.0,0.0,0.0,0.0,0.0,0.0,0.0,0.0,0.0,0.0,0.0,0.0,0.0,0.0,0.0,0.0,0.0,0.0,0.0,0.0,0.0,0.0,0.0,0.0,0.0,0.0,0.0,0.0,0.0,0.0,0.0,0.0,0.0,0.0,0.0,0.0,0.0,0.0,0.0,0.0,0.0,0.0,0.0,0.0,0.0,0.0,0.0,0.0,0.0,0.0,0.0,0.0,0.0,0.0,0.0,0.0,0.0,0.0,0.0,0.0,0.0,0.0,0.0,0.0,0.0,0.0,0.0,0.0,0.0,0.0,0.0,0.0,0.0,0.0,0.0,0.0,0.0,0.0,0.0,0.0,0.0,0.0,0.0,0.0,0.0,0.0,0.0,0.0,0.0,0.0,0.0,0.0,0.0,0.0,0.0,0.0,0.0,0.0,0.0,0.0,0.0,0.0,0.0,0.0,0.0,0.0,0.0,0.0,0.0,0.0,0.0,0.0,0.0,0.0,0.0,0.0,0.0,0.0,0.0,0.0,0.0,0.0,0.0,0.0,0.0,0.0,0.0,0.0,0.0,0.0,0.0,0.0,0.0,0.0,0.0,0.0,0.0,0.0,0.0,0.0,0.0,0.0,0.0,0.0,0.0,0.0,0.0,0.0,0.0,0.0,0.0,0.0,0.0,0.0,0.0,0.0,0.0,0.0,0.0,0.0,0.0,0.0,0.0,0.0,0.0,0.0,0.0,0.0,0.0,0.0,0.0,0.0,0.0,0.0,0.0,0.0,0.0,0.0,0.0,0.0,0.0,0.0,0.0,0.0,0.0,0.0,0.0,0.0,0.0,0.0,0.0,0.0,0.0,0.0,0.0,0.0,0.0,0.0,0.0,0.0,0.0,0.0,0.0,0.0,0.0,0.0,0.0,0.0,0.0,0.0,0.0,0.0,0.0,0.0,0.0,0.0,0.0,0.0,0.0,0.0,0.0,0.0,0.0,0.0,0.0,0.0,0.0,0.0,0.0,0.0,0.0,0.0,0.0,0.0,0.0,0.0,0.0,0.0,0.0,0.0,0.0,0.0,0.0,0.0,0.0,0.0,0.0,0.0,0.0,0.0,0.0,0.0,0.0,0.0,0.0,0.0,0.0,0.0,0.0,0.0,0.0,0.0,0.0,0.0,0.0,0.0,0.0,0.0,0.0,0.0,0.0,0.0,0.0,0.0,0.0,0.0,0.0,0.0,0.0,0.0,0.0,0.0,0.0,0.0,0.0,0.0,0.0,0.0,0.0,0.0,0.0,0.0,0.0,0.0,0.0,0.0,0.0,0.0,0.0,0.0,0.0,0.0,0.0,0.0,0.0,0.0,0.0,0.0,0.0,0.0,0.0,0.0,0.0,0.0,0.0,0.0,0.0,0.0,0.0,0.0,0.0,0.0,0.0,0.0,0.0,0.0,0.0,0.0,0.0,0.0,0.0,0.0,0.0,0.0,0.0,0.0,0.0,0.0,0.0,0.0,0.0,0.0,0.0,0.0,0.0,0.0,0.0,0.0,0.0,0.0,0.0,0.0,0.0,0.0,0.0,0.0,0.0,0.0,0.0,0.0,0.0,0.0,0.0,0.0,0.0,0.0,0.0,0.0,0.0,0.0,0.0,0.0,0.0,0.0,0.0,0.0,0.0,0.0,0.0,0.0,0.0,0.0,0.0,0.0,0.0,0.0,0.0,0.0,0.0,0.0,0.0,0.0,0.0,0.0,0.0,0.0,0.0,0.0,0.0,0.0,0.0,0.0,0.0,0.0,0.0,0.0,0.0,0.0,0.0,0.0,0.0,0.0,0.0,0.0,0.0,0.0,0.0,0.0,0.0,0.0,0.0,0.0,0.0,0.0,0.0,0.0,0.0,0.0,0.0,0.0,0.0,0.0,0.0,0.0,0.0,0.0,0.0,0.0,0.0,0.0,0.0,0.0,0.0,0.0,0.0,0.0,0.0,0.0,0.0,0.0,0.0,0.0,0.0,0.0,0.0,0.0,0.0,0.0,0.0,0.0,0.0,0.0,0.0,0.0,0.0,0.0,0.0,0.0,0.0,0.0,0.0,0.0,0.0,0.0,0.0,0.0,0.0,0.0,0.0,0.0,0.0,0.0,0.0,0.0,0.0,0.0,0.0,0.0,0.0,0.0,0.0,0.0,0.0,0.0,0.0,0.0,0.0,0.0,0.0,0.0,0.0,0.0,0.0,0.0,0.0,0.0,0.0,0.0,0.0,0.0,0.0,0.0,0.0,0.0,0.0,0.0,0.0,0.0,0.0,0.0,0.0,0.0,0.0,0.0,0.0,0.0,0.0,0.0,0.0,0.0,0.0,0.0,0.0,0.0,0.0,0.0,0.0,0.0,0.0,0.0,0.0,0.0,0.0,0.0,0.0,0.0,0.0,0.0,0.0,0.0,0.0,0.0,0.0,0.0,0.0,0.0,0.0,0.0,0.0,0.0,0.0,0.0,0.0,0.0,0.0,0.0,0.0,0.0,0.0,0.0,0.0,0.0,0.0,0.0,0.0,0.0,0.0,0.0,0.0,0.0,0.0,0.0,0.0,0.0,0.0,0.0,0.0,0.0,0.0,0.0,0.0,0.0,0.0,0.0,0.0,0.0,0.0,0.0,0.0,0.0,0.0,0.0,0.0,0.0,0.0,0.0,0.0,0.0,0.0,0.0,0.0,0.0,0.0,0.0,0.0,0.0,0.0,0.0,0.0,0.0,0.0,0.0,0.0,0.0,0.0,0.0,0.0,0.0,0.0,0.0,0.0,0.0,0.0,0.0,0.0,0.0,0.0,0.0,0.0,0.0,0.0,0.0,0.0,0.0,0.0,0.0,0.0,0.0,0.0,0.0,0.0,0.0,0.0,0.0,0.0,0.0,0.0,0.0,0.0,0.0,0.0,0.0,0.0,0.0,0.0,0.0,0.0,0.0,0.0,0.0,0.0,0.0,0.0,0.0,0.0,0.0,0.0,0.0,0.0,0.0,0.0,0.0,0.0,0.0,0.0,0.0,0.0,0.0,0.0,0.0,0.0,0.0,0.0,0.0,0.0,0.0,0.0,0.0,0.0,0.0,0.0,0.0,0.0,0.0,0.0,0.0,0.0,0.0,0.0,0.0,0.0,0.0,0.0,0.0,0.0,0.0,0.0,0.0,0.0,0.0,0.0,0.0,0.0,0.0,0.0,0.0,0.0,0.0,0.0,0.0,0.0,0.0,0.0,0.0,0.0,0.0,0.0,0.0,0.0,0.0,0.0,0.0,0.0,0.0,0.0,0.0,0.0,0.0,0.0,0.0,0.0,0.0,0.0,0.0,0.0,0.0,0.0,0.0,0.0,0.0,0.0,0.0,0.0,0.0,0.0,0.0,0.0,0.0,0.0,0.0,0.0,0.0,0.0,0.0,0.0,0.0,0.0,0.0,0.0,0.0,0.0,0.0,0.0,0.0,0.0,0.0,0.0,0.0,0.0,0.0,0.0,0.0,0.0,0.0,0.0,0.0,0.0,0.0,0.0,0.0,0.0,0.0,0.0,0.0,0.0,0.0,0.0,0.0,0.0,0.0,0.0,0.0,0.0,0.0,0.0,0.0,0.0,0.0,0.0,0.0,0.0,0.0,0.0,0.0,0.0,0.0,0.0,0.0,0.0,0.0,0.0,0.0,0.0,0.0,0.0,0.0,0.0,0.0,0.0,0.0,0.0,0.0,0.0,0.0,0.0,0.0,0.0,0.0,0.0,0.0,0.0,0.0,0.0,0.0,0.0,0.0,0.0,0.0,0.0,0.0,0.0,0.0,0.0,0.0,0.0,0.0,0.0,0.0,0.0,0.0,0.0,0.0,0.0,0.0,0.0,0.0,0.0,0.0,0.0,0.0,0.0,0.0,0.0,0.0,0.0,0.0,0.0,0.0,0.0,0.0,0.0,0.0,0.0,0.0,0.0,0.0,0.0,0.0,0.0,0.0,0.0,0.0,0.0,0.0,0.0,0.0,0.0,0.0,0.0,0.0,0.0,0.0,0.0,0.0,0.0,0.0,0.0,0.0,0.0,0.0,0.0,0.0,0.0,0.0,0.0,0.0,0.0,0.0,0.0,0.0,0.0,0.0,0.0,0.0,0.0,0.0,0.0,0.0,0.0,0.0,0.0,0.0,0.0,0.0,0.0,0.0,0.0,0.0,0.0,0.0,0.0,0.0,0.0,0.0,0.0,0.0,0.0,0.0,0.0,0.0,0.0,0.0,0.0,0.0,0.0,0.0,0.0,0.0,0.0,0.0,0.0,0.0,0.0,0.0,0.0,0.0,0.0,0.0,0.0,0.0,0.0,0.0,0.0,0.0,0.0,0.0,0.0,0.0,0.0,0.0,0.0,0.0,0.0,0.0,0.0,0.0,0.0,0.0,0.0,0.0,0.0,0.0,0.0,0.0,0.0,0.0,0.0,0.0,0.0,0.0,0.0,0.0,0.0,0.0,0.0,0.0,0.0,0.0,0.0,0.0,0.0,0.0,0.0,0.0,0.0,0.0,0.0,0.0,0.0,0.0,0.0,0.0,0.0,0.0,0.0,0.0,0.0,0.0,0.0,0.0,0.0,0.0,0.0,0.0,0.0,0.0,0.0,0.0,0.0,0.0,0.0,0.0,0.0,0.0,0.0,0.0,0.0,0.0,0.0,0.0,0.0,0.0,0.0,0.0,0.0,0.0,0.0,0.0,0.0,0.0,0.0,0.0,0.0,0.0,0.0,0.0,0.0,0.0,0.0,0.0,0.0,0.0,0.0,0.0,0.0,0.0,0.0,0.0,0.0,0.0,0.0,0.0,0.0,0.0,0.0,0.0,0.0,0.0,0.0,0.0,0.0,0.0,0.0,0.0,0.0,0.0,0.0,0.0,0.0,0.0,0.0,0.0,0.0,0.0,0.0,0.0,0.0,0.0,0.0,0.0,0.0,0.0,0.0,0.0,0.0,0.0,0.0,0.0,0.0,0.0,0.0,0.0,0.0,0.0,0.0,0.0,0.0,0.0,0.0,0.0,0.0,0.0,0.0,0.0,0.0,0.0,0.0,0.0,0.0,0.0,0.0,0.0,0.0,0.0,0.0,0.0,0.0,0.0,0.0,0.0,0.0,0.0,0.0,0.0,0.0,0.0,0.0,0.0,0.0,0.0,0.0,0.0,0.0,0.0,0.0,0.0,0.0,0.0,0.0,0.0,0.0,0.0,0.0,0.0,0.0,0.0,0.0,0.0,0.0,0.0,0.0,0.0,0.0,0.0,0.0,0.0,0.0,0.0,0.0,0.0,0.0,0.0,0.0,0.0,0.0,0.0,0.0,0.0,0.0,0.0,0.0,0.0,0.0,0.0,0.0,0.0,0.0,0.0,0.0,0.0,0.0,0.0,0.0,0.0,0.0,0.0,0.0,0.0,0.0,0.0,0.0,0.0,0.0,0.0,0.0,0.0,0.0,0.0,0.0,0.0,0.0,0.0,0.0,0.0,0.0,0.0,0.0,0.0,0.0,0.0,0.0,0.0,0.0,0.0,0.0,0.0,0.0,0.0,0.0,0.0,0.0,0.0,0.0,0.0,0.0,0.0,0.0,0.0,0.0,0.0,0.0,0.0,0.0,0.0,0.0,0.0,0.0,0.0,0.0,0.0,0.0,0.0,0.0,0.0,0.0,0.0,0.0,0.0,0.0,0.0,0.0,0.0,0.0,0.0,0.0,0.0,0.0,0.0,0.0,0.0,0.0,0.0,0.0,0.0,0.0,0.0,0.0,0.0,0.0,0.0,0.0,0.0,0.0,0.0,0.0,0.0,0.0,0.0,0.0,0.0,0.0,0.0,0.0,0.0,0.0,0.0,0.0,0.0,0.0,0.0,0.0,0.0,0.0,0.0,0.0,0.0,0.0,0.0,0.0,0.0,0.0,0.0,0.0,0.0,0.0,0.0,0.0,0.0,0.0,0.0,0.0,0.0,0.0,0.0,0.0,0.0,0.0,0.0,0.0,-1.9099,0.0,0.0,0.0,0.0,0.0,0.0,0.0,0.0,0.0,0.0,0.0,0.0,0.0,0.0,0.0,0.0,0.0,0.0,0.0,0.0,0.0,0.0,0.0,0.0,-0.1406,-0.14,-0.1428,-0.1431,-0.1431,-0.1431,0.0,0.0,0.0,0.0,0.0,-0.2773,-0.297,-0.252,-0.1407,-0.0246,0.0845,0.191,0.129,0.099,0.1008,0.0,0.0,0.0,0.0,0.0,0.0,0.0,0.0,0.0,0.0,0.0,0.0,0.0,0.0,0.0,0.0,0.0,0.0,0.0,0.0,0.0,0.0,0.0,0.0,0.0,0.0,0.0,0.0,0.0,0.0,0.0,0.0,0.0,0.0,0.0,0.0,0.0,0.0,0.0,0.0,0.0,0.0,0.0,0.0,0.0,0.0,0.0,0.0,0.0,0.0,0.0,0.0,0.0,0.0,0.0,0.0,0.0,0.0,0.0,0.0,0.0,0.0,0.0,0.0,0.0,0.0,0.0,0.0,0.0,0.0,0.0,-1.9895,0.0,0.0,0.0,0.0,0.0,0.0,0.0,0.0,0.0,0.0,0.0,0.0,0.0,0.0,0.0,0.0,0.0,0.0,0.0,0.0,0.0,-0.4684,-0.2237,-0.1633,-0.1439,-0.1535,-0.1541,-0.1541,-0.1541,-0.1892,0.0,0.0,0.0,-0.288,-0.2775,-0.2655,-0.1629,0.0307,0.0767,0.1873,0.361,0.3569,0.2884,0.1635,0.1569,0.0,0.0,0.0,0.0,0.0,0.0,0.0,0.0,0.0,0.0,0.0,0.0,0.0,0.0,0.0,0.0,0.0,0.0,0.0,0.0,0.0,0.0,0.0,0.0,0.0,0.0,0.0,0.0,0.0,0.0,0.0,0.0,0.0,0.0,0.0,0.0,0.0,0.0,0.0,0.0,0.0,0.0,0.0,0.0,0.0,0.0,0.0,0.0,0.0,0.0,0.0,0.0,0.0,0.0,0.0,0.0,0.0,0.0,0.0,0.0,0.0,0.0,0.0,0.0,-2.2439,-2.2424,-2.2188,-2.2147,-2.223,-2.2007,-2.1447,-2.0665,0.0,0.0,0.0,0.0,0.0,0.0,0.0,0.0,0.0,0.0,0.0,0.0,0.0,0.0,0.0,0.0,0.0,0.0,0.0,0.0,-0.551,-0.4025,-0.2473,-0.1594,-0.1602,-0.1604,-0.1604,-0.1604,-0.1968,-0.227,-0.2536,-0.2832,-0.3154,-0.3481,-0.1444,-0.0267,0.0055,0.2149,0.3322,0.3619,0.3512,0.3331,0.3031,0.2667,0.2127,0.1398,0.0,0.0,0.0,0.0,0.0,0.0,0.0,0.0,0.0,0.0,0.0,0.0,0.0,0.0,0.0,0.0,0.0,0.0,0.0,0.0,0.0,0.0,0.0,0.0,0.0,0.0,0.0,0.0,0.0,0.0,0.0,0.0,0.0,0.0,0.0,0.0,0.0,0.0,0.0,0.0,0.0,-1.508,-1.5182,0.0,0.0,0.0,0.0,0.0,0.0,0.0,0.0,0.0,0.0,0.0,0.0,0.0,0.0,-2.2427,-2.3079,-2.3555,-2.3872,-2.45,-2.4852,-2.4917,-2.4889,-2.5015,-2.5244,-2.5198,0.0,-2.1648,-2.201,0.0,0.0,0.0,0.0,0.0,0.0,0.0,0.0,0.0,0.0,0.0,0.0,0.0,0.0,0.0,0.0,0.0,0.0,0.0,0.0,0.0,-0.2427,-0.1222,-0.1247,-0.0727,-0.0726,-0.1505,-0.1553,-0.1965,-0.2846,-0.3169,-0.3081,-0.2573,-0.0881,0.0606,0.1846,0.2908,0.3452,0.3454,0.3451,0.3349,0.311,0.2954,0.2648,0.2185,0.1467,0.0,0.0,0.0,0.0,0.0,0.0,0.0,0.0,0.0,0.0,0.0,0.0,0.0,0.0,0.0,0.0,0.0,0.0,0.0,0.0,0.0,0.0,0.0,0.0,0.0,0.0,0.0,0.0,0.0,0.0,0.0,0.0,0.0,0.0,0.0,0.0,0.0,0.0,0.0,-1.52,-1.5683,-1.5647,-1.6008,-1.6248,0.0,0.0,0.0,0.0,0.0,0.0,0.0,0.0,0.0,-2.1074,-2.1365,-2.2325,-2.3934,-2.4317,-2.4559,-2.4785,-2.5173,-2.5364,-2.5411,-2.5538,-2.5678,-2.5817,-2.5863,-2.5207,-2.4014,-2.3771,-2.3092,-2.237,0.0,0.0,0.0,0.0,0.0,0.0,0.0,0.0,0.0,0.0,0.0,0.0,0.0,0.0,0.0,0.0,0.0,0.0,-0.4725,-0.231,-0.0741,-0.0646,0.0054,0.0054,-0.0968,-0.1044,-0.1561,-0.2627,-0.3249,-0.2912,-0.1398,0.0113,0.1698,0.3354,0.3341,0.333,0.3332,0.3378,0.3263,0.3069,0.3069,0.2911,0.2611,0.1924,0.1511,0.1231,0.0,0.0,0.0,0.0,0.0,0.0,0.0,0.0,0.0,0.0,0.0,0.0,0.0,0.0,0.0,0.0,0.0,0.0,0.0,0.0,0.0,0.0,0.0,0.0,0.0,0.0,0.0,0.0,0.0,0.0,0.0,0.0,0.0,0.0,0.0,0.0,0.0,-1.5984,-1.6332,-1.6037,-1.6831,-1.7255,0.0,0.0,0.0,0.0,0.0,0.0,-2.0237,-2.0526,-2.1276,-2.2619,-2.2818,-2.3731,-2.5375,-2.5614,-2.5825,-2.61,-2.6396,-2.6415,-2.6251,-2.6492,-2.6623,-2.6596,-2.6704,-2.6665,-2.6503,-2.5494,-2.4614,-2.3929,-2.4329,-2.463,0.0,-2.5715,-2.6117,-2.64,0.0,0.0,0.0,0.0,0.0,0.0,0.0,0.0,0.0,0.0,0.0,-0.6034,-0.5436,-0.238,-0.0231,0.0279,0.0459,0.0461,0.0335,-0.0556,-0.1227,-0.1566,-0.2858,-0.2521,-0.0168,0.2132,0.3401,0.3462,0.345,0.3381,0.3383,0.336,0.3275,0.327,0.314,0.2751,0.2189,0.1567,0.1287,0.1234,0.0561,0.0,0.0,0.0,0.0,0.0,0.0,0.0,0.0,0.0,0.0,0.0,0.0,0.0,0.0,0.0,0.0,0.0,0.0,0.0,0.0,0.0,0.0,0.0,0.0,0.0,0.0,0.0,0.0,0.0,0.0,0.0,0.0,0.0,0.0,0.0,0.0,0.0,0.0,-1.6584,-1.8688,0.0,0.0,0.0,0.0,-1.9373,-2.0529,-2.1264,-2.1306,-2.3035,-2.4115,-2.4189,-2.4823,-2.5471,-2.6164,-2.6885,-2.7609,-2.8233,-2.9162,-2.9237,-2.8619,-2.8788,-2.8824,-2.8748,-2.8748,-2.8719,-2.853,-2.6945,-2.597,-2.557,-2.625,-2.637,-2.6245,-2.7296,-2.793,-2.8414,0.0,0.0,0.0,0.0,0.0,-1.6263,-1.4668,-1.4041,-1.3279,-1.1977,-0.8582,-0.5784,-0.4386,-0.1676,0.0295,0.1012,0.1475,0.1634,0.121,0.0789,0.0,-0.1227,-0.1284,-0.0169,0.219,0.2979,0.3364,0.337,0.3407,0.342,0.3422,0.3449,0.3393,0.3334,0.2991,0.2583,0.2207,0.2077,0.1714,0.1234,0.0785,0.028,0.0,0.0,0.0,0.0,0.0,0.0,0.0,0.0,0.0,0.0,0.0,0.0,0.0,0.0,0.0,0.0,0.0,0.0,0.0,0.0,0.0,0.0,0.0,0.0,0.0,0.0,0.0,0.0,0.0,0.0,0.0,0.0,0.0,0.0,0.0,0.0,0.0,-1.8385,-1.9553,0.0,-1.9131,-2.0194,-2.1091,-2.1485,-2.2622,-2.3445,-2.3883,-2.4967,-2.5534,-2.5501,-2.6149,-2.6657,-2.6994,-2.7282,-2.7622,-2.8,-2.8652,-2.887,-2.8737,-2.9202,-2.9388,-2.9377,-2.9438,-2.9345,-2.9124,-2.8558,-2.7958,-2.7453,-2.7967,-2.8127,-2.8123,-2.9193,-2.9696,-3.0006,0.0,0.0,0.0,0.0,0.0,-1.7377,-1.5845,-1.4783,-1.3521,-1.1734,-0.8316,-0.5259,-0.3099,-0.0825,0.0905,0.1843,0.2293,0.2432,0.2287,0.1759,0.0891,-0.0446,0.0565,0.1905,0.3522,0.342,0.335,0.3383,0.3405,0.3409,0.3411,0.3471,0.3411,0.3237,0.2877,0.2481,0.2068,0.2151,0.1843,0.1159,0.086,0.0396,-0.0335,0.0,0.0,0.0,0.0,0.0,0.0,0.0,0.0,0.0,0.0,0.0,0.0,0.0,0.0,0.0,0.0,0.0,0.0,0.0,0.0,0.0,0.0,0.0,0.0,0.0,0.0,0.0,0.0,0.0,0.0,0.0,0.0,0.0,0.0,0.0,-1.989,-1.9831,-2.0919,-2.1495,-2.1063,-2.2281,-2.3219,-2.3528,-2.4687,-2.5523,-2.5982,-2.6653,-2.7009,-2.7024,-2.7629,-2.7885,-2.7775,-2.8221,-2.8526,-2.8673,-2.9278,-2.9454,-2.9359,-2.982,-2.9944,-2.9892,-3.0011,-3.0112,-3.0185,-3.0185,-2.9998,-2.9712,-2.9581,-2.9685,-3.0011,-3.0854,-3.1255,-3.1496,0.0,0.0,0.0,0.0,0.0,-1.8052,-1.6641,-1.5505,-1.3802,-1.0854,-0.7619,-0.4551,-0.1736,0.0,0.1545,0.2897,0.2709,0.2853,0.3595,0.2331,0.1341,0.0898,0.2436,0.3416,0.3581,0.3472,0.3419,0.3585,0.3536,0.3507,0.3507,0.3511,0.3261,0.2882,0.2884,0.2473,0.1686,0.183,0.1517,0.0992,0.0899,0.029,-0.0674,0.0,0.0,0.0,0.0,0.0,0.0,0.0,0.0,0.0,0.0,0.0,0.0,0.0,0.0,0.0,0.0,0.0,0.0,0.0,0.0,0.0,0.0,0.0,0.0,0.0,0.0,0.0,0.0,0.0,0.0,0.0,0.0,0.0,-1.8609,-2.0078,-2.1122,-2.0822,-2.2787,-2.4028,-2.3778,-2.5248,-2.5992,-2.5372,-2.6624,-2.7401,-2.7401,-2.8211,-2.8622,-2.8644,-2.923,-2.9239,-2.8589,-2.9801,-3.0416,-3.0447,-3.1246,-3.1277,-3.0665,-3.0771,-3.074,-3.0551,-3.0518,-3.0988,-3.1677,-3.1748,-3.1966,-3.2248,-3.1133,-3.1129,-3.1821,-3.2232,-3.2606,-3.2948,0.0,0.0,0.0,-1.8769,-1.9001,-1.8802,-1.7345,-1.6237,-1.4071,-0.9771,-0.7026,-0.4151,-0.0603,0.0501,0.1467,0.2548,0.2309,0.2736,0.4136,0.3491,0.2211,0.0347,0.1256,0.2369,0.3479,0.2982,0.3031,0.3628,0.3646,0.3691,0.3693,0.3443,0.3245,0.3107,0.2514,0.2118,0.1861,0.1593,0.1373,0.1142,0.0982,0.0733,0.0407,0.0,0.0,0.0,0.0,0.0,0.0,0.0,0.0,0.0,0.0,0.0,0.0,0.0,0.0,0.0,0.0,0.0,0.0,0.0,0.0,0.0,0.0,0.0,0.0,0.0,0.0,0.0,0.0,0.0,0.0,0.0,-2.0076,-2.1012,-2.0517,-2.131,-2.2235,-2.3086,-2.4221,-2.497,-2.4955,-2.6234,-2.6837,-2.6281,-2.7061,-2.7524,-2.7524,-2.8771,-2.9425,-2.9335,-2.9999,-3.0503,-3.0736,-3.0543,-3.078,-3.1435,-3.1971,-3.2216,-3.2093,-3.1974,-3.185,-3.1773,-3.1234,-3.1257,-3.1765,-3.2317,-3.2802,-3.3143,-3.2809,-3.2826,-3.3125,-3.4074,-3.4643,-3.4988,0.0,0.0,0.0,-1.8995,-1.9326,-1.9157,-1.7638,-1.6587,-1.4159,-0.9096,-0.6728,-0.3972,0.0122,0.0806,0.1382,0.2381,0.1424,0.1917,0.4679,0.3134,0.1744,0.0897,0.0562,0.1116,0.2499,0.2464,0.2709,0.3191,0.3599,0.3704,0.3582,0.3306,0.3019,0.2639,0.2195,0.1875,0.1704,0.1432,0.1217,0.0918,0.0794,0.0801,0.0796,0.0061,-0.1377,-0.3038,-0.3785,-0.4183,-0.4576,-0.6021,0.0,0.0,0.0,0.0,0.0,0.0,0.0,0.0,0.0,0.0,0.0,0.0,0.0,0.0,0.0,0.0,0.0,0.0,0.0,0.0,0.0,0.0,0.0,0.0,-2.1439,-2.2347,-2.2772,-2.2917,-2.3494,-2.4831,-2.5461,-2.6001,-2.6698,-2.7712,-2.8055,-2.7485,-2.8396,-2.8801,-2.8516,-2.9848,-3.0597,-3.0522,-3.1383,-3.1887,-3.1976,-3.1782,-3.1813,-3.2034,-3.227,-3.231,-3.2093,-3.2242,-3.2394,0.0,-3.24,-3.2662,-3.3195,-3.365,-3.4111,0.0,0.0,0.0,0.0,0.0,-3.5606,-3.582,0.0,0.0,0.0,-1.904,-1.9413,-1.9276,-1.7651,-1.6713,-1.4286,-0.8963,-0.6791,-0.4003,0.0486,0.1022,0.1391,0.2289,0.0364,0.0822,0.4745,0.2188,0.0843,0.1687,0.033,0.007,0.1103,0.1737,0.2266,0.2605,0.3271,0.3514,0.326,0.3104,0.2647,0.2027,0.1987,0.1744,0.1395,0.1397,0.1096,0.0716,0.0476,0.0589,0.0652,-0.0905,-0.184,-0.2539,-0.4,-0.4546,-0.4823,-0.6005,0.0,0.0,0.0,0.0,0.0,0.0,0.0,0.0,0.0,0.0,0.0,0.0,0.0,0.0,0.0,0.0,0.0,0.0,0.0,0.0,0.0,0.0,0.0,0.0,-2.2867,-2.3603,-2.4882,-2.4593,-2.4743,-2.6061,-2.6401,-2.7086,-2.8487,-2.9265,-2.9415,-2.8757,-2.9877,-3.0332,-2.9834,0.0,0.0,0.0,0.0,-3.3304,-3.285,-3.3201,-3.3102,-3.2527,-3.2527,-3.2188,-3.1596,-3.2303,-3.2832,-3.3183,-3.3792,-3.4508,-3.522,-3.5309,-3.5636,-3.6041,-3.5585,-3.5466,-3.559,-3.5959,-3.6073,0.0,0.0,0.0,0.0,-1.9675,-1.9789,-1.9324,-1.7641,-1.699,-1.4949,-1.0082,-0.7647,-0.448,0.0413,0.0969,0.1097,0.1322,-0.0237,-0.0059,0.2591,0.3195,0.2403,-0.0068,0.0288,0.0529,0.0477,0.0407,0.1074,0.2584,0.2409,0.2659,0.3257,0.2551,0.215,0.1989,0.1678,0.1516,0.1427,0.1427,0.1316,0.1194,0.0419,0.0155,-0.0138,-0.2698,-0.3745,-0.3893,-0.4109,-0.4433,-0.4766,-0.5203,-0.6283,-0.7488,-0.78,-0.8967,0.0,0.0,0.0,0.0,0.0,0.0,0.0,0.0,0.0,0.0,0.0,0.0,0.0,0.0,0.0,0.0,0.0,0.0,0.0,-2.2179,-2.3431,-2.4559,-2.4951,-2.5007,-2.5309,-2.6238,-2.6952,-2.7694,-2.8517,-2.9654,-3.0113,-2.9629,-2.9328,-2.9346,-2.9685,-3.0607,0.0,-3.2327,-3.3225,-3.4076,-3.4987,-3.3955,-3.3626,-3.4066,0.0,0.0,-3.3905,-3.4401,-3.4674,-3.476,-3.4623,-3.4818,-3.5256,-3.5898,-3.6786,-3.7667,-3.6931,-3.7058,-3.7636,-3.7721,-3.7739,-3.7739,0.0,0.0,0.0,-1.9807,-2.0488,-2.0451,-1.8797,-1.8134,-1.5944,-1.0793,-0.8107,-0.4984,-0.0701,-0.0059,0.0059,0.0118,-0.1449,-0.163,0.03,0.2892,0.3286,0.0943,0.0687,0.0319,-0.0496,-0.0251,0.0591,0.2046,0.1943,0.2281,0.3074,0.2333,0.1913,0.1654,0.1511,0.1436,0.1436,0.1436,0.141,0.1284,0.0338,-0.1043,-0.2597,-0.3182,-0.3839,-0.4425,-0.449,-0.4649,-0.4865,-0.5576,-0.6397,-0.7207,-0.8009,-0.9026,-1.0049,0.0,0.0,0.0,0.0,0.0,0.0,0.0,0.0,0.0,0.0,0.0,0.0,0.0,0.0,-1.9347,-2.0332,0.0,-2.2916,-2.3783,-2.4731,-2.5479,-2.6015,-2.5585,-2.552,-2.6317,-2.6837,-2.747,-2.8502,-2.9529,-2.9922,-2.9328,-3.028,-3.0758,-3.036,-3.1982,-3.2981,-3.3102,-3.4134,-3.4594,-3.4523,-3.4134,-3.3947,-3.3947,-3.4167,-3.4233,-3.4292,-3.5117,-3.5605,-3.5834,-3.6003,-3.631,-3.6728,-3.7142,-3.7659,-3.8156,-3.7739,-3.783,-3.8192,-3.8192,-3.8274,-3.8354,0.0,0.0,0.0,-1.9655,-2.0814,-2.1205,-1.9761,-1.9234,-1.7161,-1.2027,-0.9502,-0.6691,-0.2904,-0.2015,-0.1786,-0.1961,-0.2897,-0.2832,-0.1233,0.1837,0.3248,0.2447,0.1128,-0.0167,-0.1287,-0.0689,0.0173,0.1229,0.1301,0.1645,0.2357,0.1755,0.1317,0.0964,0.089,0.0896,0.0896,0.1165,0.0967,0.0511,0.0169,-0.1971,-0.4818,-0.3427,-0.3576,-0.4671,-0.4913,-0.5084,-0.5355,-0.629,-0.6796,-0.7263,-0.8385,-0.9183,-0.9938,-1.0973,-1.1792,0.0,0.0,0.0,0.0,0.0,0.0,0.0,0.0,-1.7055,-1.7677,-1.8731,-1.9405,-2.0436,-2.2309,-2.2761,-2.3515,-2.5487,-2.5843,-2.6075,-2.6825,-2.6031,-2.5575,-2.6216,-2.6447,-2.7063,-2.8469,-2.9386,-2.9748,-2.9562,-3.1524,-3.2361,-3.1563,-3.3353,-3.4184,-3.3677,-3.4774,-3.4827,-3.3626,-3.4066,-3.3981,-3.3406,-3.3791,-3.4012,-3.4029,-3.5472,-3.6324,-3.6649,-3.7363,-3.7845,-3.8192,-3.8192,-3.8192,-3.8192,-3.8192,-3.8207,-3.8274,-3.8274,-3.8368,-3.851,0.0,0.0,0.0,0.0,0.0,-1.9922,-1.9035,-1.9399,-1.8583,-1.5261,-1.3796,-1.1385,-0.7081,-0.5492,-0.506,-0.5973,-0.4207,-0.2483,-0.1143,0.0337,0.1457,0.2329,0.0942,-0.0358,-0.1465,-0.1399,-0.084,0.0184,-0.056,-0.037,0.0625,-0.0091,-0.0455,-0.0447,-0.0895,-0.1074,-0.0984,0.0268,-0.0446,-0.2305,-0.0684,-0.1987,-0.4903,-0.4365,-0.4533,-0.5074,-0.4876,-0.5615,-0.6634,-0.6587,-0.7588,-0.8786,-0.8665,-0.934,-1.0356,-1.144,-1.2406,-1.3423,-1.4663,-1.5334,-1.5736,-1.6151,-1.6238,-1.6579,0.0,-1.8122,-1.8555,-1.9835,-2.0622,-2.1459,-2.2667,-2.3351,-2.4225,-2.5575,-2.5893,-2.5953,-2.598,-2.5924,-2.5909,-2.5936,-2.6114,-2.6826,-2.8352,-2.9451,-3.067,-3.2139,-3.2015,-3.2288,-3.3327,-3.3098,-3.3084,-3.344,-3.4192,-3.4539,-3.437,-3.3812,-3.3491,-3.3406,-3.3791,-3.4012,-3.4103,-3.6319,-3.7326,-3.7417,-3.7897,-3.814,-3.8192,-3.8192,-3.8192,-3.8192,-3.8192,-3.8322,-3.8478,-3.8478,-3.8478,-3.8523,0.0,0.0,0.0,0.0,0.0,-2.0308,-2.0211,-1.9964,-1.9115,-1.7263,-1.4865,-1.2497,-1.0203,-0.8434,-0.731,-0.7116,-0.4815,-0.283,-0.1557,-0.0623,-0.0,0.0165,0.0087,-0.045,-0.1454,-0.1467,-0.1106,-0.0277,-0.0933,-0.0743,0.0091,-0.0552,-0.0915,-0.1076,-0.1345,-0.2331,-0.3859,-0.323,-0.2298,-0.1291,-0.2172,-0.256,-0.2725,-0.3994,-0.4605,-0.4922,-0.5417,-0.6203,0.0,-0.7616,-0.8514,-0.9404,-0.9487,-1.0108,-1.1015,-1.2052,-1.3032,-1.4011,-1.5084,-1.5888,-1.651,-1.6779,-1.6974,-1.7377,-1.8503,-1.9168,-1.9791,-2.0675,-2.1504,-2.2369,-2.3322,-2.3717,-2.4393,0.0,-2.6094,-2.6174,-2.6672,-2.6306,-2.5981,-2.59,-2.5916,-2.635,-2.7523,-2.8928,-2.9888,-3.0248,-3.1876,-3.2754,-3.2497,-3.3679,-3.4095,-3.3423,-3.4539,-3.4726,-3.388,-3.3981,-3.416,-3.4435,-3.4861,-3.5381,-3.6086,-3.7345,-3.7933,-3.7933,-3.8106,-3.8192,-3.8192,-3.8192,-3.8274,-3.8368,-3.8368,-3.8528,-3.8695,-3.8572,-3.8676,-3.8913,0.0,0.0,0.0,0.0,0.0,-2.0059,-2.0588,-2.0228,-1.9608,-1.8842,-1.6701,-1.4805,-1.3563,-1.1528,-0.9771,-0.8682,-0.6581,-0.4382,-0.2171,-0.2141,-0.2177,-0.2223,-0.148,-0.1436,-0.2168,-0.218,-0.2012,-0.1659,-0.2042,-0.1851,-0.1189,-0.1566,-0.1828,-0.1794,-0.1973,-0.3141,-0.5124,-0.5371,-0.3836,-0.1422,-0.3157,-0.3142,-0.2212,-0.4231,-0.5074,-0.5366,-0.613,-0.7016,-0.7936,-0.8956,-0.982,-1.0527,-1.0923,-1.1472,-1.2162,-1.3185,-1.416,-1.5038,-1.5764,-1.6523,-1.7196,-1.7429,-1.7811,-1.8325,-1.9277,-2.0005,-2.074,-2.1436,-2.2104,-2.2847,-2.3728,-2.3824,-2.4303,-2.5935,-2.5994,-2.6146,-2.7005,-2.6525,-2.6096,-2.5998,-2.5935,-2.6183,-2.6784,-2.8174,-2.9062,-2.9228,-3.1593,-3.2823,-3.2417,-3.4044,-3.4607,-3.3728,-3.4742,-3.4793,-3.3711,-3.4347,-3.4856,-3.5203,-3.572,-3.6395,-3.7238,-3.7877,-3.8192,-3.8192,-3.8192,-3.8192,-3.8192,-3.8274,-3.8368,-3.851,-3.8572,-3.8755,-3.895,-3.8766,-3.8913,-3.921,0.0,0.0,0.0,0.0,0.0,-1.8359,-1.9229,-1.9941,-2.0304,-2.0074,-2.0559,-2.0027,-1.7608,-1.4935,-1.2907,-1.1683,-1.0406,-0.7717,-0.297,-0.4745,-0.5425,-0.4389,-0.4104,-0.4059,-0.4235,-0.4319,-0.4414,-0.4601,-0.4882,-0.4558,-0.3764,-0.4112,-0.3744,-0.2873,-0.332,-0.3587,-0.3673,-0.4393,-0.464,-0.4423,-0.3198,-0.3599,-0.4855,-0.5601,-0.6293,-0.6925,-0.7089,-0.8075,-0.9409,-1.0614,-1.1733,-1.2686,-1.301,-1.3481,-1.4071,-1.498,-1.599,-1.6833,-1.6833,-1.7247,-1.7746,-1.8162,-1.8658,-1.929,-2.0226,-2.0699,-2.1107,-2.1983,-2.2402,-2.2847,-2.3728,-2.3612,-2.3911,-2.5483,-2.5558,-2.5633,-2.6238,-2.6438,-2.6432,-2.6211,-2.6362,-2.6502,0.0,-2.7293,-2.8676,-3.0948,-3.1202,-3.2205,-3.432,-3.3812,-3.3778,-3.4438,-3.4506,-3.4506,-3.4455,-3.4939,-3.5203,-3.5186,-3.6021,-3.6399,-3.6452,-3.7659,-3.8192,-3.8192,-3.8192,-3.8192,-3.8225,-3.8401,-3.8491,-3.8541,-3.8803,-3.9007,-3.9183,-3.9183,-3.9183,-3.9237,0.0,0.0,0.0,0.0,0.0,0.0,-1.8217,-1.9116,-1.989,-2.0312,-2.0936,0.0,0.0,0.0,0.0,0.0,-1.3761,-1.137,-0.7915,-0.7254,-0.6444,-0.52,-0.4164,-0.3946,-0.4465,-0.4716,-0.5078,-0.5463,-0.5505,-0.5313,-0.4812,-0.4934,-0.4809,-0.4455,-0.4626,-0.4799,-0.5052,-0.3855,-0.3928,-0.477,-0.3849,-0.424,-0.5564,-0.6688,-0.7445,-0.8239,0.0,-1.113,-1.1358,-1.2378,-1.3273,-1.3979,-1.3936,-1.4359,-1.5115,-1.6323,-1.6938,-1.7332,-1.7725,-1.8133,-1.8582,-1.9277,-1.9747,-2.0207,-2.0941,-2.1301,-2.1481,-2.1517,-2.1761,-2.1914,-2.1961,-2.2436,-2.3236,-2.4551,-2.5118,-2.5696,-2.6581,-2.6564,-2.6438,-2.6214,-2.638,0.0,0.0,0.0,0.0,-2.9634,-3.0632,-3.1732,-3.2949,-3.3728,-3.4406,-3.4939,-3.5437,-3.5803,-3.6076,-3.6237,-3.6474,-3.6726,-3.7309,-3.7589,-3.7589,-3.8013,-3.8192,-3.8192,-3.8192,-3.8274,-3.8401,-3.8478,-3.8676,-3.897,-3.9073,-3.9256,-3.9458,-3.9458,-3.9458,-3.9483,0.0,0.0,0.0,0.0,0.0,0.0,0.0,0.0,0.0,0.0,0.0,0.0,0.0,0.0,0.0,0.0,0.0,-1.4685,-1.2415,-1.0609,-0.911,-0.7947,-0.6728,-0.6441,-0.7204,-0.7299,-0.7553,-0.7907,-0.7533,-0.7081,-0.6544,-0.6083,-0.5722,-0.5401,-0.5401,-0.5486,-0.5489,-0.4264,-0.4234,-0.5067,-0.5254,-0.5848,-0.6777,-0.841,-0.9592,0.0,-1.3145,-1.4227,-1.4516,-1.4586,-1.4913,-1.5295,-1.5469,-1.583,-1.6353,-1.7476,-1.7936,-1.8207,-1.8401,-1.9205,-2.0002,-2.014,-2.0756,-2.1301,-2.1104,-2.1429,-2.1619,-2.1135,-2.1269,-2.1354,-2.1213,-2.1887,-2.2657,-2.332,-2.4129,-2.4997,-2.5864,-2.601,-2.6155,-2.6548,-2.6764,-2.7023,0.0,0.0,0.0,-2.8941,-3.0108,-3.136,-3.2611,-3.3726,-3.4702,-3.5583,-3.6191,-3.6777,-3.7303,-3.7461,-3.7747,-3.8187,-3.8198,-3.8192,-3.8192,-3.8192,-3.8192,-3.8192,-3.8274,-3.8368,-3.8491,-3.8676,-3.8913,-3.921,-3.9309,-3.9458,-3.9639,-3.9915,-3.984,-3.9602,0.0,0.0,0.0,0.0,0.0,0.0,0.0,0.0,0.0,0.0,0.0,0.0,0.0,0.0,0.0,0.0,0.0,0.0,-1.6332,-1.4609,-1.3269,-1.2394,-1.1533,-1.1362,-1.2163,-1.1724,-1.1643,-1.1971,-1.0896,-0.9864,-0.887,-0.7762,-0.6796,-0.6075,-0.6075,-0.5803,-0.5309,-0.5772,-0.5818,-0.5726,-0.7335,-0.8214,-0.8699,-1.0822,-1.2589,-1.4071,-1.5556,-1.7223,-1.8524,-1.7126,-1.6629,-1.668,-1.7475,-1.7693,-1.7842,-1.8361,-1.9004,-1.9443,-1.9043,-2.0443,-2.1773,-2.0832,-2.1738,-2.2462,-2.0928,-2.108,-2.1398,-2.0894,-2.0915,-2.116,-2.1376,0.0,-2.224,-2.1957,-2.276,-2.3721,-2.4466,-2.4933,-2.5791,0.0,0.0,0.0,0.0,0.0,0.0,-2.9149,0.0,-3.1145,-3.333,-3.3825,-3.4812,-3.6333,-3.6794,-3.7361,-3.8139,-3.8549,-3.8941,-3.9315,-3.8554,-3.8192,-3.8192,-3.8225,-3.8225,-3.8225,-3.8433,-3.8541,-3.8554,-3.8998,-3.921,-3.9256,-3.9483,-3.9602,-3.9714,-4.0497,-4.0309,-3.9677,0.0,0.0,0.0,0.0,0.0,0.0,0.0,0.0,0.0,0.0,0.0,0.0,0.0,0.0,0.0,0.0,0.0,0.0,-1.9354,-1.7156,-1.556,-1.4853,-1.3448,-1.3161,-1.4205,-1.4231,-1.4373,-1.4646,-1.3386,-1.2462,-1.1722,-1.0501,-0.9829,-0.9618,-0.9618,-0.9554,-0.9408,-0.9186,-0.9392,-0.99,-1.0432,-1.1259,-1.2433,-1.4292,-1.5661,-1.6784,-1.7991,-1.8862,-1.9301,-1.8171,-1.7557,-1.731,-1.7625,-1.7909,-1.8218,-1.8591,-1.9317,-2.0048,-2.054,-2.1326,-2.2062,-2.2259,-2.2233,-2.2062,-2.1626,-2.1313,-2.0963,-2.0592,-2.0539,-2.0561,-2.0414,-2.1084,0.0,-2.2901,-2.3888,0.0,-2.6645,-2.6935,0.0,-2.8727,0.0,-2.9087,-2.9816,-3.0352,0.0,0.0,-3.1407,-3.2084,-3.3785,-3.4801,-3.5899,-3.7173,-3.7889,-3.8504,-3.9049,-3.9175,-3.8992,-3.85,-3.8282,-3.8192,-3.8225,-3.8354,-3.8415,-3.8433,-3.8683,-3.8873,-3.9027,-3.9156,-3.9309,-3.9483,-3.9577,-3.9602,-3.9714,-4.0497,-4.0666,-4.0572,0.0,0.0,0.0,0.0,0.0,0.0,0.0,0.0,0.0,0.0,0.0,0.0,0.0,0.0,0.0,0.0,0.0,0.0,0.0,-2.0117,-1.8749,-1.8173,-1.679,-1.6386,-1.7126,-1.7073,-1.7122,-1.7327,-1.608,-1.52,-1.4637,-1.3433,-1.2844,-1.2803,-1.2475,-1.2395,-1.2422,-1.214,-1.2292,0.0,0.0,-1.4403,-1.5281,-1.7104,-1.8352,-1.9228,-1.998,-2.0235,-2.0061,-1.9417,-1.8636,-1.7988,-1.8279,-1.8618,-1.9018,-1.9412,-2.0341,-2.1278,-2.1542,-2.2279,-2.3003,-2.2936,-2.2716,-2.234,-2.1668,-2.1155,-2.0656,-2.0236,-2.0161,-2.0152,-2.0122,-2.0805,-2.1637,0.0,0.0,0.0,-2.6789,-2.7161,-2.7986,0.0,-3.0258,0.0,-3.1881,-3.244,-3.2914,0.0,-3.2879,-3.3206,-3.4718,-3.5588,-3.6485,-3.747,-3.8492,-3.9284,-3.9876,-3.955,-3.917,-3.8717,-3.847,-3.8322,-3.8354,-3.859,-3.8664,-3.8713,0.0,-3.9621,-3.9732,-3.9858,-3.9982,-4.0121,-4.0121,-4.0121,-4.0272,-4.1454,-4.1661,-4.1454,0.0,0.0,0.0,0.0,0.0,0.0,0.0,0.0,0.0,0.0,-2.1464,-2.2717,0.0,0.0,0.0,0.0,0.0,0.0,0.0,0.0,-2.2059,-2.1747,-2.0619,-2.0129,-2.0416,-1.9981,-1.9801,-1.9949,-1.8792,-1.7971,-1.7445,-1.6349,-1.5823,-1.5737,-1.5097,-1.4874,-1.4984,-1.4977,-1.503,-1.5302,-1.7033,-1.7711,-1.7892,0.0,-2.0763,-2.1418,-2.1653,-2.1363,-2.086,-2.0735,-1.9723,-1.864,-1.9043,-1.9531,-2.0045,-2.0546,-2.1753,-2.2858,-2.2607,-2.3432,-2.4204,-2.3363,-2.3167,-2.2781,-2.1385,-2.0852,-2.0511,-1.9995,-1.9914,-2.0054,-2.0304,-2.0827,-2.1424,-2.1981,0.0,-2.4045,-2.627,-2.6742,-2.8014,-3.1127,-3.1565,-3.232,-3.4088,-3.4531,-3.4765,-3.4977,-3.4359,-3.4517,-3.5819,-3.6346,-3.6987,-3.7721,-3.8815,-3.9713,-4.0365,-3.9713,-3.9367,-3.9293,-3.8871,-3.8687,-3.8737,-3.9091,-3.9283,-3.932,0.0,0.0,-4.0626,-4.0851,-4.0966,-4.0966,-4.0966,-4.0966,-4.1154,-4.2712,-4.2825,-4.2318,0.0,0.0,0.0,0.0,0.0,0.0,0.0,0.0,0.0,0.0,-2.1592,-2.3498,0.0,0.0,0.0,0.0,0.0,0.0,0.0,0.0,0.0,-2.4022,-2.3079,-2.2711,-2.3039,-2.2723,-2.2509,-2.2315,-2.0986,-2.0194,-1.9884,-1.8762,-1.8216,-1.8194,-1.8061,-1.801,-1.8086,-1.8725,-1.9019,-1.9167,-2.081,-2.1455,-2.1558,-2.2428,0.0,0.0,-2.2869,-2.2139,-2.1256,-2.1545,-2.0428,-1.8939,-1.9082,-1.9812,-2.0768,-2.1409,-2.2769,-2.4258,-2.4936,-2.4977,-2.4744,-2.4664,-2.3545,-2.2248,-2.1445,-2.0773,-2.0373,-2.03,-2.0357,-2.0444,-2.061,-2.0777,-2.1553,-2.3519,-2.3455,-2.4275,-2.7581,-2.8077,-2.8939,0.0,-3.1913,-3.288,-3.4461,-3.4615,0.0,0.0,0.0,0.0,-3.631,-3.7306,-3.8269,-3.9029,-3.928,-3.946,-3.9586,-3.946,-3.9127,-3.8666,-3.9241,-3.9606,-3.984,-4.0799,-4.1202,-4.1231,0.0,0.0,-4.174,-4.1766,-4.1811,-4.1811,-4.1811,-4.1811,-4.1924,-4.2938,-4.32,-4.3182,0.0,0.0,0.0,0.0,0.0,0.0,0.0,-1.8362,-1.9545,-2.06,-2.2147,-2.3382,-2.3997,-2.4645,-2.5053,0.0,0.0,0.0,0.0,0.0,0.0,0.0,0.0,0.0,-2.3949,-2.3765,-2.3619,-2.3515,0.0,-2.2457,-2.227,-2.1702,-2.1387,-2.1271,-2.0853,-2.0927,-2.1299,-2.1271,-2.1481,-2.1948,-2.2837,-2.3195,0.0,0.0,0.0,0.0,0.0,-2.3293,-2.2656,-2.2366,-2.147,-2.0443,-2.0081,-2.0624,-2.1512,-2.2216,-2.3307,-2.4548,-2.5751,-2.548,-2.4839,-2.4934,-2.3623,-2.2192,-2.1677,-2.0887,-2.0373,-2.0577,-2.0561,-2.0527,-2.0577,-2.086,-2.1569,-2.3124,-2.3348,-2.4403,-2.7368,-2.814,-2.9418,-3.2171,-3.2809,-3.3864,-3.6006,-3.5978,0.0,0.0,0.0,0.0,-3.734,-3.7889,-3.8554,-3.9369,-3.8989,-3.8971,-3.9387,-3.8971,-3.867,-3.851,-3.9019,-3.9416,-3.9686,-4.0746,-4.0996,-4.0686,0.0,0.0,-4.2029,-4.2506,-4.2693,-4.2693,-4.2693,-4.2693,-4.2787,-4.3632,-4.3933,-4.3989,0.0,0.0,0.0,0.0,0.0,0.0,-1.7898,-1.9256,-2.0585,-2.1727,-2.2576,-2.3093,-2.3087,-2.4163,-2.4869,0.0,0.0,0.0,0.0,0.0,0.0,0.0,0.0,0.0,0.0,0.0,0.0,-2.4238,-2.4239,0.0,0.0,0.0,0.0,0.0,0.0,-2.3168,-2.3732,-2.3176,-2.3308,0.0,0.0,0.0,0.0,0.0,0.0,0.0,0.0,-2.4165,-2.3658,-2.2914,-2.2322,-2.1817,-2.1016,-2.1328,-2.2125,-2.2627,-2.3584,-2.4701,-2.596,-2.5662,-2.502,-2.4955,-2.3645,-2.2294,-2.179,-2.102,-2.0475,-2.0728,-2.0679,-2.0579,-2.0527,-2.0893,-2.1488,-2.2377,-2.2889,-2.3994,-2.6358,-2.7569,-2.9256,-3.2161,-3.3088,0.0,-3.6863,-3.6888,0.0,0.0,0.0,0.0,-3.8192,-3.8192,-3.8482,-3.9115,-3.8518,-3.85,-3.9134,-3.8567,-3.8387,-3.8603,-3.9029,-3.9333,-3.9589,-4.0795,-4.0985,-4.0497,0.0,0.0,0.0,-4.3275,-4.3557,-4.3557,-4.3557,-4.3557,-4.3632,-4.4271,-4.4515,-4.4515,0.0,0.0,0.0,0.0,0.0,0.0,-1.8299,-1.959,-2.0683,-2.137,-2.2429,-2.3106,-2.3111,-2.3697,-2.4173,0.0,0.0,0.0,0.0,0.0,0.0,0.0,0.0,0.0,0.0,0.0,0.0,-2.4746,-2.4666,0.0,0.0,0.0,0.0,0.0,0.0,0.0,0.0,-2.458,0.0,0.0,0.0,0.0,0.0,0.0,0.0,0.0,0.0,-2.4143,-2.3056,-2.2849,-2.2472,-2.1927,-2.1003,-2.1467,-2.2329,-2.2209,-2.3581,-2.5295,-2.6092,-2.6059,-2.5644,-2.5133,-2.3851,-2.2512,-2.1569,-2.1054,-2.0761,-2.0794,-2.0861,-2.0845,-2.0561,-2.0695,-2.1198,-2.2297,-2.2108,-2.2558,-2.479,-2.6493,-2.7931,-2.918,0.0,0.0,-3.5345,-3.5753,0.0,0.0,0.0,0.0,0.0,-3.8192,-3.821,-3.8301,-3.8228,-3.8228,-3.8301,-3.8405,-3.8603,-3.8881,-3.9797,-4.0392,-4.0715,-4.2337,-4.3031,-4.3013,0.0,0.0,0.0,-4.4364,-4.4402,-4.4402,-4.4402,-4.4402,-4.4402,-4.4477,-4.4515,-4.4515,0.0,0.0,0.0,0.0,0.0,0.0,-1.8864,-2.0144,-2.1258,-2.1868,-2.2426,-2.2798,-2.2958,-2.3287,-2.3689,-2.4137,-2.4482,0.0,0.0,0.0,0.0,0.0,0.0,0.0,0.0,0.0,-2.5195,-2.503,-2.5099,0.0,0.0,0.0,0.0,0.0,0.0,0.0,-2.5043,-2.4646,0.0,0.0,0.0,0.0,0.0,0.0,0.0,0.0,0.0,0.0,-2.4263,-2.3843,-2.318,-2.2352,-2.143,-2.1173,-2.137,-2.2204,-2.3494,-2.4911,-2.6117,-2.6118,-2.5648,-2.5018,-2.3983,-2.2833,-2.1837,-2.1339,-2.1087,-2.1087,-2.1023,-2.0861,-2.0545,-2.0644,-2.0889,-2.1391,-2.1533,-2.2096,-2.3432,-2.491,-2.6766,-2.9253,-3.0592,0.0,0.0,0.0,0.0,0.0,0.0,0.0,0.0,-3.8192,-3.8192,-3.8192,-3.8192,-3.8192,-3.8192,-3.8401,-3.8634,-3.891,-3.9435,-4.0064,-4.0816,-4.1492,-4.2055,-4.2562,0.0,0.0,0.0,-4.4308,-4.4515,-4.4515,-4.4515,-4.4515,-4.4515,-4.4515,-4.4515,-4.4515,0.0,0.0,0.0,0.0,0.0,-1.8788,-1.9398,-2.0679,-2.1739,-2.2164,-2.2409,-2.2598,-2.2703,-2.3007,-2.3379,-2.385,-2.4302,0.0,0.0,0.0,0.0,0.0,0.0,0.0,0.0,0.0,-2.5336,-2.5293,-2.5371,-2.5425,0.0,0.0,0.0,0.0,0.0,0.0,0.0,0.0,0.0,0.0,0.0,0.0,0.0,0.0,0.0,0.0,0.0,0.0,0.0,0.0,0.0,-2.2817,-2.1622,-2.1341,-2.1577,-2.1986,-2.2839,-2.3953,-2.5446,-2.5542,-2.5095,-2.4674,-2.3847,-2.2899,-2.2079,-2.1661,-2.1462,-2.1462,-2.1245,-2.0958,-2.0712,-2.0662,-2.0726,-2.0794,-2.1182,-2.1749,-2.2457,-2.3789,-2.5674,-2.8233,0.0,-3.1009,0.0,0.0,0.0,0.0,0.0,0.0,0.0,-3.8241,-3.8192,-3.8192,-3.8192,-3.8241,-3.8307,-3.8528,-3.8725,-3.9007,-3.9219,-3.9877,-4.0873,-4.1111,-4.1656,0.0,0.0,0.0,0.0,-4.4271,-4.4515,-4.4515,-4.4515,-4.4515,-4.4515,-4.4515,-4.4515,-4.4515,0.0,0.0,0.0,0.0,0.0,-1.9416,-1.984,-2.1099,-2.1982,-2.1998,-2.2422,-2.2599,-2.2343,-2.2781,-2.3189,-2.3392,-2.4192,0.0,0.0,0.0,0.0,0.0,0.0,0.0,0.0,0.0,-2.5497,-2.5492,-2.5494,-2.5494,-2.5492,-2.5494,-2.5494,-2.5494,0.0,0.0,0.0,0.0,-2.3779,0.0,0.0,0.0,0.0,0.0,0.0,0.0,0.0,0.0,0.0,0.0,0.0,0.0,0.0,-2.231,-2.3614,-2.1391,-2.1387,-2.2429,-2.3902,-2.4163,-2.4017,-2.4098,-2.3357,-2.2536,-2.2249,-2.2007,-2.1781,-2.1781,-2.157,-2.1308,-2.1039,-2.0811,-2.0726,-2.0794,-2.1087,-2.1464,-2.194,-2.3442,-2.4662,0.0,0.0,-2.8868,0.0,0.0,0.0,0.0,0.0,0.0,0.0,0.0,-3.8192,-3.8192,-3.8192,-3.8289,-3.8491,-3.8773,-3.9007,-3.921,-3.9551,-4.0146,-4.1019,-4.1825,0.0,0.0,0.0,0.0,0.0,-4.4515,-4.4515,-4.4515,-4.4515,-4.4515,-4.4515,-4.4515,-4.4515,-4.4515,0.0,0.0,0.0,0.0,0.0,0.0,-2.0089,-2.1129,-2.1996,-2.2351,-2.2607,-2.2782,-2.285,-2.3067,-2.3364,-2.372,-2.4005,0.0,0.0,0.0,0.0,0.0,0.0,0.0,0.0,-2.5251,-2.5246,-2.5149,-2.5338,-2.5375,-2.529,-2.5447,-2.5503,-2.5503,-2.5503,-2.5368,0.0,-2.3884,-2.324,0.0,0.0,0.0,0.0,0.0,0.0,0.0,0.0,0.0,0.0,0.0,0.0,0.0,0.0,0.0,0.0,-2.2084,-2.2359,-2.2963,-2.3801,-2.3833,-2.3701,-2.392,-2.3587,-2.3085,-2.2641,-2.2332,-2.2077,-2.1857,-2.1781,-2.1645,-2.1385,-2.1323,-2.1276,-2.1151,-2.1524,-2.1807,-2.1748,0.0,0.0,-2.6753,-3.0277,-3.3201,0.0,0.0,0.0,0.0,0.0,0.0,0.0,0.0,-3.859,-3.8401,-3.8401,-3.8446,-3.851,-3.8902,-3.9129,-3.921,-3.9489,-4.0346,-4.1656,-4.1374,0.0,0.0,0.0,0.0,0.0,-4.4515,-4.4515,-4.4515,-4.4515,-4.4515,-4.4515,-4.4515,-4.4515,-4.4515,0.0,0.0,0.0,0.0,0.0,0.0,-2.0292,-2.1177,-2.1915,-2.2504,-2.2764,-2.2867,-2.2927,-2.3157,-2.3445,-2.3674,-2.3762,0.0,0.0,0.0,0.0,0.0,0.0,0.0,-2.4955,-2.5118,-2.5138,-2.5043,-2.5172,-2.5209,-2.5139,-2.5224,-2.5279,-2.5275,-2.5323,-2.5188,0.0,-2.3187,-2.2857,-2.3379,0.0,0.0,-2.5453,0.0,0.0,0.0,0.0,0.0,0.0,0.0,0.0,0.0,0.0,0.0,0.0,0.0,-2.2901,-2.3168,-2.3763,-2.3619,-2.3392,-2.3739,-2.3481,-2.3089,-2.2745,-2.247,-2.2237,-2.202,-2.1928,-2.1853,-2.1718,-2.1658,-2.1568,-2.1495,-2.1823,-2.2051,-2.1919,0.0,0.0,-2.7171,0.0,0.0,0.0,0.0,0.0,0.0,0.0,0.0,0.0,0.0,-3.8862,-3.8766,-3.8695,-3.8695,-3.8766,-3.9055,-3.9237,-3.9362,-3.9558,-4.0502,-4.2134,0.0,0.0,0.0,0.0,0.0,0.0,-4.4515,-4.4515,-4.4515,-4.4515,-4.4515,-4.4515,-4.4515,-4.4515,-4.4515,0.0,0.0,0.0,0.0,0.0,0.0,0.0,-2.1272,-2.1898,-2.2505,-2.2822,-2.2915,-2.2677,-2.3091,-2.3394,-2.3371,-2.3549,0.0,0.0,0.0,0.0,0.0,0.0,0.0,-2.4707,-2.5013,-2.5145,-2.5091,-2.5031,-2.4994,-2.4981,-2.4929,-2.4902,-2.4915,-2.5024,-2.464,-2.3794,-2.2427,-2.2688,-2.388,-2.2453,-2.3307,0.0,0.0,0.0,0.0,0.0,0.0,0.0,0.0,0.0,0.0,0.0,0.0,0.0,0.0,0.0,0.0,0.0,-2.3379,-2.306,-2.3413,-2.3013,-2.2538,-2.247,-2.2351,0.0,-2.2226,-2.2056,-2.194,-2.2027,-2.1836,-2.1718,-2.1811,-2.2027,-2.222,0.0,-2.3377,0.0,0.0,0.0,0.0,0.0,0.0,0.0,0.0,0.0,0.0,0.0,0.0,0.0,-3.921,-3.9036,-3.9036,-3.9183,-3.921,-3.9362,-3.9602,-3.9642,-4.0613,-4.2276,0.0,0.0,0.0,0.0,0.0,0.0,-4.4515,-4.4515,-4.4515,-4.4515,-4.4515,-4.4515,-4.4515,-4.4515,-4.4515,0.0,0.0,0.0,0.0,0.0,0.0,0.0,0.0,0.0,0.0,-2.3218,-2.3035,-2.3003,-2.3218,-2.3359,0.0,0.0,0.0,0.0,0.0,0.0,0.0,0.0,0.0,-2.4707,-2.4931,-2.4999,-2.4861,-2.4902,-2.4902,-2.4847,-2.4888,-2.4902,-2.4902,-2.4923,-2.4461,-2.3662,-2.3457,-2.3595,-2.3907,-2.3743,-2.4059,0.0,0.0,0.0,0.0,-2.3984,-2.4305,0.0,0.0,0.0,0.0,0.0,0.0,0.0,0.0,-2.3989,-2.3933,-2.3009,0.0,-2.234,-2.1843,-2.189,-2.1906,0.0,-2.1451,-2.1643,-2.1501,-2.1942,-2.236,-2.2388,-2.2426,-2.2364,-2.2192,-2.2473,-2.2738,-2.2772,0.0,0.0,-2.9834,0.0,0.0,0.0,0.0,0.0,0.0,0.0,0.0,0.0,0.0,0.0,-3.9483,-3.9458,-3.9354,-3.921,-3.9388,-3.9552,-3.9602,-3.9626,-4.0177,-4.1199,0.0,0.0,0.0,0.0,0.0,0.0,-4.4515,-4.4515,-4.4515,-4.4515,-4.4515,-4.4515,-4.4515,-4.4515,-4.4524,0.0,0.0,0.0,0.0,0.0,0.0,0.0,0.0,0.0,0.0,-2.3649,-2.345,-2.3422,-2.3473,-2.35,0.0,0.0,0.0,0.0,0.0,0.0,0.0,0.0,-2.4707,-2.4707,-2.4908,-2.4964,-2.4889,-2.4865,-2.4847,-2.4847,-2.4861,-2.4874,-2.4902,-2.4949,-2.4782,-2.4405,-2.4138,-2.4265,-2.4571,-2.3947,0.0,0.0,0.0,0.0,0.0,-2.3633,-2.4041,0.0,-2.524,-2.5398,-2.5206,0.0,0.0,0.0,0.0,-2.4166,-2.3828,-2.2978,-2.2971,-2.2942,-2.1983,-2.1896,-2.2041,-2.1902,-2.1677,-2.155,-2.1671,-2.2133,-2.2515,-2.2515,-2.2703,-2.2816,-2.2581,-2.295,0.0,0.0,0.0,-2.813,-3.0417,0.0,0.0,0.0,0.0,0.0,0.0,0.0,0.0,0.0,0.0,0.0,0.0,-3.9602,-3.9527,-3.9388,-3.9527,-3.9602,-3.9602,-3.9602,-4.0058,-4.0917,0.0,0.0,0.0,0.0,0.0,-4.4515,-4.4515,-4.4515,-4.4515,-4.4515,-4.4515,-4.4515,-4.4515,-4.4515,-4.4515,0.0,0.0,0.0,0.0,0.0,0.0,0.0,0.0,0.0,0.0,0.0,0.0,0.0,0.0,0.0,0.0,0.0,0.0,0.0,0.0,0.0,0.0,-2.4528,-2.4692,-2.4707,-2.4908,-2.501,-2.501,-2.4875,-2.4818,-2.4902,-2.4832,-2.4832,-2.4915,-2.5012,-2.5165,-2.5297,-2.4645,-2.48,-2.5349,-2.3833,0.0,0.0,0.0,0.0,0.0,0.0,0.0,0.0,-2.5046,-2.5316,-2.5269,-2.4993,0.0,0.0,0.0,0.0,0.0,-2.305,-2.3525,-2.375,-2.247,-2.2267,-2.2384,-2.257,-2.2056,-2.167,-2.2126,-2.2347,-2.2515,-2.2579,-2.2824,-2.3007,-2.2927,0.0,0.0,-2.5488,-2.6554,-2.8066,0.0,0.0,0.0,0.0,0.0,0.0,0.0,0.0,0.0,0.0,0.0,0.0,0.0,-3.9602,-3.9602,-3.9602,-3.9602,-3.9602,-3.9602,-3.9602,-4.0008,-4.0801,-4.1506,0.0,0.0,0.0,0.0,-4.4346,-4.4458,-4.4515,-4.4515,-4.4515,-4.4515,-4.4515,-4.4515,-4.4515,-4.4515,0.0,0.0,0.0,0.0,0.0,0.0,0.0,0.0,0.0,0.0,0.0,0.0,0.0,0.0,0.0,0.0,0.0,0.0,0.0,0.0,0.0,-2.4543,-2.4526,-2.4578,-2.4707,-2.4908,-2.501,-2.501,-2.4875,-2.4818,-2.4902,-2.4832,-2.4832,-2.4902,-2.4929,-2.4993,-2.5056,-2.5117,-2.5231,-2.5337,-2.4524,0.0,0.0,0.0,0.0,0.0,0.0,0.0,0.0,-2.4127,-2.4846,-2.5327,-2.4993,0.0,0.0,0.0,0.0,0.0,-2.221,-2.2808,-2.2986,-2.1114,-2.1563,-2.2123,-2.0769,-2.1172,-2.1836,-2.1787,-2.2159,-2.2588,-2.2883,-2.2824,-2.2884,0.0,0.0,-2.5903,0.0,0.0,0.0,0.0,0.0,0.0,0.0,0.0,0.0,0.0,0.0,0.0,0.0,0.0,0.0,0.0,0.0,-3.9602,-3.9602,-3.9602,-3.9602,-3.9602,-3.9602,-3.9677,-3.9852,-4.0635,-4.106,0.0,0.0,0.0,-4.3538,-4.4233,-4.4515,-4.4515,-4.4515,-4.4515,-4.4515,-4.4515,-4.4515,-4.4551,0.0,0.0,0.0,0.0,0.0,0.0,0.0,0.0,0.0,0.0,0.0,0.0,0.0,0.0,0.0,0.0,0.0,0.0,0.0,0.0,-2.4689,-2.4764,-2.4734,-2.4749,-2.487,-2.4964,-2.501,-2.501,-2.495,-2.4953,-2.5,-2.5056,-2.5091,-2.5115,-2.5115,-2.5175,-2.5277,-2.5367,-2.5471,-2.5543,0.0,0.0,0.0,0.0,0.0,0.0,0.0,0.0,0.0,0.0,-2.3773,-2.3991,-2.3702,0.0,0.0,0.0,0.0,0.0,-2.205,-2.2002,-2.1763,-2.1366,-2.2042,-2.2701,-2.222,-2.2201,-2.2309,-2.2387,-2.259,-2.2825,-2.2968,0.0,-2.3616,-2.4591,0.0,0.0,0.0,0.0,0.0,0.0,0.0,0.0,0.0,0.0,0.0,0.0,0.0,0.0,0.0,0.0,0.0,0.0,0.0,-3.8901,-3.8901,-3.8901,-3.9126,-3.9602,-3.9602,-3.9602,-3.9639,-4.0422,-4.0797,0.0,0.0,-4.2862,-4.3332,-4.3707,-4.3857,-4.3895,-4.4346,-4.4233,-4.3895,-4.4346,-4.4515,-4.4551,0.0,0.0,0.0,0.0,0.0,0.0,0.0,0.0,0.0,0.0,0.0,0.0,0.0,0.0,0.0,0.0,0.0,0.0,0.0,-2.4716,-2.4794,-2.4898,-2.4926,-2.4953,-2.4993,-2.5004,-2.5004,-2.5018,-2.5018,-2.5076,-2.5138,-2.5284,-2.5351,-2.5322,-2.535,-2.5403,-2.5521,-2.5521,-2.5582,-2.5673,0.0,0.0,0.0,0.0,0.0,0.0,0.0,0.0,0.0,0.0,0.0,0.0,0.0,0.0,0.0,-2.2205,-2.1475,-2.0896,-2.176,-2.1372,-2.0923,-2.1835,-2.256,-2.3125,-2.362,-2.3244,-2.2893,-2.3181,-2.317,-2.3109,-2.3182,-2.3599,0.0,-2.5851,0.0,0.0,0.0,0.0,0.0,0.0,0.0,0.0,0.0,0.0,0.0,0.0,0.0,0.0,0.0,0.0,0.0,0.0,0.0,0.0,-3.807,-3.8098,-3.855,-3.9295,-3.9349,-3.9373,-3.9392,-4.025,-4.0626,-4.0634,-4.1437,-4.2145,-4.2731,-4.2919,-4.2994,-4.3069,-4.3688,-4.367,-4.3388,-4.4214,-4.4515,-4.4524,0.0,0.0,0.0,0.0,0.0,0.0,0.0,0.0,0.0,0.0,0.0,0.0,0.0,0.0,0.0,0.0,0.0,0.0,0.0,-2.4832,-2.4888,-2.4902,-2.5032,-2.5063,-2.4993,-2.4993,-2.5038,-2.5101,-2.5101,-2.516,-2.5282,-2.5432,-2.5461,-2.5406,-2.546,-2.5526,-2.5598,-2.5598,-2.5634,-2.5624,-2.4824,0.0,0.0,0.0,0.0,0.0,0.0,0.0,0.0,0.0,0.0,0.0,0.0,0.0,-2.1343,-2.2009,-2.1049,-1.9988,-2.0859,-2.1033,-2.1138,-2.1827,-2.2371,-2.2828,-2.3171,-2.336,-2.3538,-2.3864,-2.3592,-2.3392,0.0,-2.406,-2.4801,-2.6376,0.0,0.0,0.0,0.0,0.0,0.0,0.0,0.0,0.0,0.0,0.0,0.0,0.0,0.0,0.0,0.0,0.0,0.0,0.0,0.0,-3.7368,-3.7566,-3.7905,-3.8394,-3.8568,-3.8677,-3.8696,-3.9776,-4.0156,-4.0003,-4.0836,-4.1095,-4.1041,-4.1792,-4.2085,-4.2111,-4.2141,-4.2637,-4.3388,-4.4214,-4.4515,-4.4524,0.0,0.0,0.0,0.0,0.0,0.0,0.0,0.0,0.0,0.0,0.0,-2.5271,-2.5053,0.0,0.0,0.0,0.0,0.0,0.0,-2.5056,-2.5094,-2.5101,-2.5144,-2.5125,-2.5057,-2.5019,-2.5044,-2.5111,-2.5179,-2.5283,-2.5369,-2.5464,-2.5498,-2.5467,-2.5492,-2.5537,-2.5601,-2.5606,-2.5633,-2.5664,-2.5309,-2.4835,0.0,0.0,0.0,0.0,0.0,0.0,0.0,0.0,-2.1004,-2.1128,-2.1033,-2.0712,-2.0391,-2.0646,-2.0251,-1.9832,-2.0164,-2.0226,-2.0356,-2.1078,-2.1699,-2.2482,-2.3768,-2.4132,-2.4174,-2.4137,-2.4025,-2.3969,0.0,0.0,-2.5155,0.0,0.0,0.0,0.0,0.0,0.0,0.0,0.0,0.0,0.0,0.0,0.0,0.0,0.0,0.0,0.0,0.0,0.0,0.0,0.0,0.0,0.0,-3.6819,-3.6955,-3.7128,-3.77,-3.8213,-3.8624,-3.9147,-3.9585,-3.9933,-4.0214,-4.0514,-4.0816,-4.1135,-4.1248,-4.1304,-4.1811,-4.2543,-4.3388,-4.4214,-4.4515,-4.4496,0.0,0.0,0.0,0.0,0.0,0.0,0.0,0.0,-2.5543,0.0,0.0,0.0,0.0,-2.533,0.0,0.0,0.0,0.0,-2.5212,-2.5209,-2.5195,-2.5191,-2.5191,-2.518,-2.5125,-2.5063,-2.5069,-2.5168,-2.5303,-2.5397,-2.544,-2.549,-2.5525,-2.5521,-2.5547,-2.5593,-2.5623,-2.5629,-2.5643,-2.5662,-2.5627,-2.5264,0.0,0.0,0.0,0.0,0.0,0.0,0.0,0.0,-2.0314,-2.0161,-2.0117,-1.999,-1.9858,-1.9813,-1.9844,-1.9861,-1.9861,-1.9976,-2.0301,-2.1081,-2.176,-2.2683,-2.4301,-2.4591,-2.4493,-2.4437,-2.4385,-2.4402,-2.4498,0.0,0.0,0.0,0.0,0.0,0.0,0.0,0.0,0.0,0.0,0.0,0.0,0.0,0.0,0.0,0.0,0.0,0.0,0.0,0.0,0.0,0.0,0.0,0.0,-3.5607,-3.5726,-3.5613,-3.6553,-3.7343,-3.8004,-3.8398,-3.8973,-3.968,-3.968,-4.0034,-4.0608,-4.0532,-4.0478,-4.0497,-4.1323,-4.1999,-4.2637,-4.3726,-4.412,-4.4158,0.0,0.0,0.0,0.0,0.0,0.0,0.0,0.0,-2.5609,-2.5607,-2.5589,0.0,0.0,0.0,0.0,0.0,0.0,0.0,-2.5203,-2.5209,-2.5206,-2.5191,-2.5191,-2.5191,-2.5191,-2.5139,-2.5168,-2.5311,-2.5434,-2.5495,-2.5509,-2.5576,-2.5591,-2.56,-2.5673,-2.5707,-2.5709,-2.5702,-2.5662,-2.5607,-2.5597,-2.5609,-2.5513,0.0,0.0,0.0,0.0,0.0,0.0,0.0,-2.0315,-2.0098,-2.0108,-1.9966,-1.9807,-1.9807,-1.9896,-1.9998,-2.0017,-2.0497,-2.1218,-2.2086,-2.2774,-2.3481,-2.4559,-2.4532,-2.4403,-2.4814,-2.47,-2.4578,-2.476,-2.4814,0.0,0.0,0.0,0.0,0.0,0.0,0.0,0.0,0.0,0.0,0.0,0.0,0.0,0.0,0.0,0.0,0.0,0.0,0.0,0.0,0.0,0.0,0.0,-3.389,-3.4224,-3.3914,-3.5104,-3.6052,-3.6733,-3.7522,-3.8354,-3.9185,-3.9185,-3.9569,-4.0177,-3.9979,-3.9777,-3.9695,-4.0478,-4.0797,-4.1004,-4.2675,-4.3294,-4.3426,0.0,0.0,0.0,0.0,0.0,0.0,0.0,0.0,-2.5664,-2.5664,-2.5637,0.0,0.0,0.0,0.0,0.0,0.0,0.0,-2.5201,-2.5254,-2.5234,-2.5137,-2.518,-2.5195,-2.5192,-2.5274,-2.5274,-2.5222,-2.5406,-2.5507,-2.5505,-2.556,-2.5604,-2.5605,-2.5676,-2.5694,-2.5702,-2.5641,-2.5625,-2.5597,-2.561,-2.5595,-2.5571,0.0,0.0,0.0,0.0,0.0,0.0,0.0,0.0,0.0,-2.0001,-1.9918,-1.9858,-1.9813,-1.9832,-1.9986,-2.0618,-2.0944,-2.1323,-2.2117,-2.2922,-2.3634,-2.389,-2.4279,-2.4654,-2.4907,-2.4921,-2.4888,-2.4987,0.0,0.0,0.0,0.0,0.0,0.0,0.0,0.0,0.0,0.0,0.0,0.0,0.0,0.0,0.0,0.0,0.0,0.0,0.0,0.0,0.0,0.0,0.0,0.0,0.0,-3.3437,-3.3338,-3.4186,-3.5243,-3.6508,-3.698,-3.753,-3.8084,-3.8216,-3.8668,-3.9318,-3.9711,-3.9777,-3.9695,-4.0478,-4.0797,-4.1004,-4.2675,-4.3294,-4.3426,0.0,0.0,0.0,0.0,0.0,0.0,-2.5615,-2.5664,-2.567,-2.5666,-2.5636,-2.5605,0.0,0.0,0.0,-2.5486,-2.5511,0.0,-2.5264,-2.5274,-2.5255,-2.5134,-2.5176,-2.5209,-2.5253,-2.5359,-2.5359,-2.5282,-2.5434,-2.5507,-2.5543,-2.5622,-2.5644,-2.5632,-2.5683,-2.5694,-2.5702,-2.5638,-2.5601,-2.56,-2.5595,-2.5609,-2.5604,0.0,0.0,0.0,0.0,0.0,0.0,0.0,0.0,0.0,-2.0011,-1.9918,-1.9858,-1.9884,-1.99,-2.0042,-2.0589,-2.0961,-2.1388,-2.2262,-2.3057,-2.3739,-2.4049,-2.4515,-2.494,-2.505,-2.505,-2.505,-2.5164,-2.5623,0.0,0.0,0.0,0.0,0.0,0.0,0.0,0.0,0.0,0.0,0.0,0.0,0.0,0.0,0.0,0.0,0.0,0.0,0.0,0.0,0.0,0.0,0.0,0.0,0.0,-3.258,-3.3334,-3.416,-3.5032,-3.5907,-3.6691,-3.7333,-3.7743,-3.8284,-3.8936,-3.9237,-3.9475,-3.9658,-4.0121,-4.0309,-4.0478,-4.1811,-4.2299,-4.2468,0.0,0.0,-2.3442,-2.4166,0.0,0.0,-2.5477,-2.5605,-2.5609,-2.5593,-2.5598,-2.5639,0.0,0.0,0.0,-2.5613,-2.5595,-2.5517,-2.532,-2.5311,-2.5293,-2.5222,-2.5203,-2.5262,-2.5302,-2.536,-2.5416,-2.5418,-2.547,-2.5538,-2.5592,-2.5669,-2.5696,-2.5705,-2.5707,-2.5707,-2.5693,-2.5622,-2.5607,-2.5603,-2.5605,-2.5595,-2.5598,-2.5598,0.0,0.0,0.0,0.0,0.0,0.0,0.0,0.0,-2.0117,-2.0023,-1.9919,-1.9963,-2.0088,-2.0209,-2.0271,-2.0737,-2.1473,-2.2537,-2.3279,-2.3952,-2.4745,-2.5069,-2.5203,-2.519,0.0,-2.508,-2.5283,0.0,0.0,0.0,0.0,0.0,0.0,0.0,0.0,0.0,0.0,0.0,0.0,0.0,0.0,0.0,0.0,0.0,0.0,0.0,0.0,0.0,0.0,0.0,0.0,0.0,0.0,0.0,-3.256,-3.2913,-3.2852,-3.4462,-3.5721,-3.6687,-3.7462,-3.8112,-3.8632,-3.861,-3.8946,-3.9508,-3.9583,-3.9602,-3.9714,-4.0497,-4.0797,-4.1022,0.0,0.0,-2.4092,-2.4268,0.0,0.0,-2.5562,-2.5593,-2.5599,-2.5589,-2.5605,-2.5636,-2.5687,-2.5703,0.0,-2.5605,-2.5609,-2.5529,-2.5395,-2.5429,-2.5404,-2.5292,-2.5322,-2.536,-2.5388,-2.5437,-2.5472,-2.5479,-2.5503,-2.5531,-2.5591,-2.5668,-2.5691,-2.5707,-2.5701,-2.5696,-2.5703,-2.5637,-2.5598,-2.5609,-2.559,-2.5604,-2.5595,-2.559,-2.5595,0.0,0.0,0.0,0.0,0.0,0.0,0.0,-2.0211,-2.0391,-2.075,-2.0049,-2.0349,-2.0892,-2.0969,-2.1135,-2.1651,-2.3261,-2.4251,-2.4903,-2.5087,-2.5168,-2.518,-2.5056,-2.5103,-2.5201,0.0,0.0,0.0,0.0,0.0,0.0,0.0,0.0,0.0,0.0,0.0,0.0,0.0,0.0,0.0,0.0,0.0,0.0,0.0,0.0,0.0,0.0,0.0,0.0,-3.0598,-3.0772,-3.0868,0.0,-3.17,-3.2067,-3.2066,-3.3128,-3.4002,-3.4796,-3.629,-3.6859,-3.6786,-3.8074,-3.8587,-3.8657,-3.9314,-3.9602,-3.9714,-4.0497,-4.0772,-4.0851,0.0,0.0,0.0,0.0,0.0,0.0,0.0,0.0,-2.5517,-2.5556,-2.5556,-2.5576,-2.5645,-2.5654,0.0,0.0,-2.5598,-2.5532,-2.541,-2.5437,-2.5412,-2.5361,-2.5379,-2.5412,-2.5449,-2.5471,-2.5525,-2.5593,-2.5593,-2.5607,-2.5646,-2.5681,-2.5707,-2.5691,-2.5709,-2.5693,-2.57,-2.564,-2.5603,-2.5603,-2.5595,-2.5593,-2.5604,-2.5607,-2.5556,-2.5383,-2.4516,0.0,0.0,0.0,0.0,0.0,0.0,0.0,-2.1029,-2.0594,-2.0788,-2.1081,-2.0762,-2.0708,-2.1148,-2.2838,-2.4243,-2.5191,-2.5191,-2.5191,-2.5191,-2.5122,-2.5149,0.0,0.0,0.0,0.0,0.0,0.0,0.0,0.0,0.0,0.0,0.0,0.0,0.0,0.0,0.0,0.0,0.0,0.0,0.0,0.0,0.0,0.0,0.0,0.0,0.0,-3.0037,-3.0404,-3.0385,-2.9998,-3.083,-3.1236,-3.1275,-3.2461,-3.3415,-3.4134,-3.4902,-3.5564,-3.6157,-3.6963,-3.7457,-3.7774,-3.8225,-3.8638,-3.9014,-3.9421,-3.9783,-4.0244,0.0,0.0,0.0,0.0,0.0,0.0,0.0,0.0,0.0,-2.5503,-2.5505,-2.5531,-2.5589,-2.5603,-2.5602,0.0,0.0,0.0,-2.5437,-2.5426,-2.5421,-2.5425,-2.5432,-2.5449,-2.5511,-2.5525,-2.5585,-2.5694,-2.5701,-2.5706,-2.5693,-2.5703,-2.5703,-2.5703,-2.5694,-2.5707,-2.5709,-2.5622,-2.5609,-2.5605,-2.5605,-2.5601,-2.5601,-2.5589,-2.5505,-2.5318,-2.4648,-2.3798,-2.2981,-2.2794,0.0,0.0,0.0,0.0,-2.1431,-2.1244,-2.1309,-2.1236,-2.0327,-2.0184,-2.068,-2.2218,-2.3804,-2.5019,-2.5172,-2.5191,-2.5203,-2.519,-2.5212,0.0,0.0,0.0,0.0,0.0,0.0,0.0,0.0,0.0,0.0,0.0,0.0,0.0,0.0,0.0,0.0,0.0,0.0,0.0,0.0,0.0,0.0,0.0,0.0,-3.012,-2.9414,-2.9919,-2.9805,-2.9089,-2.9959,-3.0385,-3.0424,-3.1827,-3.2878,-3.3632,-3.3658,-3.4415,-3.5663,-3.5813,-3.6291,-3.6911,-3.7024,-3.7563,-3.8276,-3.8203,-3.8721,-3.9537,0.0,0.0,0.0,0.0,0.0,0.0,0.0,0.0,0.0,0.0,-2.5492,-2.5525,-2.5595,-2.5609,-2.5622,-2.5683,-2.5634,-2.5561,-2.5493,0.0,0.0,-2.5498,-2.5538,-2.5574,-2.5581,-2.5586,-2.5619,-2.5703,-2.5693,-2.5701,-2.5693,-2.5696,-2.5698,-2.5691,-2.5709,-2.5707,-2.5709,-2.5622,-2.5609,-2.5605,-2.5605,-2.5601,-2.5595,-2.5529,-2.548,-2.5387,-2.5277,-2.4662,-2.3816,-2.305,-2.2593,0.0,0.0,0.0,-2.307,-2.1616,-2.1738,-2.1988,-2.0424,-2.0551,-2.1365,-2.2361,-2.3346,-2.4263,-2.5038,-2.5191,-2.5203,0.0,0.0,0.0,0.0,0.0,0.0,0.0,0.0,0.0,0.0,0.0,0.0,0.0,0.0,0.0,0.0,0.0,0.0,0.0,0.0,0.0,0.0,-2.7784,-2.8627,-2.9532,-2.9571,0.0,-2.9401,-2.8749,-2.8352,-2.8189,-2.905,-2.9476,-2.9495,-3.0293,-3.106,-3.1828,-3.3249,-3.3825,-3.3874,-3.5296,-3.5953,-3.6122,-3.6771,-3.7497,-3.8203,-3.8134,-3.8581,-3.9256,0.0,0.0,0.0,0.0,0.0,0.0,0.0,0.0,0.0,0.0,0.0,-2.557,-2.5607,-2.5605,-2.5612,-2.5638,-2.5615,-2.5561,-2.5492,-2.551,-2.549,-2.5506,-2.5499,-2.5517,-2.5604,-2.56,-2.5636,-2.571,-2.5698,-2.5705,-2.5707,-2.5693,-2.5691,-2.5707,-2.5707,-2.5694,-2.5703,-2.5638,-2.5601,-2.56,-2.556,-2.5551,-2.5531,-2.5472,-2.5429,-2.5277,-2.435,-2.3752,-2.3273,-2.2323,-2.2009,-2.2058,-2.2502,0.0,0.0,0.0,-2.214,-2.2076,-2.0454,-2.0659,-2.1453,-2.1836,-2.2925,-2.3995,-2.4377,-2.4847,-2.5203,0.0,0.0,0.0,0.0,0.0,0.0,0.0,0.0,0.0,0.0,0.0,0.0,0.0,0.0,0.0,0.0,0.0,0.0,0.0,0.0,0.0,-2.6851,-2.7295,-2.7917,-2.8754,-2.8774,0.0,-2.8009,-2.8102,-2.8109,-2.8014,-2.8876,-2.9293,-2.9342,-3.0065,-3.0758,-3.1435,-3.205,-3.2467,-3.2777,-3.3896,-3.4383,-3.4458,-3.524,-3.6058,-3.6807,-3.6715,-3.7485,-3.854,0.0,0.0,0.0,0.0,0.0,0.0,0.0,0.0,0.0,0.0,0.0,-2.5609,-2.5609,0.0,0.0,0.0,-2.5601,-2.5565,-2.5476,-2.5461,-2.5464,-2.5493,-2.5466,-2.5505,-2.5598,-2.56,-2.564,-2.5703,-2.5676,-2.5676,-2.5705,-2.5705,-2.5705,-2.5707,-2.5707,-2.5698,-2.5702,-2.5634,-2.5598,-2.5586,-2.5537,-2.5505,-2.549,-2.5418,-2.5393,-2.5211,-2.376,-2.3076,-2.2724,-2.1741,-2.1541,-2.1905,-2.3037,-2.3563,0.0,0.0,0.0,-2.1525,-2.0354,-2.0527,-2.1101,-2.1349,-2.2486,-2.3575,-2.3575,0.0,-2.5134,0.0,0.0,0.0,0.0,0.0,0.0,0.0,0.0,0.0,0.0,0.0,0.0,0.0,0.0,0.0,0.0,0.0,0.0,0.0,0.0,0.0,-2.6565,-2.6848,-2.7304,-2.7949,-2.7968,-2.7635,-2.6909,-2.7314,-2.7458,-2.7359,-2.8433,-2.8946,-2.8985,-3.0028,-3.0729,-3.1121,-3.1111,-3.1393,-3.1897,-3.2804,-3.3212,-3.3287,-3.4087,-3.4904,-3.5669,-3.5597,-3.6447,-3.7694,-2.0496,0.0,0.0,-2.1537,-2.2447,0.0,-2.4064,-2.4999,0.0,0.0,0.0,-2.5596,-2.5609,-2.5602,-2.5609,-2.5597,-2.5602,-2.5551,-2.5406,-2.5354,-2.5379,-2.5492,-2.5556,0.0,-2.5601,-2.56,-2.5632,-2.569,-2.5632,-2.5639,-2.5701,-2.5701,-2.5703,-2.5707,-2.5707,-2.5697,-2.5703,-2.5636,-2.5603,-2.5584,-2.5529,-2.5506,-2.5486,-2.5434,-2.5401,-2.5286,-2.4436,-2.3554,-2.2648,-2.1713,-2.1914,-2.2552,-2.2555,-2.3179,-2.3717,0.0,0.0,0.0,-2.0098,-2.0079,-2.0288,-2.1187,-2.2038,-2.2677,0.0,0.0,0.0,0.0,0.0,0.0,0.0,0.0,0.0,0.0,0.0,0.0,0.0,0.0,0.0,0.0,0.0,0.0,0.0,0.0,0.0,0.0,0.0,0.0,-2.5763,-2.6548,-2.7022,-2.7067,-2.7068,-2.7017,-2.6907,-2.6048,-2.5611,-2.555,-2.719,-2.7981,-2.8029,-2.9737,-3.0452,-3.0394,-3.0952,-3.1137,-3.1186,-3.2625,-3.3212,-3.3265,-3.4018,-3.4833,-3.5597,-3.5547,-3.6043,-3.6872,0.0,0.0,-2.0698,-2.1512,-2.2445,0.0,-2.4105,-2.506,-2.5643,0.0,0.0,0.0,0.0,-2.5601,-2.5574,-2.5489,-2.5418,-2.538,-2.534,-2.5311,-2.5337,-2.5434,-2.5456,-2.5492,-2.5529,-2.5549,-2.5565,-2.5639,-2.5609,-2.5601,-2.5636,-2.5687,-2.5701,-2.5691,-2.5709,-2.5681,-2.5637,-2.5613,-2.5593,-2.5589,-2.5538,-2.5538,-2.5544,-2.5441,-2.5089,-2.4513,-2.3661,-2.2789,-2.1895,-2.1004,-2.1194,-2.1924,-2.2416,-2.3179,-2.3728,-2.2868,-2.1406,-2.0069,-2.0088,-2.0079,-2.0146,-2.047,-2.1206,-2.1817,-2.1776,-2.3114,0.0,0.0,0.0,0.0,0.0,0.0,0.0,0.0,0.0,0.0,0.0,0.0,0.0,0.0,0.0,0.0,0.0,0.0,0.0,0.0,0.0,0.0,-2.5707,-2.6,-2.6177,-2.6161,-2.6161,-2.6139,-2.6065,-2.5738,-2.5503,-2.5406,-2.6583,-2.7113,-2.7113,-2.8299,-2.9096,-2.9536,-2.9527,-2.9761,-3.0245,-3.1136,-3.1853,-3.237,-3.3148,-3.3985,-3.471,-3.4686,-3.52,-3.5962,0.0,-2.0449,-2.0661,-2.1559,0.0,-2.3337,-2.4138,-2.5035,-2.5626,-2.558,0.0,0.0,0.0,0.0,-2.5521,-2.542,-2.5292,-2.5233,-2.5264,-2.5224,-2.5244,-2.534,-2.5321,-2.5357,-2.543,-2.5437,-2.5505,-2.557,-2.5574,-2.5576,-2.558,-2.5636,-2.5681,-2.5701,-2.5696,-2.5681,-2.5629,-2.5629,-2.5626,-2.5586,-2.5531,-2.5344,-2.513,-2.5027,-2.4505,-2.367,-2.2804,0.0,-2.1455,-2.0564,-2.0773,-2.1501,-2.1999,-2.2571,-2.2887,-2.2027,-2.0977,-2.0088,-2.0088,-2.0088,-2.0088,-2.0088,-2.0766,-2.1321,-2.0955,0.0,0.0,0.0,0.0,0.0,0.0,0.0,0.0,0.0,0.0,0.0,0.0,0.0,0.0,0.0,0.0,0.0,0.0,0.0,0.0,0.0,0.0,0.0,-2.5707,-2.5707,-2.5707,-2.5707,-2.5707,-2.5662,-2.5593,-2.5589,-2.5517,-2.5412,-2.6265,-2.6641,-2.6622,-2.7498,-2.8335,-2.9071,-2.8751,-2.9025,-2.9809,-3.0368,-3.1058,-3.1875,-3.2692,-3.3491,-3.4197,-3.4197,-3.4569,-3.5107,-2.0473,-2.0441,-2.0664,-2.1555,-2.2424,-2.3276,-2.4074,-2.4935,-2.5504,-2.5504,0.0,0.0,0.0,0.0,0.0,-2.5408,-2.521,-2.5118,-2.5182,-2.5063,-2.5038,-2.5171,-2.5182,-2.5224,-2.5283,-2.5351,-2.5415,-2.5495,-2.5495,-2.5505,-2.5498,-2.5574,-2.5625,-2.566,-2.5699,-2.5672,-2.5668,-2.5687,-2.5645,-2.5566,-2.5523,-2.4982,-2.4206,-2.4196,-2.3707,-2.2881,-2.202,-2.164,-2.1436,-2.0508,-2.0747,-2.1402,-2.1349,-2.1368,-2.1235,-2.0384,-2.0108,-2.0088,0.0,0.0,0.0,-2.0088,-2.0747,0.0,-2.0212,0.0,0.0,0.0,0.0,0.0,0.0,0.0,0.0,0.0,0.0,0.0,0.0,0.0,0.0,0.0,0.0,0.0,0.0,0.0,0.0,0.0,0.0,-2.5707,-2.5707,-2.5707,-2.5707,-2.5707,-2.5707,-2.5676,-2.5601,-2.5532,-2.5467,-2.5406,-2.6188,-2.6563,-2.6601,-2.7448,-2.8255,-2.9014,-2.8713,-2.9071,-2.9907,-3.0372,-3.1021,-3.1838,-3.2618,-3.3436,-3.416,-3.416,-3.4179,-3.4309,-2.0424,-2.041,-2.0662,-2.1551,-2.241,-2.3264,-2.4077,-2.4934,-2.5503,0.0,0.0,0.0,-2.5503,-2.5414,-2.5332,-2.5269,-2.5032,-2.4888,-2.4915,-2.4837,-2.4794,-2.4851,-2.4934,-2.5013,-2.5087,-2.5157,-2.5233,-2.5351,-2.5406,-2.5418,-2.5425,-2.5499,-2.5224,-2.4701,-2.5356,-2.5301,-2.4799,-2.5425,-2.5334,-2.4783,-2.5346,-2.5051,-2.4275,-2.4213,-2.3702,0.0,0.0,-2.1323,-2.0697,0.0,-2.0862,-2.1567,-2.2144,-2.1895,-2.134,-2.1101,-2.0595,-2.0088,-2.0088,0.0,0.0,0.0,0.0,0.0,-2.0078,-2.1081,0.0,0.0,0.0,0.0,0.0,0.0,0.0,0.0,0.0,0.0,0.0,0.0,0.0,0.0,0.0,0.0,0.0,0.0,0.0,0.0,0.0,-2.5707,-2.5707,-2.5707,-2.5707,-2.5707,-2.5707,-2.5676,-2.5601,-2.5532,-2.5467,-2.5406,-2.5591,-2.5649,-2.5668,-2.5909,-2.6486,-2.7322,-2.7542,-2.8149,-2.9001,-2.9512,-3.0225,-3.0946,-3.1191,-3.2098,-3.3324,-3.3324,-3.3696,-3.4234,-2.0394,-2.0377,-2.0758,-2.1983,-2.2598,-2.3314,-2.4515,-2.5108,-2.541,0.0,0.0,0.0,-2.5387,-2.5311,-2.5234,-2.5168,-2.4915,-2.476,-2.4804,-2.4657,-2.458,-2.4629,-2.4719,-2.4808,-2.487,-2.4968,-2.5068,-2.5157,-2.5264,-2.5331,-2.5339,-2.5054,-2.4678,-2.4282,-2.4826,-2.4614,-2.3906,-2.4785,-2.5055,-2.492,-2.5017,-2.4758,-2.4219,-2.3459,-2.2882,0.0,0.0,0.0,-2.0433,-2.0415,-2.065,0.0,-2.2326,-2.2096,-2.1407,-2.1388,-2.1044,-2.0556,-2.0212,-2.0088,-2.0088,-2.0088,0.0,0.0,-2.0011,-2.0737,-2.1521,0.0,0.0,0.0,0.0,0.0,0.0,0.0,0.0,0.0,0.0,0.0,0.0,0.0,0.0,0.0,0.0,0.0,0.0,0.0,-2.5679,-2.5703,-2.5707,-2.5707,-2.5707,-2.5707,-2.5707,-2.5676,-2.5601,-2.5532,-2.5467,-2.5406,-2.5331,-2.5303,-2.5303,-2.5303,-2.5744,-2.6554,-2.7077,-2.7762,-2.8563,-2.9155,-2.9872,-3.0615,-3.0615,-3.1578,-3.299,-3.299,-3.351,-3.4197,0.0,-2.0341,-2.0848,-2.2591,-2.2832,-2.3375,-2.5119,-2.5332,-2.5293,0.0,-2.5274,-2.5253,-2.5201,-2.5201,-2.516,-2.5103,-2.4847,-2.4704,-2.4775,-2.453,-2.4393,-2.4461,-2.4526,-2.4591,-2.4676,-2.479,-2.4902,-2.4981,-2.5103,-2.5163,-2.5118,-2.4409,-2.4014,-2.3914,-2.4086,-2.3706,-2.3006,-2.3885,-2.4726,-2.5389,-2.4518,-2.4107,0.0,0.0,-2.1744,-2.1698,-2.0818,-2.0516,-2.0535,-2.0642,-2.0527,0.0,0.0,0.0,0.0,-2.155,-2.1541,-2.1369,-2.0595,-2.0308,-2.0251,-2.0251,-2.0165,0.0,-2.0021,-2.0661,-2.1272,0.0,0.0,0.0,0.0,0.0,0.0,0.0,0.0,0.0,0.0,0.0,0.0,0.0,0.0,0.0,0.0,0.0,-2.5593,-2.5601,-2.5658,-2.5693,-2.5683,-2.5681,-2.5681,-2.5681,-2.5679,-2.5645,-2.557,-2.5515,-2.5453,-2.5387,-2.5331,-2.5303,-2.5303,-2.5303,-2.5655,-2.6319,-2.6916,-2.7598,-2.833,-2.8985,-2.9741,-3.0485,-3.0485,-3.1452,-3.286,-3.2767,-3.3361,-3.4179,-2.0391,-2.0381,-2.0898,-2.2538,-2.2805,-2.3356,-2.4985,-2.5231,-2.522,-2.522,-2.5179,-2.5126,-2.5118,-2.5118,-2.5106,-2.5107,-2.476,-2.4538,-2.4554,-2.4321,-2.419,-2.4266,-2.4266,-2.4355,-2.4528,-2.4629,-2.4719,-2.4847,-2.4929,-2.4664,-2.4099,-2.4,-2.3275,-2.2132,-2.2916,-2.2809,-2.2119,-2.298,-2.3844,-2.4551,-2.3698,-2.2903,-2.2257,-2.1906,-2.1783,-2.1692,-2.0876,-2.0588,-2.0772,-2.2003,-2.1894,-2.1534,0.0,0.0,0.0,-2.246,0.0,0.0,0.0,0.0,0.0,0.0,0.0,0.0,-2.0079,-2.0222,-2.0556,0.0,0.0,0.0,0.0,0.0,0.0,0.0,0.0,0.0,0.0,0.0,0.0,0.0,0.0,0.0,0.0,0.0,-2.5546,-2.5598,-2.5605,-2.5629,-2.5613,-2.557,-2.5532,-2.5532,-2.5482,-2.544,-2.5447,-2.5372,-2.5324,-2.5318,-2.5322,-2.5292,-2.5302,-2.5293,-2.537,-2.555,-2.6097,-2.679,-2.756,-2.811,-2.8868,-2.963,-2.963,-3.0634,-3.1949,-3.1299,-3.2395,-3.4104,-2.0448,-2.0363,-2.0843,-2.2545,-2.2786,-2.3304,-2.4952,-2.5176,-2.5141,-2.5141,-2.5118,-2.5082,-2.5044,-2.5044,-2.5051,-2.505,-2.4764,-2.4575,-2.4474,-2.4248,-2.4114,-2.4036,-2.4095,-2.4191,-2.4339,-2.4429,-2.453,-2.4704,-2.4779,-2.4652,-2.4334,-2.3553,-2.2833,-2.2196,-2.2261,-2.1874,-2.1201,-2.2088,-2.2699,-2.3078,-2.2632,0.0,-2.2958,-2.165,-2.143,-2.1733,-2.0907,-2.085,-2.1115,-2.0555,-2.1183,0.0,0.0,-2.2699,-2.34,0.0,-2.3292,-2.3205,0.0,0.0,0.0,-2.1407,0.0,0.0,0.0,-2.0747,-2.0996,0.0,0.0,0.0,0.0,0.0,0.0,0.0,0.0,0.0,0.0,0.0,0.0,0.0,0.0,0.0,0.0,0.0,-2.5473,-2.5551,-2.5556,-2.5552,-2.5598,-2.5547,-2.5502,-2.5502,-2.5421,-2.5381,-2.5356,-2.5316,-2.5283,-2.5255,-2.5253,-2.5252,-2.5252,-2.5273,-2.5201,-2.5094,-2.5768,-2.6192,-2.6483,-2.7584,-2.8322,-2.8748,-2.9219,-3.015,-3.1154,-3.0764,-3.1615,-3.2934,-2.0488,-2.0507,-2.102,-2.2643,-2.2948,-2.3477,-2.496,-2.513,-2.5088,-2.5076,-2.5082,-2.5057,-2.5012,-2.4985,-2.4972,-2.4964,-2.4768,-2.4559,-2.4372,-2.4248,-2.4077,-2.3896,-2.3937,-2.4036,-2.417,-2.4209,-2.4302,-2.453,-2.4578,-2.4516,-2.4369,-2.324,-2.2634,-2.2455,-2.1352,-2.0803,-2.0721,-2.0781,-2.1199,-2.1789,0.0,-2.2498,-2.365,-2.1375,-2.0982,-2.157,-2.1031,-2.1265,-2.151,-1.9651,-2.0869,-2.2926,-2.1611,-2.2593,0.0,0.0,0.0,0.0,0.0,0.0,0.0,0.0,0.0,-2.1598,0.0,0.0,0.0,0.0,0.0,0.0,0.0,0.0,0.0,0.0,0.0,0.0,0.0,0.0,0.0,0.0,0.0,0.0,0.0,0.0,-2.5437,-2.5492,-2.5486,-2.5511,-2.5566,-2.5504,-2.546,-2.546,-2.5413,-2.5352,-2.5274,-2.5274,-2.5245,-2.5201,-2.5201,-2.5201,-2.5201,-2.5252,-2.5122,-2.4884,-2.5513,-2.5689,-2.5671,-2.6982,-2.7721,-2.8091,-2.901,-2.9848,-3.0535,-3.0386,-3.0943,-3.1741,-2.0486,-2.1107,-2.1905,-2.2834,-2.3515,-2.4221,-2.5061,-2.508,-2.5012,-2.5004,-2.5023,-2.501,-2.4991,-2.4884,-2.4808,-2.4808,-2.4591,-2.4355,-2.4248,-2.4096,-2.3958,-2.3816,-2.3876,-2.3976,-2.4113,-2.3937,-2.3999,-2.4321,-2.421,-2.3592,-2.252,-2.3172,-2.2747,-2.1369,-1.9131,-1.9375,-2.1298,-1.8471,-1.9029,0.0,-2.0957,-2.1222,0.0,-2.0914,-2.0605,-2.0836,-2.1503,-2.1777,-2.1971,0.0,-2.3738,-2.4135,0.0,-2.4918,-2.5139,-2.5069,0.0,0.0,0.0,0.0,0.0,0.0,-2.2467,0.0,0.0,0.0,0.0,0.0,0.0,0.0,0.0,0.0,0.0,0.0,0.0,0.0,0.0,0.0,0.0,0.0,0.0,0.0,0.0,0.0,0.0,-2.5412,-2.548,-2.5488,-2.5429,-2.536,-2.5313,-2.5313,-2.5261,-2.5217,-2.5206,-2.5206,-2.5214,-2.5203,-2.5206,-2.5198,-2.5198,-2.5201,-2.5126,-2.4968,-2.4955,-2.5264,-2.576,-2.5782,-2.6648,-2.8091,-2.8886,-2.9721,-3.035,-2.9628,-3.0331,-3.1533,-2.1146,-2.1488,-2.2115,-2.3509,-2.392,-2.431,-2.513,-2.5141,-2.5044,-2.501,-2.501,-2.501,-2.501,-2.495,-2.487,-2.4813,0.0,-2.4526,0.0,-2.402,-2.386,-2.3795,-2.35,-2.3477,-2.3753,-2.3522,-2.3311,-2.3129,-2.3606,-2.3417,-2.2662,-2.3111,-2.3065,-2.2538,-2.0593,-2.037,-2.1364,-1.956,-1.9927,0.0,0.0,0.0,0.0,-2.0827,-2.0838,-2.1347,-2.1758,-2.2519,-2.3105,0.0,-2.2932,0.0,0.0,0.0,0.0,0.0,0.0,0.0,0.0,0.0,0.0,0.0,0.0,0.0,-2.1579,0.0,-2.3346,0.0,0.0,0.0,0.0,0.0,0.0,0.0,0.0,0.0,0.0,0.0,0.0,0.0,0.0,0.0,0.0,0.0,0.0,0.0,0.0,-2.4891,-2.5376,-2.5332,-2.5311,-2.5311,-2.5236,-2.5191,-2.5191,-2.5191,-2.5191,-2.5191,-2.5203,-2.5203,-2.5214,-2.5198,-2.5056,-2.4818,-2.4775,-2.4797,-2.4894,-2.5279,-2.5867,-2.6567,-2.7377,-2.823,-2.9034,-2.9163,-2.9329,-2.9533,-2.1997,-2.2061,-2.246,-2.4028,-2.4324,-2.4543,-2.5135,-2.5101,-2.4991,-2.501,-2.4936,-2.4908,-2.495,-2.4922,-2.4832,-2.467,-2.4639,-2.4493,0.0,0.0,-2.378,-2.375,-2.3294,-2.3159,-2.3473,-2.3177,-2.2764,-2.2271,-2.2847,-2.2829,-2.2278,-2.2772,-2.305,-2.3042,-2.1217,-2.0874,-2.1569,0.0,-2.0011,-2.1233,-2.0682,-2.0813,-2.1254,-2.0709,-2.1045,-2.1833,-2.2129,-2.316,-2.4059,-2.1737,-2.2979,0.0,-2.2559,0.0,0.0,0.0,0.0,0.0,-2.519,0.0,0.0,0.0,0.0,0.0,0.0,0.0,0.0,0.0,0.0,0.0,0.0,0.0,0.0,-2.3949,0.0,0.0,0.0,0.0,0.0,0.0,0.0,0.0,0.0,0.0,0.0,0.0,0.0,0.0,-2.5274,-2.5231,-2.5187,-2.5187,-2.5191,-2.5156,-2.5156,-2.518,-2.5191,-2.5191,-2.5191,-2.5191,-2.5191,-2.5141,-2.4961,-2.4707,-2.4639,-2.4459,-2.4245,-2.4814,-2.5201,-2.5458,-2.6043,-2.6633,-2.7298,-2.8327,-2.8519,-2.8359,-2.2893,-2.3011,-2.3242,-2.4137,-2.4834,-2.5203,-2.5044,-2.4846,-2.4768,-2.4964,-2.4772,0.0,0.0,0.0,0.0,0.0,0.0,-2.4078,-2.3735,0.0,-2.375,0.0,0.0,-2.3394,-2.3394,-2.301,-2.2601,-2.2206,-2.2046,-2.1419,-2.0426,-2.2045,-2.25,-2.1848,-1.9467,-1.9857,-2.2114,-1.8108,-1.7905,-2.0262,-2.036,-2.0386,-2.036,0.0,-2.1039,-2.1918,-2.2751,0.0,0.0,-2.5177,-2.544,0.0,0.0,0.0,0.0,0.0,0.0,0.0,0.0,0.0,0.0,-2.4066,0.0,0.0,0.0,0.0,-2.4943,0.0,0.0,0.0,0.0,-2.5171,-2.4881,-2.4028,-2.4629,0.0,0.0,0.0,0.0,0.0,0.0,0.0,0.0,0.0,0.0,0.0,0.0,0.0,-2.5057,-2.4974,-2.4915,-2.4915,-2.5038,-2.5101,-2.5101,-2.5175,-2.5191,-2.5191,-2.5191,-2.5191,-2.5191,-2.5,-2.4832,-2.4692,-2.4493,-2.4338,-2.419,-2.4226,-2.4685,-2.5403,-2.5439,-2.5296,-2.5284,-2.6879,-2.8093,-2.8957,-2.2075,-2.2641,-2.3432,-2.4844,-2.5236,-2.5284,-2.5051,-2.494,-2.4912,0.0,0.0,0.0,0.0,-2.4657,-2.4493,0.0,0.0,-2.4039,-2.3795,-2.3566,0.0,0.0,0.0,-2.2764,-2.2867,-2.2047,-2.1362,-2.0876,-2.1427,-2.1359,-2.0733,-2.2455,-2.3236,-2.3104,-2.193,-2.168,0.0,0.0,0.0,0.0,0.0,-2.0314,-2.0308,0.0,0.0,-2.2649,-2.2982,-2.4037,0.0,-2.5515,-2.5587,-2.5561,-2.5488,-2.5448,-2.5407,-2.5376,-2.5322,0.0,0.0,0.0,-2.434,-2.4032,0.0,0.0,0.0,0.0,0.0,0.0,0.0,0.0,0.0,-2.5234,-2.5094,-2.4804,-2.5015,-2.5099,0.0,0.0,0.0,0.0,0.0,0.0,0.0,0.0,0.0,0.0,0.0,0.0,0.0,-2.4915,-2.4902,-2.4902,-2.4947,-2.498,-2.498,-2.4987,-2.5,-2.5,-2.5,-2.5,-2.5,-2.4888,-2.4764,-2.4631,-2.4476,-2.4321,-2.419,-2.419,-2.4355,-2.4612,-2.4612,-2.5093,-2.5855,-2.6403,-2.6718,-2.6927,-2.2107,-2.3081,-2.4076,-2.4891,-2.5178,-2.5194,-2.4934,0.0,0.0,0.0,-2.4817,0.0,-2.4645,0.0,-2.4284,0.0,-2.3842,-2.3738,-2.3558,-2.3248,0.0,-2.323,-2.2703,0.0,0.0,-2.1813,-2.1123,-2.051,-2.1207,-2.1257,-2.0785,-2.2233,-2.3062,-2.3322,-2.3011,-2.2535,-2.1928,-2.1393,-2.0716,0.0,0.0,-2.0299,0.0,0.0,-2.156,0.0,0.0,-2.4002,-2.5272,-2.5543,-2.5596,-2.555,-2.5515,-2.5456,-2.5406,-2.5393,-2.5369,-2.5341,-2.5302,-2.4889,0.0,0.0,-2.4465,0.0,-2.3362,0.0,0.0,0.0,0.0,0.0,0.0,0.0,-2.5241,-2.519,-2.5198,-2.5184,0.0,-2.5082,0.0,0.0,0.0,0.0,0.0,0.0,0.0,0.0,0.0,0.0,0.0,0.0,-2.4818,-2.4818,-2.4847,-2.4861,-2.4861,-2.4888,-2.4902,-2.4902,-2.4902,-2.4902,-2.4902,-2.476,-2.4657,-2.4547,-2.4338,-2.421,-2.4132,-2.4132,-2.4132,-2.415,-2.4482,-2.5008,-2.5601,-2.5613,-2.5649,-2.579,-2.2918,-2.4164,-2.5018,-2.436,-2.4716,0.0,0.0,0.0,-2.4707,0.0,-2.4479,-2.4357,-2.4478,-2.4229,-2.3858,-2.3346,-2.3277,-2.32,-2.3077,-2.2833,0.0,0.0,-2.2598,-2.2371,-2.2343,0.0,0.0,-2.1063,-2.1249,-2.107,-2.0575,-2.1427,-2.2089,-2.2535,-2.2596,-2.2318,-2.184,-2.1368,-2.0721,-2.0007,-2.0257,-2.0369,-2.0454,-2.1273,0.0,-2.1956,-2.2764,-2.3679,-2.459,-2.543,-2.5616,-2.5492,-2.5498,-2.5451,-2.5393,-2.5407,-2.5398,-2.5389,-2.5313,-2.5312,-2.5292,-2.5292,0.0,0.0,0.0,0.0,-2.515,0.0,0.0,0.0,0.0,0.0,-2.5282,-2.5212,-2.5179,-2.513,-2.4915,-2.4888,0.0,0.0,0.0,0.0,0.0,0.0,0.0,0.0,0.0,0.0,0.0,0.0,0.0,-2.4707,-2.4749,-2.4813,-2.4813,-2.4847,-2.4888,-2.4888,-2.4874,-2.4874,-2.4874,-2.4607,-2.4478,-2.4461,-2.4135,-2.3996,-2.3996,-2.3996,-2.3996,-2.4069,-2.4933,-2.496,-2.4541,-2.4633,-2.4977,-2.5577,-2.1956,-2.3207,-2.4399,0.0,-2.4958,-2.4999,0.0,0.0,0.0,0.0,-2.4645,-2.4495,-2.4229,-2.3885,-2.357,-2.3312,-2.3025,0.0,0.0,0.0,0.0,-2.2456,-2.2079,-2.1807,-2.1645,-2.0607,0.0,-2.0727,-2.0576,-2.0755,-2.1265,-2.2125,-2.2631,-2.2775,-2.2665,-2.2167,-2.148,-2.1882,-2.1695,-2.109,-2.1161,-2.1224,0.0,0.0,-2.198,-2.274,-2.3639,-2.4567,-2.5391,-2.5625,-2.5644,-2.5565,-2.5519,-2.5443,-2.5387,-2.5332,-2.5341,-2.5322,-2.5313,-2.5303,-2.5293,-2.5293,-2.5302,-2.5234,0.0,0.0,0.0,0.0,0.0,0.0,0.0,0.0,0.0,-2.5212,-2.5068,-2.4915,-2.4779,0.0,0.0,-2.4604,0.0,0.0,0.0,0.0,0.0,0.0,0.0,0.0,0.0,0.0,0.0,-2.4707,-2.4723,-2.4738,-2.4738,-2.4639,-2.4607,-2.4591,-2.4493,-2.4461,-2.4461,-2.4284,-2.4211,-2.4192,-2.4057,-2.3996,-2.3996,-2.3996,-2.3896,-2.3783,-2.4554,-2.4895,-2.5003,-2.5512,-2.5426,-2.5098,-2.2578,-2.3583,0.0,-2.4979,0.0,0.0,-2.4753,0.0,0.0,-2.4476,-2.451,0.0,-2.3925,-2.3595,-2.3277,-2.2943,-2.266,0.0,-2.2483,0.0,0.0,-2.1977,-2.1552,-2.126,-2.1135,-2.0408,0.0,-2.099,-2.0478,-2.0783,-2.19,-2.2004,-2.2177,-2.2436,-2.242,-2.1868,-2.0953,-2.155,-2.1859,-2.1991,-2.1991,0.0,0.0,-2.2513,-2.2953,-2.3551,-2.4491,-2.4954,-2.5195,-2.5566,-2.5652,-2.5585,-2.5561,-2.5498,-2.5423,-2.537,-2.5332,-2.5341,-2.5313,-2.5303,-2.5303,-2.5303,-2.5293,-2.5312,-2.5303,-2.5313,-2.534,0.0,0.0,0.0,0.0,0.0,0.0,-2.5201,-2.4981,-2.4794,0.0,0.0,0.0,0.0,-2.4771,0.0,0.0,0.0,0.0,0.0,0.0,0.0,0.0,0.0,0.0,0.0,-2.466,-2.4629,-2.4578,-2.4493,-2.4425,-2.4409,-2.4339,-2.4284,-2.4303,-2.4154,-2.4096,-2.4096,-2.3958,-2.3855,-2.3771,-2.3771,-2.3799,-2.3958,-2.4933,-2.5637,-2.6132,-2.6406,-2.5767,-2.4915,-2.3955,-2.461,0.0,0.0,0.0,0.0,0.0,-2.4673,0.0,-2.4136,0.0,-2.41,-2.3559,-2.33,-2.2968,-2.2436,0.0,-2.2136,-2.2136,-2.1615,-2.1417,-2.1642,-2.1039,-2.0712,-2.0712,-2.0352,-2.0542,0.0,-2.013,-2.0449,-2.2152,-2.1404,-2.1259,-2.169,-2.1877,-2.1442,0.0,-2.1007,-2.1758,-2.2729,-2.2729,-2.2804,-2.3006,-2.3775,-2.4149,-2.4377,-2.5204,-2.5093,-2.4664,-2.5449,-2.5652,-2.5604,-2.5601,-2.555,-2.5476,-2.5416,-2.5388,-2.5397,-2.5322,-2.5303,-2.5303,-2.5303,-2.5303,-2.5303,-2.5303,-2.5359,-2.5374,-2.5303,-2.5359,0.0,0.0,0.0,0.0,-2.5153,0.0,0.0,0.0,0.0,0.0,0.0,0.0,0.0,0.0,0.0,0.0,0.0,0.0,0.0,0.0,0.0,0.0,0.0,-2.4599,0.0,-2.4557,0.0,-2.4358,-2.4432,-2.4265,-2.421,-2.421,-2.4113,-2.4034,-2.3996,-2.3816,-2.3624,-2.3417,-2.3417,-2.3766,-2.4418,-2.5472,-2.6463,-2.7272,-2.7055,-2.6107,-2.5152,-2.4755,0.0,0.0,0.0,0.0,-2.4578,-2.4211,-2.4355,-2.4336,-2.3826,-2.3806,-2.362,-2.3076,-2.2746,-2.2476,-2.233,-2.2056,0.0,0.0,0.0,0.0,-2.1355,-2.0697,-2.0326,-2.0326,-1.7661,-1.7546,0.0,-1.7367,-1.7749,-2.1072,-2.0822,-2.0849,-2.1128,-2.0846,-2.1059,-2.1649,-2.1886,0.0,-2.3417,-2.3417,-2.3522,-2.3635,-2.3788,-2.4389,-2.5206,-2.5427,-2.5445,-2.5426,-2.5636,-2.5652,-2.5604,-2.5601,-2.5514,-2.5421,-2.5388,-2.5398,-2.5398,-2.5313,-2.5303,-2.5303,-2.5303,-2.5303,-2.5303,-2.5303,-2.5303,-2.5313,-2.5293,-2.5303,-2.5313,-2.5313,0.0,0.0,0.0,0.0,0.0,0.0,0.0,0.0,0.0,0.0,0.0,0.0,0.0,0.0,0.0,0.0,0.0,0.0,0.0,0.0,0.0,0.0,0.0,0.0,0.0,0.0,-2.5124,-2.4115,-2.37,-2.3789,-2.3786,-2.3642,-2.3437,-2.3392,-2.3253,-2.3014,-2.3014,-2.3702,-2.4793,-2.4787,-2.5618,-2.6825,-2.6758,-2.6572,-2.6334,0.0,0.0,0.0,0.0,0.0,0.0,0.0,-2.3923,0.0,-2.3628,-2.3552,-2.3293,-2.2807,-2.2546,-2.233,-2.2124,-2.1735,-2.1556,-2.1556,-2.1023,-2.073,-2.073,-2.0224,0.0,-1.9444,-1.8199,-1.8176,-1.9377,-1.7843,-1.8375,-2.0749,-2.0401,-2.05,-2.0931,-2.0842,-2.1353,0.0,0.0,0.0,-2.4274,-2.4241,-2.4372,-2.4577,-2.4577,-2.4918,-2.5412,-2.5487,-2.5541,-2.5615,-2.5678,-2.5663,-2.5604,-2.5601,-2.5522,-2.5448,-2.5404,-2.5395,-2.5387,-2.5361,-2.5351,-2.5351,-2.5313,-2.5303,-2.5303,-2.5303,-2.5303,-2.5303,-2.5303,-2.5303,-2.5283,-2.5209,-2.5141,0.0,0.0,0.0,0.0,0.0,0.0,0.0,0.0,0.0,0.0,0.0,0.0,0.0,0.0,0.0,0.0,0.0,0.0,0.0,0.0,0.0,0.0,0.0,0.0,0.0,-2.4368,-2.3768,-2.3539,-2.3607,-2.3607,-2.3481,-2.3265,-2.3265,-2.3014,-2.2669,-2.3388,-2.4076,-2.4756,-2.5385,-2.6065,-2.6691,-2.6691,-2.659,-2.6386,0.0,-2.4893,0.0,0.0,-2.4282,0.0,-2.3638,-2.3427,-2.3324,-2.3324,-2.323,-2.3003,-2.2571,-2.2347,-2.2136,-2.1823,-2.1448,-2.1214,-2.1183,-2.0548,-2.0208,-2.0208,-1.9889,-1.9435,-1.8927,-1.8882,-1.889,0.0,-1.8423,-1.8952,-2.0446,-2.0104,-2.0297,0.0,0.0,0.0,0.0,0.0,-2.375,-2.4827,-2.4779,-2.4961,-2.525,-2.525,-2.5313,-2.5414,-2.5471,-2.5531,-2.56,-2.5673,-2.5662,-2.5604,-2.5582,-2.555,-2.5484,-2.5429,-2.5401,-2.5393,-2.5407,-2.5398,-2.5389,-2.5313,-2.5303,-2.5303,-2.5303,-2.5303,-2.5303,-2.5303,-2.5293,-2.5212,-2.5082,-2.5032,0.0,0.0,0.0,0.0,0.0,0.0,0.0,0.0,0.0,0.0,0.0,0.0,0.0,0.0,0.0,0.0,0.0,0.0,0.0,0.0,0.0,0.0,-2.3835,0.0,-2.358,0.0,-2.3519,-2.3448,-2.3471,-2.3407,-2.3271,-2.3074,-2.3025,-2.2834,-2.2598,-2.3688,-2.4349,-2.4799,-2.5932,-2.6489,-2.664,-2.6556,-2.6332,-2.6087,0.0,0.0,0.0,0.0,0.0,0.0,0.0,-2.2935,-2.2773,-2.2773,-2.2773,-2.2615,-2.2282,-2.1961,-2.1678,-2.1479,-2.1119,-2.0909,-2.086,-2.0429,-2.0208,-2.0208,-1.9889,-1.966,-1.96,-1.7357,-1.7152,0.0,0.0,-1.6835,0.0,-1.9859,0.0,0.0,0.0,0.0,0.0,-2.285,-2.365,-2.4631,-2.4613,-2.4827,-2.5125,-2.5125,-2.5243,-2.5403,-2.5473,-2.5543,-2.5619,-2.5687,-2.5668,-2.5585,-2.5524,-2.5511,-2.5484,-2.5429,-2.5401,-2.5393,-2.5407,-2.5398,-2.5389,-2.5313,-2.5303,-2.5303,-2.5303,-2.5303,-2.5303,-2.5303,-2.5192,-2.508,-2.4953,-2.4827,-2.4749,0.0,0.0,0.0,0.0,0.0,0.0,0.0,0.0,0.0,0.0,0.0,0.0,0.0,0.0,0.0,0.0,0.0,0.0,0.0,0.0,-2.4053,-2.4592,-2.3631,0.0,-2.4587,-2.3607,-2.3193,-2.3313,-2.3144,-2.2892,-2.266,-2.2476,-2.2581,-2.2959,-2.3123,-2.4007,-2.5263,-2.5397,-2.5866,-2.6468,-2.603,-2.5957,-2.5875,0.0,0.0,0.0,0.0,0.0,0.0,0.0,-2.2747,-2.249,-2.2096,-2.2231,-2.222,-2.1827,-2.1601,-2.1386,-2.1071,-2.0697,-2.0481,-2.0429,-2.0085,-1.9909,-1.9909,-1.9782,-1.9495,-1.9106,-1.8463,-1.8286,0.0,0.0,-1.8765,-1.9797,-2.043,0.0,0.0,0.0,-2.2769,-2.3244,-2.3581,-2.4077,-2.4673,-2.466,-2.4865,-2.5168,-2.5194,-2.5309,-2.5467,-2.554,-2.5593,-2.5664,-2.5634,-2.5615,-2.559,-2.5507,-2.5511,-2.5484,-2.5464,-2.5429,-2.5393,-2.5406,-2.5407,-2.5389,-2.5313,-2.5303,-2.5303,-2.5303,-2.5303,-2.5303,-2.5303,-2.5126,-2.4942,-2.4746,-2.4704,-2.4676,0.0,0.0,0.0,0.0,0.0,0.0,0.0,0.0,-2.4095,0.0,0.0,0.0,0.0,0.0,0.0,0.0,0.0,0.0,-2.3463,0.0,-2.3508,-2.3755,-2.3185,-2.3135,-2.3541,-2.3117,-2.2876,-2.2816,-2.2868,-2.266,-2.2286,-2.2096,-2.2387,-2.3048,-2.3512,-2.4345,-2.5364,-2.5815,-2.6045,-2.6066,-2.5868,-2.5519,-2.5064,-2.3735,0.0,-2.3498,0.0,-2.3058,-2.2838,-2.249,-2.2281,-2.1994,-2.1521,-2.1661,-2.1708,-2.1415,-2.1229,-2.1023,-2.0745,-2.0326,-2.0085,-2.0035,-1.9818,-1.969,-1.969,-1.969,0.0,-1.9001,-1.945,-1.9351,-1.8633,-1.9728,0.0,0.0,0.0,0.0,0.0,-2.3087,-2.3518,-2.3774,-2.4054,-2.4356,-2.4666,-2.4689,-2.4902,-2.5203,-2.5274,-2.5372,-2.551,-2.5586,-2.5637,-2.5683,-2.5627,-2.5581,-2.5569,-2.5511,-2.5511,-2.5511,-2.5511,-2.5456,-2.5393,-2.5395,-2.5397,-2.5389,-2.5313,-2.5303,-2.5303,-2.5303,-2.5303,-2.5264,-2.5171,-2.4962,-2.4727,-2.4543,-2.4545,-2.4547,0.0,0.0,0.0,0.0,0.0,0.0,0.0,-2.4016,-2.4016,-2.3816,0.0,0.0,0.0,0.0,0.0,0.0,0.0,0.0,0.0,0.0,0.0,0.0,0.0,-2.2651,-2.2624,-2.2571,-2.2508,-2.236,-2.2409,-2.2226,-2.1866,-2.1781,-2.2236,-2.3094,-2.3801,-2.4564,-2.5425,-2.599,-2.5994,-2.5668,-2.5443,-2.502,-2.4458,-2.3365,-2.3087,-2.2842,-2.2569,-2.2175,-2.1882,-2.1811,-2.1415,-2.1134,-2.1102,-2.1007,-2.0942,-2.1102,-2.0764,-2.0514,-2.0514,-2.0065,-1.9762,-1.9726,-1.969,-1.969,0.0,0.0,-1.969,-1.9675,-1.969,-1.9675,-1.9696,0.0,0.0,-2.0532,0.0,0.0,-2.2816,-2.3157,-2.3422,-2.361,-2.3976,-2.4284,-2.4607,-2.4673,-2.4902,-2.5203,-2.5274,-2.5372,-2.551,-2.5586,-2.5631,-2.5683,-2.5621,-2.5556,-2.5511,-2.5511,-2.5511,-2.5511,-2.5511,-2.5456,-2.5393,-2.5395,-2.5397,-2.5389,-2.5313,-2.5303,-2.5303,-2.5303,-2.5303,-2.5203,-2.4858,-2.4663,-2.4456,-2.4339,-2.4303,-2.4357,-2.4478,0.0,0.0,0.0,0.0,0.0,0.0,-2.4094,-2.4074,-2.3996,0.0,0.0,0.0,0.0,0.0,0.0,0.0,0.0,-2.3313,-2.3365,0.0,-2.2816,-2.2537,-2.2341,-2.222,-2.2068,-2.2027,-2.1998,-2.1748,-2.1493,-2.1309,-2.1528,-2.2167,-2.3138,-2.3736,-2.4572,-2.5486,-2.5503,-2.5503,-2.5427,-2.4599,-2.4328,-2.4168,-2.2849,-2.2756,-2.2632,-2.246,-2.2147,-2.1869,-2.1811,-2.1354,-2.0959,-2.0731,-2.0532,-2.0379,-2.0208,-2.0277,-2.0208,0.0,-1.9833,-1.9726,0.0,-1.969,-1.969,-1.969,-1.969,-1.969,-1.969,-1.969,-1.9726,-1.9762,0.0,0.0,0.0,-2.1945,-2.2508,-2.301,-2.3206,-2.3513,-2.3896,-2.4136,-2.4389,-2.4673,-2.479,-2.4994,-2.5214,-2.5324,-2.5415,-2.5515,-2.5632,-2.568,-2.5685,-2.5613,-2.5568,-2.5476,-2.5397,-2.5423,-2.5484,-2.5456,-2.5412,-2.5395,-2.5397,-2.537,-2.5322,-2.5313,-2.5303,-2.5303,-2.5302,-2.519,-2.4987,-2.4666,-2.4538,-2.4458,-2.4266,-2.4266,-2.4303,-2.4302,0.0,0.0,0.0,0.0,0.0,0.0,-2.3455,-2.3364,0.0,-2.3212,0.0,0.0,0.0,0.0,0.0,0.0,0.0,0.0,-2.2643,0.0,-2.2375,-2.2051,-2.1832,-2.179,-2.1748,-2.1983,-2.2462,-2.2246,-2.2102,-2.2086,-2.2372,-2.2668,-2.2976,-2.3469,-2.4141,-2.4887,-2.495,-2.4808,-2.448,-2.3829,-2.3448,-2.3096,-2.2497,-2.2525,-2.2542,-2.2405,-2.2003,-2.1645,-2.1631,-2.1039,-2.0563,-2.0326,-2.0154,-1.996,-1.9797,-1.9925,0.0,-1.9762,-1.9726,-1.969,-1.969,-1.969,-1.969,-1.969,-1.969,-1.969,-1.969,0.0,0.0,-1.9797,-2.0239,-2.0763,-2.1371,-2.1869,-2.2392,-2.2908,-2.3146,-2.3495,-2.3978,-2.4192,-2.4441,-2.4673,-2.4847,-2.5043,-2.5214,-2.5383,-2.546,-2.5515,-2.5648,-2.5683,-2.5661,-2.562,-2.555,-2.5476,-2.5313,-2.5322,-2.5387,-2.5369,-2.5322,-2.5293,-2.5284,-2.5284,-2.5283,-2.5171,-2.5171,-2.5182,-2.5122,-2.4955,-2.476,-2.451,-2.4425,-2.4338,-2.4154,-2.4172,-2.421,-2.4172,0.0,-2.4077,0.0,0.0,0.0,0.0,0.0,0.0,0.0,-2.291,0.0,0.0,0.0,0.0,0.0,0.0,0.0,-2.2381,-2.2237,0.0,-2.1994,-2.1658,-2.1462,-2.1401,-2.1615,-2.2021,-2.2565,-2.246,-2.2337,-2.2248,-2.2499,-2.2664,-2.2816,-2.3289,-2.384,-2.4307,-2.4126,-2.3912,-2.3636,-2.3183,-2.2843,-2.2566,-2.2304,-2.236,0.0,0.0,-2.1751,0.0,-2.1229,-2.0545,-2.0005,-2.0005,-1.9797,-1.969,-1.969,-1.969,-1.9726,-1.9797,0.0,0.0,0.0,-1.969,-1.969,-1.969,-1.969,0.0,-1.969,-1.969,-1.9726,-1.9797,-2.0292,-2.0597,-2.0794,-2.1354,-2.1948,-2.2591,-2.2947,-2.3392,-2.3937,-2.4192,-2.4439,-2.4654,-2.4921,-2.5099,-2.5234,-2.5425,-2.5517,-2.5521,-2.5654,-2.5664,-2.5593,-2.5587,-2.5546,-2.544,-2.5245,-2.5175,-2.5184,-2.5252,-2.5182,-2.5099,-2.5099,-2.5173,-2.5212,-2.4968,-2.493,-2.4937,-2.4799,-2.4623,-2.4478,-2.4389,-2.4266,-2.4132,-2.3996,-2.4016,-2.4036,-2.4074,-2.3996,-2.3896,-2.3714,0.0,0.0,0.0,0.0,0.0,0.0,-2.2738,-2.2571,0.0,0.0,0.0,0.0,0.0,0.0,-2.2136,-2.2068,-2.1895,-2.1568,-2.1355,-2.1215,-2.1102,-2.1621,-2.205,-2.2439,-2.2439,-2.2248,-2.1976,-2.2117,-2.2324,-2.2626,-2.3222,-2.3605,-2.3776,-2.3212,-2.3011,-2.297,-2.2611,-2.2414,-2.2384,0.0,0.0,-2.1777,-2.1735,-2.1276,-2.0877,-2.0795,-2.0308,-1.9955,-1.9848,-1.9762,-1.969,-1.969,-1.969,-1.9726,-1.9726,-1.9726,-1.969,-1.969,-1.969,-1.969,-1.969,-1.969,-1.969,-1.969,-1.9762,-1.9848,-1.9955,-2.0478,-2.0712,-2.0663,-2.1401,-2.1969,-2.2313,-2.2873,-2.3397,-2.3923,-2.4353,-2.4666,-2.4921,-2.5141,-2.5284,-2.5365,-2.5523,-2.5586,-2.5585,-2.5662,-2.566,-2.5586,-2.554,-2.5418,-2.5235,-2.5091,-2.4937,-2.4836,-2.4956,-2.4968,-2.4956,-2.4949,-2.493,-2.4904,-2.4836,-2.4762,-2.4674,-2.4591,-2.4458,-2.4319,-2.421,-2.3978,-2.3795,-2.3714,-2.361,-2.3588,-2.3692,-2.3628,-2.3544,-2.3544,0.0,0.0,0.0,-2.2439,-2.2248,-2.222,-2.2181,-2.2198,0.0,0.0,0.0,0.0,0.0,-2.1645,-2.1509,-2.1386,-2.1293,-2.1214,-2.1023,-2.1014,-2.1241,-2.1393,-2.1908,-2.2787,-2.2787,-2.2747,-2.2697,-2.2975,-2.2852,-2.2488,-2.2876,-2.3084,-2.3127,-2.3069,-2.3069,-2.2995,-2.2536,-2.1825,-2.1194,-2.1768,-2.1675,-2.1598,-2.1507,-2.1119,-2.0745,-2.063,-2.0254,-1.9884,-1.9566,-1.9639,-1.9654,-1.9435,-1.9581,-1.9617,-1.9435,-1.9603,-1.969,-1.969,-1.9545,-1.9435,-1.9435,-1.9435,-1.9435,-1.9435,-1.969,-1.9869,-2.0061,-2.0304,-2.0527,-2.0712,-2.1244,-2.179,-2.2275,-2.2961,-2.3512,-2.3945,-2.4505,-2.4842,-2.5024,-2.5255,-2.5385,-2.5461,-2.5565,-2.5606,-2.5595,-2.5642,-2.5618,-2.5531,-2.5434,-2.532,-2.5154,-2.4937,-2.4795,-2.4682,-2.4567,-2.4659,-2.4799,-2.4723,-2.4752,-2.4714,-2.4595,-2.4418,-2.4265,-2.4192,-2.4003,-2.3806,-2.3696,-2.3522,-2.3346,-2.3165,-2.3165,-2.3165,-2.3189,-2.3141,-2.3117,-2.3045,-2.26,0.0,-2.2226,-2.1969,-2.1718,-2.1552,-2.1642,-2.1658,-2.1491,0.0,0.0,-2.1569,-2.1215,-2.1023,-2.0974,-2.0909,-2.0936,-2.0999,-2.0825,-2.109,-2.1865,-2.1561,-2.1913,-2.2814,-2.2757,-2.2539,-2.2203,-2.257,-2.2497,-2.2119,-2.2433,-2.2706,-2.2814,-2.2136,-2.2022,-2.2159,-2.1712,-2.1136,-2.0764,-2.1559,-2.1509,-2.1446,-2.1354,-2.1007,-2.0695,-2.0545,-2.0254,-1.9833,-1.9354,-1.953,-1.9581,-1.925,-1.9435,-1.9508,-1.9213,-1.9472,-1.9617,-1.9617,-1.925,-1.9064,-1.9176,-1.9139,-1.9139,-1.9176,-1.9581,-1.9904,-2.017,-2.0115,-2.0357,-2.0877,-2.1165,-2.1681,-2.2378,-2.3159,-2.3687,-2.4005,-2.4644,-2.4968,-2.5075,-2.5311,-2.5461,-2.5512,-2.5598,-2.5603,-2.5605,-2.5581,-2.5541,-2.5486,-2.5318,-2.5216,-2.5099,-2.4795,-2.4666,-2.4572,-2.4192,-2.4301,-2.4543,-2.4458,-2.4519,-2.4529,-2.4228,-2.3983,-2.3756,-2.3631,-2.3392,-2.3147,-2.3076,-2.2954,-2.278,-2.2538,-2.2617,-2.2695,-2.2617,-2.2617,-2.2591,-2.2361,0.0,-2.1744,-2.1645,-2.1462,-2.1229,-2.0959,-2.1118,-2.1055,-2.0548,-2.0842,0.0,0.0,-2.0934,-2.0774,-2.069,-2.0665,-2.0756,-2.0971,-2.0767,-2.1248,-2.2381,-2.1847,-2.1968,-2.2634,-2.2381,-2.1917,-2.1316,-2.1582,-2.167,-2.1581,-2.1819,-2.2183,-2.2415,-2.0983,-2.0717,-2.1094,-2.0813,-2.0669,-2.069,-2.1262,-2.1055,-2.0877,-2.0679,-2.0494,-2.0323,-2.0204,-2.01,-1.9995,-1.9762,-1.9762,-1.9726,-1.9617,-1.9362,-1.931,-1.9581,-1.9347,-1.9213,-1.9213,-1.8822,-1.8898,-1.9581,-1.9288,-1.925,-1.9617,-1.9726,-1.9995,-2.0447,-2.0496,-2.0698,-2.1149,-2.1582,-2.2057,-2.2565,-2.3234,-2.3815,-2.4356,-2.4747,-2.5072,-2.5348,-2.5448,-2.5529,-2.5586,-2.5663,-2.5642,-2.5582,-2.5532,-2.5505,-2.5464,-2.5215,-2.5053,-2.491,-2.4756,-2.4543,-2.4302,-2.4022,-2.3941,-2.3959,-2.4057,-2.4135,-2.4078,-2.3574,-2.3374,-2.3212,-2.2778,-2.2626,-2.2522,-2.2522,-2.2327,-2.2124,-2.2029,-2.1994,-2.1982,-2.2,-2.1994,-2.1878,0.0,0.0,-2.1039,-2.0813,-2.0698,-2.0632,-2.0565,-2.0599,-2.0599,-2.0514,-2.0938,-2.108,-2.0886,-2.1387,-2.1491,-2.106,-2.0933,-2.1024,-2.1391,-2.1138,-2.1301,-2.1831,-2.1729,-2.1901,-2.2249,-2.1405,-2.1139,-2.1271,-2.0731,-2.0699,-2.1,-2.0781,-2.0789,-2.0942,-2.0661,-2.062,-2.0721,-2.1152,-2.0992,-2.0641,-2.157,-2.1308,-2.1055,-2.0828,-2.0512,-2.0235,-2.0061,-2.0061,-1.9904,-1.9472,-1.9617,-1.9654,-1.9398,-1.9384,-1.9398,-1.9398,-1.8817,-1.8444,-1.8444,-1.8679,-1.8974,-1.9347,-1.9213,-1.942,-2.0065,-2.0085,-2.0345,-2.0893,-2.0862,-2.1086,-2.1521,-2.1936,-2.2351,-2.2795,-2.3472,-2.3969,-2.4377,-2.4807,-2.5152,-2.5415,-2.5517,-2.5593,-2.5659,-2.56,-2.5565,-2.5529,-2.5426,-2.536,-2.525,-2.5018,-2.485,-2.4682,-2.4316,-2.4137,-2.3943,-2.3552,-2.3441,-2.35,-2.3544,-2.3459,-2.33,-2.3045,-2.2788,-2.2539,-2.2327,-2.2107,-2.1927,-2.1778,-2.1469,-2.1179,-2.0879,-2.0879,-2.0927,-2.0863,-2.0879,0.0,0.0,-2.0552,-2.028,-2.0348,-2.0246,-2.0124,-1.9965,-1.9814,-1.9756,-1.9773,-1.989,-2.0197,-2.0654,-2.064,-2.0855,-2.133,-2.1112,-2.1135,-2.1553,-2.0954,-2.0955,-2.1416,-2.1016,-2.0747,-2.0657,-2.0375,-1.988,-1.9373,-1.9579,-1.9552,-1.9373,-1.9409,-1.9647,-1.9889,-1.9396,-1.9533,-2.0086,-2.0109,-2.015,-2.0207,-2.1735,-2.1524,-2.126,-2.1007,-2.0613,-2.0304,-2.0131,-1.994,-1.9639,-1.9147,-1.9169,-1.9169,-1.9011,-1.9184,-1.9281,-1.925,-1.8405,-1.7932,-1.8064,-1.8626,-1.8884,-1.8717,-1.8884,-1.9369,-2.0239,-2.0296,-2.0583,-2.115,-2.1181,-2.1491,-2.2032,-2.2303,-2.2695,-2.3171,-2.3762,-2.4192,-2.4492,-2.4898,-2.5214,-2.5456,-2.5571,-2.5619,-2.5613,-2.5498,-2.5429,-2.538,-2.5182,-2.4984,-2.4809,-2.4584,-2.4327,-2.4026,-2.371,-2.3498,-2.3267,-2.2895,-2.272,-2.2677,-2.2912,-2.278,-2.253,-2.2398,-2.2135,-2.1881,-2.1753,-2.1472,-2.1149,-2.0911,-2.0552,-2.0162,-1.9778,-1.9849,-1.9919,-1.9778,0.0,0.0,0.0,-1.9615,-1.9398,-1.9615,-1.9456,-1.9273,-1.9095,-1.9031,-1.8956,-1.892,-1.9068,-1.9541,-2.034,-2.0043,-2.0346,-2.1431,-2.1076,-2.1075,-2.1377,-2.0657,-2.0505,-2.0979,-2.0334,-1.9867,-1.9566,-1.9397,-1.8771,-1.792,-1.8397,-1.8325,-1.7917,-1.8086,-1.8448,-1.8779,-1.8059,-1.8364,-1.9172,-1.9108,-1.952,-2.0157,-2.1214,-2.1151,-2.1055,-2.086,-2.0628,-2.0494,-2.046,-1.9773,-1.92,-1.9037,-1.8324,-1.8064,-1.865,-1.8313,-1.8454,-1.9566,-1.8584,-1.8104,-1.8535,-1.8612,-1.8288,-1.7545,-1.8249,-1.9006,-1.9833,-2.0124,-2.0516,-2.1007,-2.1368,-2.1924,-2.2632,-2.2781,-2.3194,-2.3844,-2.4002,-2.4416,-2.4941,-2.5004,-2.5231,-2.559,-2.5603,-2.5522,-2.5411,-2.5337,-2.5231,-2.5072,-2.462,-2.431,-2.4036,-2.3722,-2.3146,-2.2604,-2.2935,-2.2573,-2.2065,-2.2129,-2.1602,-2.1162,-2.2035,-2.2201,-2.2018,-2.1529,-2.1395,-2.1227,-2.0714,-2.0296,-1.9989,-1.9914,-1.9594,-1.9266,-1.9244,-1.9281,-1.9303,-1.9361,0.0,0.0,-1.8636,-1.8535,-1.8341,-1.7935,-1.776,-1.772,-1.7828,-1.8275,-1.8499,-1.8382,-1.9426,-1.9973,-1.9708,-2.0435,-2.0948,-2.1042,-2.0756,-2.0644,-2.0693,-2.0357,-2.0232,-2.0271,-2.0194,-2.0181,-2.008,-1.8753,-1.8223,-1.838,-1.7279,-1.7011,-1.7338,-1.7057,-1.7036,-1.7152,-1.7106,-1.7439,-1.8031,-1.9002,-2.0023,-2.092,-2.1615,-2.157,-2.1417,-2.0991,-2.0712,-2.0494,-2.0273,-1.996,-1.966,-1.95,-1.9192,-1.9029,-1.9281,-1.9192,-1.9266,-1.9726,-1.8507,-1.7773,-1.7946,-1.7464,-1.7652,-1.8788,-1.9118,-1.95,-2.005,-2.0447,-2.0764,-2.0991,-2.1661,-2.2032,-2.2158,-2.2634,-2.3177,-2.378,-2.4063,-2.4542,-2.5187,-2.5231,-2.5318,-2.5429,-2.551,-2.5363,-2.5091,-2.5056,-2.4842,-2.4501,-2.4095,-2.3748,-2.3371,-2.2916,-2.2501,-2.2148,-2.181,-2.145,-2.1061,-2.0574,-1.989,-1.942,-1.989,-2.0311,-2.0573,-2.034,-2.0387,-2.0317,-1.9808,-1.9788,-1.9702,-1.9177,-1.8584,-1.8143,-1.7946,-1.7652,-1.7491,-1.7505,0.0,-1.7477,-1.7369,-1.7382,-1.7409,-1.734,-1.7712,-1.7938,-1.7797,-1.8161,-1.8428,-1.8494,-1.8841,-1.9183,-1.9358,-1.9673,-1.9786,-1.9527,-1.9423,-1.9734,-2.061,-2.0067,-1.9823,-1.9811,-1.9711,-1.9396,-1.893,-1.8227,-1.7708,-1.7316,-1.6795,-1.6529,-1.6349,-1.6215,-1.6227,-1.6272,-1.6349,-1.6932,-1.7787,-1.8583,-1.9605,-2.0569,-2.1336,-2.1507,-2.1432,-2.0748,-2.0465,-2.0208,-1.9914,-1.9398,-1.8991,-1.8916,-1.8636,-1.8521,-1.875,-1.8788,-1.8878,-1.908,-1.7932,-1.7205,-1.7205,-1.6844,-1.7328,-1.8916,-1.875,-1.8999,-1.9743,-2.0181,-2.0567,-2.0893,-2.1617,-2.1945,-2.194,-2.2643,-2.3298,-2.3828,-2.4261,-2.4762,-2.5297,-2.5265,-2.5208,-2.5132,-2.5153,-2.486,-2.4431,-2.443,-2.4118,-2.3611,-2.303,-2.2575,-2.216,-2.1507,-2.1002,-2.0591,-2.0203,-1.9888,-1.9531,-1.8891,-1.825,-1.7834,-1.7903,-1.8177,-1.8546,-1.8987,-1.9023,-1.889,-1.8565,-1.8603,-1.8527,-1.7958,-1.7396,-1.6915,-1.6676,-1.6391,-1.6219,-1.625,-1.6262,-1.6305,-1.6348,-1.6403,-1.6522,-1.6716,-1.7194,-1.751,-1.7468,-1.7865,-1.8167,-1.8184,-1.8298,-1.8446,-1.862,-1.8525,-1.8363,-1.8224,-1.8224,-1.8685,-1.9606,-1.9384,-1.9239,-1.9133,-1.9105,-1.878,-1.8175,-1.7943,-1.7508,-1.6799,-1.6669,-1.6322,-1.5942,-1.5808,-1.5799,-1.5773,-1.6017,-1.6669,-1.7549,-1.8517,-1.934,-2.0096,-2.01,-2.0748,-2.1007,-2.0074,-1.9818,-1.9647,-1.9447,-1.7997,-1.6941,-1.6912,-1.6225,-1.5988,-1.6701,-1.6659,-1.6857,-1.7531,-1.6831,-1.6336,-1.6262,-1.6957,-1.7328,-1.7328,-1.6676,-1.7109,-1.876,-1.9119,-1.9773,-2.0693,-2.1245,-2.1761,-2.2203,-2.303,-2.365,-2.4122,-2.4722,-2.512,-2.5278,-2.5013,-2.4846,-2.4759,-2.4493,-2.3973,-2.3385,-2.3378,-2.303,-2.2434,-2.128,-2.0651,-2.024,-1.9366,-1.8389,-1.7585,-1.8117,-1.7843,-1.7344,-1.7155,-1.6811,-1.6405,-1.6206,-1.5922,-1.599,-1.7356,-1.7316,-1.695,-1.6924,-1.6578,-1.6248,-1.6218,-1.5879,-1.5588,-1.5588,-1.5688,-1.582,-1.586,-1.6015,-1.5996,-1.5635,-1.5591,-1.5702,-1.5939,-1.5866,-1.6024,-1.6616,-1.7173,-1.741,-1.7294,-1.7936,-1.7995,-1.7435,-1.6978,-1.6912,-1.7379,-1.7379,-1.7379,-1.7379,-1.817,-1.8398,-1.8084,-1.841,-1.8398,-1.8061,-1.7874,-1.7629,-1.7289,-1.6787,-1.6444,-1.6174,-1.593,-1.5786,-1.5756,-1.6207,-1.6699,-1.7277,-1.8904,-1.9398,-1.9452,-2.0652,-2.1135,-2.1183,-2.0795,-2.0714,-2.0599,-2.0398,-1.9814,-1.917,-1.8631,-1.7304,-1.6312,-1.6001,-1.5053,-1.4492,-1.4731,-1.3871,-1.2929,-1.2062,-1.2225,-1.2462,-1.2691,-1.6587,-1.8977,-1.95,-2.0528,-2.0891,-2.0494,-2.2254,-2.2805,-2.228,-2.3329,-2.4092,-2.4586,-2.4582,-2.4633,-2.4723,-2.4406,-2.3992,-2.3481,-2.2885,-2.2351,-2.187,-2.134,-2.0619,-1.9779,-1.9258,-1.8693,-1.804,-1.7316,-1.6669,-1.6128,-1.5856,-1.533,-1.4845,-1.5035,-1.4394,-1.3761,-1.4074,-1.4082,-1.431,-1.5724,-1.6273,-1.6223,-1.5321,-1.5321,-1.5321,-1.453,-1.4404,-1.4413,-1.4413,-1.4468,-1.4547,-1.4582,-1.4582,-1.4554,-1.4306,-1.4435,-1.4616,-1.4779,-1.5269,-1.568,-1.5839,-1.6483,-1.6818,-1.6597,-1.6791,-1.6922,-1.6912,-1.6585,-1.6472,-1.6641,-1.6641,-1.6539,-1.6379,-1.7279,-1.7545,-1.7146,-1.7202,-1.7191,-1.7079,-1.671,-1.6662,-1.6788,-1.5939,-1.5764,-1.5964,-1.5571,-1.5539,-1.5816,-1.605,-1.6634,-1.7434,-1.8425,-1.9032,-1.9399,-1.8021,-1.8528,-1.8564,-1.8049,-1.8012,-1.7937,-1.7671,-1.7259,-1.6783,-1.629,-1.5319,-1.4471,-1.4048,-1.3221,-1.2616,-1.2457,-1.1854,-1.0546,-0.835,-1.0346,-1.0435,-0.7827,-1.4573,-1.8481,-1.8693,-1.8983,-1.9898,-2.1418,-2.1953,-2.1873,-2.127,-2.3287,-2.371,-2.2786,-2.3626,-2.3839,-2.3505,-2.2713,-2.2079,-2.1536,-2.054,-1.9869,-1.9375,-1.891,-1.8115,-1.724,-1.7009,-1.6447,-1.5751,-1.5052,-1.4575,-1.4214,-1.3522,-1.3125,-1.2888,-1.2849,-1.2425,-1.2015,-1.2329,-1.2406,-1.2619,-1.3392,-1.4152,-1.4529,-1.3803,-1.3678,-1.3611,-1.2934,-1.2926,-1.2994,-1.2994,-1.3183,-1.3322,-1.3238,-1.3359,-1.3471,-1.3377,-1.3498,-1.3765,-1.4223,-1.479,-1.525,-1.5441,-1.6033,-1.6312,-1.614,-1.5968,-1.5982,-1.6338,-1.5838,-1.585,-1.6307,-1.6019,-1.587,-1.5851,-1.6463,-1.6653,-1.6358,-1.6472,-1.6472,-1.6358,-1.6377,-1.6458,-1.656,-1.6153,-1.6081,-1.6169,-1.5637,-1.5548,-1.5786,-1.5832,-1.6321,-1.7002,-1.7905,-1.8438,-1.8736,-1.2528,-1.3097,-1.3288,-1.2548,-1.2443,-1.2463,-1.2375,-1.162,-1.1024,-1.108,-1.0727,-1.0482,-1.0442,-1.0295,-0.996,-0.9313,-0.9188,-0.7775,-0.4594,-0.9058,-0.8981,-0.255,-0.9985,-1.4612,-1.5359,-1.5348,-1.7655,-2.238,-2.0554,-1.9556,-1.9397,-2.2437,-2.223,-1.9409,-2.1611,-2.2254,-2.1559,-2.0189,-1.946,-1.9211,-1.7977,-1.6965,-1.6181,-1.6036,-1.544,-1.4647,-1.4418,-1.3909,-1.3217,-1.2416,-1.2027,-1.1791,-1.1048,-1.0965,-1.1132,-1.0663,-1.0679,-1.0855,-1.0704,-1.0805,-1.0906,-1.0653,-1.1299,-1.2052,-1.2159,-1.1765,-1.1408,-1.1358,-1.1358,-1.1366,-1.1401,-1.1799,-1.2086,-1.1968,-1.2322,-1.2681,-1.2779,-1.2841,-1.3127,-1.3894,-1.4223,-1.4563,-1.507,-1.5391,-1.5565,-1.5565,-1.5157,-1.5053,-1.5487,-1.4708,-1.4864,-1.61,-1.5383,-1.5189,-1.5633,-1.5551,-1.5651,-1.5818,-1.6128,-1.609,-1.5888,-1.6495,-1.6678,-1.6437,-1.6907,-1.6896,-1.6587,-1.5982,-1.5741,-1.5693,-1.5702,-1.5906,-1.6303,-1.7447,-1.7721,-1.7726,-0.3283,-0.3729,-0.4374,-0.6021,-0.6314,-0.695,-0.8771,-0.7179,-0.6215,-0.7477,-0.4899,-0.2697,-0.2038,-0.0922,0.0579,0.2662,0.303,0.2817,0.2066,0.249,0.3365,0.4739,0.2165,-0.0336,-0.2613,-1.2173,-1.7262,-1.7516,-1.8296,-1.8181,-1.7188,-1.7803,-1.7716,-1.6995,-1.6651,-1.711,-1.8054,-1.7442,-1.7361,-1.7653,-1.739,-1.5586,-1.3062,-1.2299,-1.1757,-1.1288,-1.0994,-1.03,-0.9402,-0.8236,-0.8028,-0.8177,-0.7681,-0.7909,-0.8293,-0.8189,-0.8227,-0.8271,-0.8271,-0.8574,-0.8926,-0.8874,-0.9023,-0.9438,-1.0297,-1.0202,-0.9791,-0.9488,-0.9467,-0.9577,-0.9831,-1.0287,-1.0862,-1.1581,-1.1843,-1.2011,-1.2053,-1.2159,-1.2199,-1.2079,-1.2134,-1.234,-1.2671,-1.2793,-1.2854,-1.2854,-1.2732,-1.2833,-1.3124,-1.2889,-1.3214,-1.4262,-1.359,-1.3541,-1.4162,-1.3719,-1.4061,-1.527,-1.5641,-1.5792,-1.5738,-1.5886,-1.5942,-1.5972,-1.597,-1.5985,-1.5933,-1.5438,-1.5425,-1.5701,-1.5506,-1.5694,-1.6139,-1.6825,-1.7111,-1.7159,0.2357,0.2174,0.1798,0.0621,0.0416,0.0042,-0.1096,-0.0129,0.0471,-0.0317,0.1402,0.2906,0.337,0.4144,0.5672,0.8158,0.7479,0.7426,0.8457,0.7452,0.7883,1.025,0.6245,0.3836,0.3555,-0.5522,-1.0676,-1.1525,-1.2123,-1.1775,-1.0556,-1.1807,-1.1365,-0.9567,-1.1575,-1.2744,-1.3104,-1.1389,-1.0844,-1.1167,-1.1051,-0.9987,-0.848,-0.7904,-0.751,-0.724,-0.7333,-0.7106,-0.6685,-0.6002,-0.6056,-0.6328,-0.586,-0.6016,-0.6338,-0.6075,-0.6089,-0.6215,-0.6215,-0.6416,-0.6727,-0.7121,-0.718,-0.7553,-0.8888,-0.8849,-0.8474,-0.8359,-0.8377,-0.8446,-0.8714,-0.9144,-0.9637,-1.0051,-1.035,-1.0631,-1.09,-1.1048,-1.1112,-1.1246,-1.1267,-1.1442,-1.1911,-1.2122,-1.2254,-1.2357,-1.2372,-1.2515,-1.2832,-1.2683,-1.2937,-1.3815,-1.3104,-1.3021,-1.3528,-1.3293,-1.3545,-1.4271,-1.4811,-1.5098,-1.518,-1.5292,-1.5257,-1.521,-1.5468,-1.5557,-1.5514,-1.5396,-1.5305,-1.5165,-1.5038,-1.5232,-1.5662,-1.6141,-1.6599,-1.7032,0.7771,0.7778,0.7704,0.7466,0.7428,0.7352,0.7167,0.7506,0.7633,0.7367,0.7736,0.8063,0.8055,0.857,0.9546,1.1233,1.0148,1.0545,1.3403,1.0336,1.0135,1.3993,0.7965,0.5495,0.7624,0.3053,-0.1361,-0.549,-0.5099,-0.4292,-0.3128,-0.5277,-0.455,-0.164,-0.5982,-0.761,-0.6955,-0.4422,-0.309,-0.2729,-0.2584,-0.277,-0.3146,-0.2992,-0.3067,-0.3312,-0.3729,-0.3965,-0.4114,-0.4117,-0.4341,-0.4569,-0.4139,-0.4187,-0.4399,-0.3978,-0.4084,-0.4351,-0.4464,-0.4535,-0.4725,-0.5399,-0.5597,-0.5945,-0.7247,-0.7344,-0.7171,-0.7381,-0.7281,-0.7197,-0.7354,-0.774,-0.807,-0.8023,-0.847,-0.8983,-0.9549,-0.961,-0.9842,-1.0518,-1.0641,-1.0863,-1.1444,-1.1782,-1.2058,-1.234,-1.2354,-1.256,-1.2943,-1.2596,-1.2782,-1.3628,-1.2927,-1.272,-1.3186,-1.31,-1.31,-1.3186,-1.3726,-1.4213,-1.4522,-1.467,-1.4624,-1.4445,-1.5014,-1.5121,-1.4976,-1.5191,-1.5002,-1.4453,-1.4285,-1.4493,-1.4943,-1.5292,-1.5981,-1.6742,1.7509,1.7509,1.6847,1.4797,1.4427,1.3757,1.1664,1.314,1.3768,1.1674,1.3325,1.4702,1.4802,1.6817,1.7539,1.5898,1.7905,1.7764,1.4243,1.5855,1.6329,1.4927,1.3747,1.3523,1.4381,1.2656,0.7565,-0.0999,-0.0912,-0.0348,0.0683,0.1059,0.1082,0.0833,0.0898,0.0898,0.0943,0.0692,0.22,0.4695,0.4466,0.359,0.2435,0.2435,0.1139,-0.0653,-0.0545,-0.055,-0.0665,-0.0389,-0.0389,-0.0389,-0.0334,-0.0667,-0.1165,-0.1612,-0.2109,-0.2662,-0.3166,-0.3465,-0.36,-0.3719,-0.3915,-0.4177,-0.4354,-0.5075,-0.5726,-0.587,-0.5181,-0.4601,-0.4925,-0.5031,-0.5329,-0.6073,-0.6634,-0.7177,-0.7896,-0.8024,-0.8312,-0.9036,-0.9247,-0.944,-0.9728,-0.9923,-1.0209,-1.0597,-1.0667,-1.0785,-1.106,-1.0956,-1.1339,-1.2271,-1.1578,-1.1546,-1.2158,-1.1681,-1.1681,-1.2158,-1.2615,-1.3301,-1.4095,-1.4134,-1.3932,-1.3608,-1.4009,-1.4112,-1.3923,-1.3711,-1.3811,-1.4018,-1.3437,-1.3364,-1.3656,-1.4062,-1.4624,-1.5188,1.8804,1.8137,1.7463,1.7371,1.6994,1.633,1.5227,1.6024,1.6519,1.591,1.6067,1.6605,1.7605,1.7875,1.7622,1.6684,1.7787,1.7622,1.553,1.7479,1.7586,1.505,1.5826,1.5645,1.4284,1.3839,1.186,0.8231,0.7218,0.706,0.7739,0.8118,0.7985,0.7488,0.7469,0.7269,0.6886,0.6216,0.6691,0.7841,0.7211,0.6212,0.5069,0.4908,0.3721,0.2093,0.1876,0.1661,0.1389,0.1503,0.1446,0.1334,0.0947,0.0835,0.0722,0.0,-0.0334,-0.0501,-0.078,-0.0913,-0.1053,-0.1462,-0.1617,-0.1715,-0.2201,-0.2446,-0.294,-0.4424,-0.4356,-0.4058,-0.431,-0.446,-0.4605,-0.4982,-0.5396,-0.5896,-0.6597,-0.6756,-0.7057,-0.7646,-0.7939,-0.8146,-0.8174,-0.8398,-0.8722,-0.9071,-0.9076,-0.9196,-0.9437,-0.9422,-0.9611,-1.0121,-1.033,-1.0553,-1.0812,-1.0588,-1.0812,-1.1484,-1.1248,-1.1909,-1.3382,-1.3295,-1.3078,-1.282,-1.3092,-1.3114,-1.2965,-1.337,-1.3332,-1.3068,-1.3196,-1.3404,-1.3758,-1.3691,-1.4119,-1.4681]}]]